[[{"header":{"parameterUnit":"m.s-1","parameterCategory":1,"la1":31.0,"la2":29.5877,"lo1":-88.7671,"lo2":-86.6584,"dy":0.0162,"dx":0.0185,"nx":115,"ny":88,"refTime":"2023-08-29T18:00:00:Z","depth":0,"parameterNumber":2,"parameterNumberName":"U-component_of_WINDS"},"data":[0.0,0.0,0.0,0.0,0.0,0.0,0.0,0.0,0.0,0.0,0.0,0.0,0.0,0.0,0.0,0.0,0.0,0.0,0.0,0.0,0.0,0.0,0.0,0.0,0.0,0.0,0.0,0.0,0.0,0.0,0.0,0.0,0.0,0.0,0.0,0.0,0.0,0.0,0.0,0.0,0.0,0.0,0.0,0.0,0.0,0.0,0.0,0.0,0.0,0.0,0.0,0.0,0.0,0.0,0.0,0.0,0.0,0.0,0.0,0.0,0.0,0.0,0.0,0.0,0.0,0.0,0.0,0.0,0.0,0.0,0.0,0.0,0.0,0.0,0.0,0.0,0.0,0.0,0.0,0.0,0.0,0.0,0.0,0.0,0.0,0.0,0.0,0.0,0.0,0.0,0.0,0.0,0.0,0.0,0.0,0.0,0.0,0.0,0.0,0.0,0.0,0.0,0.0,0.0,0.0,0.0,0.0,0.0,0.0,0.0,0.0,0.0,0.0,0.0,0.0,0.0,0.0,0.0,0.0,0.0,0.0,0.0,0.0,0.0,0.0,0.0,0.0,0.0,0.0,0.0,0.0,0.0,0.0,0.0,0.0,0.0,0.0,0.0,0.0,0.0,0.0,0.0,0.0,0.0,0.0,0.0,0.0,0.0,0.0,0.0,0.0,0.0,0.0,0.0,0.0,0.0,0.0,0.0,0.0,0.0,0.0,0.0,0.0,0.0,0.0,0.0,0.0,0.0,0.0,0.0,0.0,0.0,0.0,0.0,0.0,0.0,0.0,0.0,0.0,0.0,0.0,0.0,0.0,0.0,0.0,0.0,0.0,0.0,0.0,0.0,0.0,0.0,0.0,0.0,0.0,0.0,0.0,0.0,0.0,0.0,0.0,0.0,0.0,0.0,0.0,0.0,0.0,0.0,0.0,0.0,0.0,0.0,0.0,0.0,0.0,0.0,0.0,0.0,0.0,0.0,0.0,0.0,0.0,0.0,0.0,0.0,0.0,0.0,0.0,0.0,0.0,0.0,0.0,0.0,0.0,0.0,0.0,0.0,0.0,0.0,0.0,0.0,0.0,0.0,0.0,0.0,0.0,0.0,0.0,0.0,0.0,0.0,0.0,0.0,0.0,0.0,0.0,0.0,0.0,0.0,0.0,0.0,0.0,0.0,0.0,0.0,0.0,0.0,0.0,0.0,0.0,0.0,0.0,0.0,0.0,0.0,0.0,0.0,0.0,0.0,0.0,0.0,0.0,0.0,0.0,0.0,0.0,0.0,0.0,0.0,0.0,0.0,0.0,0.0,0.0,0.0,0.0,0.0,0.0,0.0,0.0,0.0,0.0,0.0,0.0,0.0,0.0,0.0,0.0,0.0,0.0,0.0,0.0,0.0,0.0,0.0,0.0,0.0,0.0,0.0,0.0,0.0,0.0,0.0,0.0,0.0,0.0,0.0,0.0,0.0,0.0,0.0,0.0,0.0,0.0,0.0,0.0,0.0,0.0,0.0,0.0,0.0,0.0,0.0,0.0,0.0,0.0,0.0,0.0,0.0,0.0,0.0,0.0,0.0,0.0,0.0,0.0,0.0,0.0,0.0,0.0,0.0,0.0,0.0,0.0,0.0,0.0,0.0,0.0,0.0,0.0,0.0,0.0,0.0,0.0,0.0,0.0,0.0,0.0,0.0,0.0,0.0,0.0,0.0,0.0,0.0,0.0,0.0,0.0,0.0,0.0,0.0,0.0,0.0,0.0,0.0,0.0,0.0,0.0,0.0,0.0,0.0,0.0,0.0,0.0,0.0,0.0,0.0,0.0,0.0,0.0,0.0,0.0,0.0,0.0,0.0,0.0,0.0,0.0,0.0,0.0,0.0,0.0,0.0,0.0,0.0,0.0,0.0,0.0,0.0,0.0,0.0,0.0,0.0,0.0,0.0,0.0,0.0,0.0,0.0,0.0,0.0,0.0,0.0,0.0,0.0,0.0,0.0,0.0,0.0,0.0,0.0,0.0,0.0,0.0,0.0,0.0,0.0,0.0,0.0,0.0,0.0,0.0,0.0,0.0,0.0,0.0,0.0,0.0,0.0,0.0,0.0,0.0,0.0,0.0,0.0,0.0,0.0,0.0,0.0,0.0,0.0,0.0,0.0,0.0,0.0,0.0,0.0,0.0,0.0,0.0,0.0,0.0,0.0,0.0,0.0,0.0,0.0,0.0,0.0,0.0,0.0,0.0,0.0,0.0,0.0,0.0,0.0,0.0,0.0,0.0,0.0,0.0,0.0,0.0,0.0,0.0,0.0,0.0,0.0,0.0,0.0,0.0,0.0,0.0,0.0,0.0,0.0,0.0,0.0,0.0,0.0,0.0,0.0,0.0,0.0,0.0,0.0,0.0,0.0,0.0,0.0,0.0,0.0,0.0,0.0,0.0,0.0,0.0,0.0,0.0,0.0,0.0,0.0,0.0,0.0,0.0,0.0,0.0,0.0,0.0,0.0,0.0,0.0,0.0,0.0,0.0,0.0,0.0,0.0,0.0,0.0,0.0,0.0,0.0,0.0,0.0,0.0,0.0,0.0,0.0,0.0,0.0,0.0,0.0,0.0,0.0,0.0,0.0,0.0,0.0,0.0,0.0,0.0,0.0,0.0,0.0,0.0,0.0,0.0,0.0,0.0,0.0,0.0,0.0,0.0,0.0,0.0,0.0,0.0,0.0,0.0,0.0,0.0,0.0,0.0,0.0,0.0,0.0,0.0,0.0,0.0,0.0,0.0,0.0,0.0,0.0,0.0,0.0,0.0,0.0,0.0,0.0,0.0,0.0,0.0,0.0,0.0,0.0,0.0,0.0,0.0,0.0,0.0,0.0,0.0,0.0,0.0,0.0,0.0,0.0,0.0,0.0,0.0,0.0,0.0,0.0,0.0,0.0,0.0,0.0,0.0,0.0,0.0,0.0,0.0,0.0,0.0,0.0,0.0,0.0,0.0,0.0,0.0,0.0,0.0,0.0,0.0,0.0,0.0,0.0,0.0,0.0,0.0,0.0,0.0,0.0,0.0,0.0,0.0,0.0,0.0,0.0,0.0,0.0,0.0,0.0,0.0,0.0,0.0,0.0,0.0,0.0,0.0,0.0,0.0,0.0,0.0,0.0,0.0,0.0,0.0,0.0,0.0,0.0,0.0,0.0,0.0,0.0,0.0,0.0,0.0,0.0,0.0,0.0,0.0,0.0,0.0,0.0,0.0,0.0,0.0,0.0,0.0,0.0,0.0,0.0,0.0,0.0,0.0,0.0,0.0,0.0,0.0,0.0,0.0,0.0,0.0,0.0,0.0,0.0,0.0,0.0,0.0,0.0,0.0,0.0,0.0,0.0,0.0,0.0,0.0,0.0,0.0,0.0,0.0,0.0,0.0,0.0,0.0,0.0,0.0,0.0,0.0,0.0,0.0,0.0,0.0,0.0,0.0,0.0,0.0,0.0,0.0,0.0,0.0,0.0,0.0,0.0,0.0,0.0,0.0,0.0,0.0,0.0,0.0,0.0,0.0,0.0,0.0,0.0,0.0,0.0,0.0,0.0,0.0,0.0,0.0,0.0,0.0,0.0,0.0,0.0,0.0,0.0,0.0,0.0,0.0,0.0,0.0,0.0,0.0,0.0,0.0,0.0,0.0,0.0,0.0,0.0,0.0,0.0,0.0,0.0,0.0,0.0,0.0,0.0,0.0,0.0,0.0,0.0,0.0,0.0,0.0,0.0,0.0,0.0,0.0,0.0,0.0,0.0,0.0,0.0,0.0,0.0,0.0,0.0,0.0,0.0,0.0,0.0,0.0,0.0,0.0,0.0,0.0,0.0,0.0,0.0,0.0,0.0,0.0,0.0,0.0,0.0,0.0,0.0,0.0,0.0,0.0,0.0,0.0,0.0,0.0,0.0,0.0,0.0,0.0,0.0,0.0,0.0,0.0,0.0,0.0,0.0,0.0,0.0,0.0,0.0,0.0,0.0,0.0,0.0,0.0,0.0,0.0,0.0,0.0,0.0,0.0,0.0,0.0,0.0,0.0,0.0,0.0,0.0,0.0,0.0,0.0,0.0,0.0,0.0,0.0,0.0,0.0,0.0,0.0,0.0,0.0,0.0,0.0,0.0,0.0,0.0,0.0,0.0,0.0,0.0,0.0,0.0,0.0,0.0,0.0,0.0,0.0,0.0,0.0,0.0,0.0,0.0,0.0,0.0,0.0,0.0,0.0,0.0,0.0,0.0,0.0,0.0,0.0,5.4626,0.0,0.0,0.0,5.3203,0.0,0.0,0.0,0.0,0.0,0.0,0.0,0.0,0.0,0.0,0.0,0.0,0.0,0.0,0.0,0.0,0.0,0.0,0.0,0.0,0.0,0.0,0.0,0.0,0.0,0.0,0.0,0.0,0.0,0.0,0.0,0.0,0.0,0.0,0.0,0.0,0.0,0.0,0.0,0.0,0.0,0.0,0.0,0.0,0.0,0.0,0.0,0.0,0.0,0.0,0.0,0.0,0.0,0.0,0.0,0.0,0.0,0.0,0.0,0.0,0.0,0.0,0.0,0.0,0.0,0.0,0.0,0.0,0.0,0.0,0.0,0.0,0.0,0.0,0.0,0.0,0.0,0.0,0.0,0.0,0.0,0.0,0.0,0.0,0.0,0.0,0.0,0.0,0.0,0.0,0.0,0.0,0.0,0.0,0.0,0.0,0.0,0.0,0.0,0.0,0.0,0.0,0.0,0.0,0.0,0.0,0.0,0.0,0.0,0.0,5.428,5.3818,5.428,5.3832,5.2219,0.0,0.0,0.0,0.0,0.0,0.0,0.0,0.0,0.0,0.0,0.0,0.0,0.0,0.0,0.0,0.0,0.0,0.0,0.0,0.0,0.0,0.0,0.0,0.0,0.0,0.0,0.0,0.0,0.0,0.0,0.0,0.0,0.0,0.0,0.0,0.0,0.0,0.0,0.0,0.0,0.0,0.0,0.0,0.0,0.0,0.0,0.0,0.0,0.0,0.0,0.0,0.0,0.0,0.0,0.0,0.0,0.0,0.0,0.0,0.0,0.0,0.0,0.0,0.0,0.0,0.0,0.0,0.0,0.0,0.0,0.0,0.0,0.0,0.0,0.0,0.0,0.0,0.0,0.0,0.0,0.0,0.0,0.0,0.0,0.0,0.0,0.0,0.0,0.0,0.0,0.0,0.0,0.0,0.0,0.0,0.0,0.0,0.0,0.0,0.0,0.0,0.0,0.0,0.0,0.0,0.0,0.0,0.0,0.0,0.0,0.0,0.0,5.4664,5.4035,5.17,0.0,0.0,0.0,0.0,0.0,0.0,0.0,0.0,0.0,0.0,0.0,0.0,0.0,0.0,0.0,0.0,0.0,0.0,0.0,0.0,0.0,0.0,0.0,0.0,0.0,0.0,0.0,0.0,0.0,0.0,0.0,0.0,0.0,0.0,0.0,0.0,0.0,0.0,0.0,0.0,0.0,0.0,0.0,0.0,0.0,0.0,0.0,0.0,0.0,0.0,0.0,0.0,0.0,0.0,0.0,0.0,0.0,0.0,0.0,0.0,0.0,0.0,0.0,0.0,0.0,0.0,0.0,0.0,0.0,0.0,0.0,0.0,0.0,0.0,0.0,0.0,0.0,0.0,0.0,0.0,0.0,0.0,0.0,0.0,0.0,0.0,0.0,0.0,0.0,0.0,0.0,0.0,0.0,0.0,0.0,0.0,0.0,0.0,0.0,0.0,0.0,0.0,0.0,0.0,0.0,0.0,0.0,0.0,0.0,0.0,5.2433,5.5357,5.4126,0.0,5.2425,0.0,0.0,0.0,0.0,0.0,0.0,0.0,0.0,0.0,0.0,0.0,0.0,0.0,0.0,0.0,0.0,0.0,0.0,0.0,0.0,0.0,0.0,0.0,0.0,0.0,0.0,0.0,0.0,0.0,0.0,0.0,0.0,0.0,0.0,0.0,0.0,0.0,0.0,0.0,0.0,0.0,0.0,0.0,0.0,0.0,0.0,0.0,0.0,0.0,0.0,0.0,0.0,0.0,0.0,0.0,0.0,0.0,0.0,0.0,0.0,0.0,0.0,0.0,0.0,0.0,0.0,0.0,0.0,0.0,0.0,0.0,0.0,0.0,0.0,0.0,0.0,0.0,0.0,0.0,0.0,0.0,0.0,0.0,0.0,0.0,0.0,0.0,0.0,0.0,0.0,0.0,0.0,0.0,0.0,0.0,0.0,0.0,0.0,0.0,0.0,0.0,0.0,0.0,0.0,0.0,0.0,0.0,0.0,0.0,0.0,5.2818,5.4203,5.3097,5.1965,0.0,0.0,0.0,0.0,0.0,0.0,0.0,0.0,0.0,0.0,0.0,0.0,0.0,0.0,0.0,0.0,0.0,0.0,0.0,0.0,0.0,0.0,0.0,0.0,0.0,0.0,0.0,0.0,0.0,0.0,0.0,0.0,0.0,0.0,0.0,0.0,0.0,0.0,0.0,0.0,0.0,0.0,0.0,0.0,0.0,0.0,0.0,0.0,0.0,0.0,0.0,0.0,0.0,0.0,0.0,0.0,0.0,0.0,0.0,0.0,0.0,0.0,0.0,0.0,0.0,0.0,0.0,0.0,0.0,0.0,0.0,0.0,0.0,0.0,0.0,0.0,0.0,0.0,0.0,0.0,0.0,0.0,0.0,0.0,0.0,0.0,0.0,0.0,0.0,0.0,0.0,0.0,0.0,0.0,0.0,0.0,0.0,0.0,0.0,0.0,0.0,0.0,0.0,0.0,0.0,0.0,0.0,0.0,0.0,0.0,5.2972,5.3276,5.3344,5.2361,5.108,4.9491,0.0,0.0,0.0,0.0,0.0,0.0,0.0,0.0,0.0,0.0,0.0,0.0,0.0,0.0,0.0,0.0,0.0,0.0,0.0,0.0,0.0,0.0,0.0,0.0,0.0,0.0,0.0,0.0,0.0,0.0,0.0,0.0,0.0,0.0,0.0,0.0,0.0,0.0,0.0,0.0,0.0,0.0,0.0,0.0,0.0,0.0,0.0,0.0,0.0,0.0,0.0,0.0,0.0,0.0,0.0,0.0,0.0,0.0,0.0,0.0,0.0,0.0,0.0,0.0,0.0,0.0,0.0,0.0,0.0,0.0,0.0,0.0,0.0,0.0,0.0,0.0,0.0,0.0,0.0,0.0,0.0,0.0,0.0,0.0,0.0,0.0,0.0,0.0,0.0,0.0,0.0,0.0,0.0,0.0,0.0,0.0,0.0,0.0,0.0,0.0,0.0,0.0,0.0,0.0,0.0,0.0,0.0,0.0,5.6357,5.4357,5.3421,5.3836,5.2215,5.0589,0.0,0.0,0.0,0.0,0.0,0.0,0.0,0.0,0.0,0.0,0.0,0.0,0.0,0.0,0.0,0.0,0.0,0.0,0.0,0.0,0.0,0.0,0.0,0.0,0.0,0.0,0.0,0.0,0.0,0.0,0.0,0.0,0.0,0.0,0.0,0.0,0.0,0.0,0.0,0.0,0.0,0.0,0.0,0.0,0.0,0.0,0.0,0.0,0.0,0.0,0.0,0.0,0.0,0.0,0.0,0.0,0.0,0.0,0.0,0.0,0.0,0.0,0.0,0.0,0.0,0.0,0.0,0.0,0.0,0.0,0.0,0.0,0.0,0.0,0.0,0.0,0.0,0.0,0.0,0.0,0.0,0.0,0.0,0.0,0.0,0.0,0.0,0.0,0.0,0.0,0.0,0.0,0.0,0.0,0.0,0.0,0.0,0.0,0.0,0.0,0.0,0.0,0.0,0.0,0.0,0.0,0.0,0.0,0.0,5.2895,5.2839,5.3402,5.4497,5.2021,5.0325,0.0,0.0,0.0,0.0,0.0,0.0,0.0,0.0,0.0,0.0,0.0,0.0,0.0,0.0,0.0,0.0,0.0,0.0,0.0,0.0,0.0,0.0,0.0,0.0,0.0,0.0,0.0,0.0,0.0,0.0,0.0,0.0,0.0,0.0,0.0,0.0,0.0,0.0,0.0,0.0,0.0,0.0,0.0,0.0,0.0,0.0,0.0,0.0,0.0,0.0,0.0,0.0,0.0,0.0,0.0,0.0,0.0,0.0,0.0,0.0,0.0,0.0,0.0,0.0,0.0,0.0,0.0,0.0,0.0,0.0,0.0,0.0,0.0,0.0,0.0,0.0,0.0,0.0,0.0,0.0,0.0,0.0,0.0,0.0,0.0,0.0,0.0,0.0,0.0,0.0,0.0,0.0,0.0,0.0,0.0,0.0,0.0,0.0,0.0,0.0,0.0,0.0,0.0,0.0,0.0,0.0,0.0,0.0,0.0,5.2318,0.0,5.4371,5.4509,5.2145,5.0118,0.0,0.0,0.0,0.0,0.0,0.0,0.0,0.0,0.0,0.0,0.0,0.0,0.0,0.0,0.0,0.0,0.0,0.0,0.0,0.0,0.0,0.0,0.0,0.0,0.0,0.0,0.0,0.0,0.0,0.0,0.0,0.0,0.0,0.0,0.0,0.0,0.0,0.0,0.0,0.0,0.0,0.0,0.0,0.0,0.0,0.0,0.0,0.0,0.0,0.0,0.0,0.0,0.0,0.0,0.0,0.0,0.0,0.0,0.0,0.0,0.0,0.0,0.0,0.0,0.0,0.0,0.0,0.0,0.0,0.0,0.0,0.0,0.0,0.0,0.0,0.0,0.0,0.0,0.0,0.0,0.0,0.0,0.0,0.0,0.0,0.0,0.0,0.0,0.0,0.0,0.0,0.0,0.0,0.0,0.0,0.0,0.0,0.0,0.0,0.0,0.0,0.0,0.0,0.0,0.0,0.0,0.0,0.0,5.2279,5.5434,5.6767,5.6267,5.4015,5.2617,4.989,0.0,0.0,0.0,0.0,0.0,0.0,0.0,0.0,0.0,0.0,0.0,0.0,0.0,0.0,0.0,0.0,0.0,0.0,0.0,0.0,0.0,0.0,0.0,0.0,0.0,0.0,0.0,0.0,0.0,0.0,0.0,0.0,0.0,0.0,0.0,0.0,0.0,0.0,0.0,0.0,0.0,0.0,0.0,0.0,0.0,0.0,0.0,0.0,0.0,0.0,0.0,0.0,0.0,0.0,0.0,0.0,0.0,0.0,0.0,0.0,0.0,0.0,0.0,0.0,0.0,0.0,0.0,0.0,0.0,0.0,0.0,0.0,0.0,0.0,0.0,0.0,0.0,0.0,0.0,0.0,0.0,0.0,0.0,0.0,0.0,0.0,0.0,0.0,0.0,0.0,0.0,0.0,0.0,0.0,0.0,0.0,0.0,0.0,0.0,0.0,0.0,0.0,0.0,0.0,0.0,0.0,0.0,0.0,0.0,5.3067,5.4063,5.5011,5.5744,5.226,5.0232,0.0,0.0,0.0,0.0,0.0,0.0,0.0,0.0,0.0,0.0,0.0,0.0,0.0,0.0,0.0,0.0,0.0,0.0,0.0,0.0,0.0,0.0,0.0,0.0,0.0,0.0,0.0,0.0,0.0,0.0,0.0,0.0,0.0,0.0,0.0,0.0,0.0,0.0,0.0,0.0,0.0,0.0,0.0,0.0,0.0,0.0,0.0,0.0,0.0,0.0,0.0,0.0,0.0,0.0,0.0,0.0,0.0,0.0,0.0,0.0,0.0,0.0,0.0,0.0,0.0,0.0,0.0,0.0,0.0,0.0,0.0,0.0,0.0,0.0,0.0,0.0,0.0,0.0,0.0,0.0,0.0,0.0,0.0,0.0,0.0,0.0,0.0,0.0,0.0,0.0,0.0,0.0,0.0,0.0,0.0,0.0,0.0,0.0,0.0,0.0,0.0,0.0,0.0,0.0,0.0,0.0,0.0,0.0,0.0,5.3374,5.4901,5.6147,5.71,5.3377,5.1232,5.0785,0.0,0.0,0.0,0.0,0.0,0.0,0.0,0.0,0.0,0.0,0.0,0.0,0.0,0.0,0.0,0.0,0.0,0.0,0.0,0.0,0.0,0.0,0.0,0.0,0.0,0.0,0.0,0.0,0.0,0.0,0.0,0.0,0.0,0.0,0.0,0.0,0.0,0.0,0.0,0.0,0.0,0.0,0.0,0.0,0.0,0.0,0.0,0.0,0.0,0.0,0.0,0.0,0.0,0.0,0.0,0.0,0.0,0.0,0.0,0.0,0.0,0.0,0.0,0.0,0.0,0.0,0.0,0.0,0.0,0.0,0.0,0.0,0.0,0.0,0.0,0.0,0.0,0.0,0.0,0.0,0.0,0.0,0.0,0.0,0.0,0.0,0.0,0.0,0.0,0.0,0.0,0.0,0.0,0.0,0.0,0.0,0.0,0.0,0.0,0.0,0.0,0.0,0.0,0.0,0.0,0.0,0.0,0.0,5.5665,5.8525,5.9291,5.7806,5.5599,5.2799,0.0,0.0,0.0,0.0,0.0,0.0,0.0,0.0,0.0,0.0,0.0,0.0,0.0,0.0,0.0,0.0,0.0,0.0,0.0,0.0,0.0,0.0,0.0,0.0,0.0,0.0,0.0,0.0,0.0,0.0,0.0,0.0,0.0,0.0,0.0,0.0,0.0,0.0,0.0,0.0,0.0,0.0,0.0,0.0,0.0,0.0,0.0,0.0,0.0,0.0,0.0,0.0,0.0,0.0,0.0,0.0,0.0,0.0,0.0,0.0,0.0,0.0,0.0,0.0,0.0,0.0,0.0,0.0,0.0,0.0,0.0,0.0,0.0,0.0,0.0,0.0,0.0,0.0,0.0,0.0,0.0,0.0,0.0,0.0,0.0,0.0,0.0,0.0,0.0,0.0,0.0,0.0,0.0,0.0,0.0,0.0,0.0,0.0,0.0,0.0,0.0,0.0,0.0,0.0,0.0,0.0,0.0,0.0,0.0,5.5682,5.8813,6.0248,5.9757,5.6853,5.4256,0.0,0.0,0.0,0.0,0.0,0.0,0.0,0.0,0.0,0.0,0.0,0.0,0.0,0.0,0.0,0.0,0.0,0.0,0.0,0.0,0.0,0.0,0.0,0.0,0.0,0.0,0.0,0.0,0.0,0.0,0.0,0.0,0.0,0.0,0.0,0.0,0.0,0.0,0.0,0.0,0.0,0.0,0.0,0.0,0.0,0.0,0.0,0.0,0.0,0.0,0.0,0.0,0.0,0.0,0.0,0.0,0.0,0.0,0.0,0.0,0.0,0.0,0.0,0.0,0.0,0.0,0.0,0.0,0.0,0.0,0.0,0.0,0.0,0.0,0.0,0.0,0.0,0.0,0.0,0.0,0.0,0.0,0.0,0.0,0.0,0.0,0.0,0.0,0.0,0.0,0.0,0.0,0.0,0.0,0.0,0.0,0.0,0.0,0.0,0.0,0.0,0.0,0.0,0.0,0.0,0.0,0.0,0.0,5.4049,5.6242,5.9412,6.109,6.1127,5.8874,5.6235,0.0,0.0,0.0,0.0,0.0,0.0,0.0,0.0,0.0,0.0,0.0,0.0,0.0,0.0,0.0,0.0,0.0,0.0,0.0,0.0,0.0,0.0,0.0,0.0,0.0,0.0,0.0,0.0,0.0,0.0,0.0,0.0,0.0,0.0,0.0,0.0,0.0,0.0,0.0,0.0,0.0,0.0,0.0,0.0,0.0,0.0,0.0,0.0,0.0,0.0,0.0,0.0,0.0,0.0,0.0,0.0,0.0,0.0,0.0,0.0,0.0,0.0,0.0,0.0,0.0,0.0,0.0,0.0,0.0,0.0,0.0,0.0,0.0,0.0,0.0,0.0,0.0,0.0,0.0,0.0,0.0,0.0,0.0,0.0,0.0,0.0,0.0,0.0,0.0,0.0,0.0,0.0,0.0,0.0,0.0,0.0,0.0,0.0,0.0,0.0,0.0,0.0,0.0,0.0,0.0,0.0,0.0,0.0,5.5241,5.7126,6.0089,6.1805,6.1956,6.0729,5.7923,0.0,0.0,0.0,0.0,0.0,0.0,0.0,0.0,0.0,0.0,0.0,0.0,0.0,0.0,0.0,0.0,0.0,0.0,0.0,0.0,0.0,0.0,0.0,0.0,0.0,0.0,0.0,0.0,0.0,0.0,0.0,0.0,0.0,0.0,0.0,0.0,0.0,0.0,0.0,0.0,0.0,0.0,0.0,0.0,0.0,0.0,0.0,0.0,0.0,0.0,0.0,0.0,0.0,0.0,0.0,0.0,0.0,0.0,0.0,0.0,0.0,0.0,0.0,0.0,0.0,0.0,0.0,0.0,0.0,0.0,0.0,0.0,0.0,0.0,0.0,0.0,0.0,0.0,0.0,0.0,0.0,0.0,0.0,0.0,0.0,0.0,0.0,0.0,0.0,0.0,0.0,0.0,0.0,0.0,0.0,0.0,0.0,0.0,0.0,0.0,0.0,0.0,0.0,0.0,0.0,0.0,0.0,0.0,5.4934,5.7956,5.9893,6.1504,6.2786,5.9393,5.6492,0.0,0.0,0.0,0.0,0.0,0.0,0.0,0.0,0.0,0.0,0.0,0.0,0.0,0.0,0.0,0.0,0.0,0.0,0.0,0.0,0.0,0.0,0.0,0.0,0.0,0.0,0.0,0.0,0.0,0.0,0.0,0.0,0.0,0.0,0.0,0.0,0.0,0.0,0.0,0.0,0.0,0.0,0.0,0.0,0.0,0.0,0.0,0.0,5.8242,0.0,0.0,0.0,0.0,0.0,0.0,0.0,0.0,0.0,0.0,0.0,0.0,0.0,0.0,0.0,0.0,0.0,0.0,0.0,0.0,0.0,0.0,0.0,0.0,0.0,0.0,0.0,0.0,0.0,0.0,0.0,0.0,0.0,0.0,0.0,0.0,0.0,0.0,0.0,0.0,0.0,0.0,0.0,0.0,0.0,0.0,0.0,0.0,0.0,0.0,0.0,0.0,0.0,0.0,0.0,0.0,0.0,0.0,0.0,5.5049,5.7627,5.9209,6.0636,6.1731,5.8577,5.6235,0.0,0.0,0.0,0.0,0.0,0.0,0.0,0.0,0.0,0.0,0.0,0.0,0.0,0.0,0.0,0.0,0.0,0.0,0.0,0.0,0.0,0.0,0.0,0.0,0.0,0.0,0.0,0.0,0.0,0.0,0.0,0.0,0.0,0.0,0.0,0.0,0.0,0.0,0.0,0.0,0.0,0.0,0.0,0.0,0.0,0.0,0.0,0.0,0.0,0.0,0.0,0.0,0.0,0.0,0.0,0.0,0.0,0.0,0.0,0.0,0.0,0.0,0.0,0.0,0.0,0.0,0.0,0.0,0.0,0.0,0.0,0.0,0.0,0.0,0.0,0.0,0.0,0.0,0.0,0.0,0.0,0.0,0.0,0.0,0.0,0.0,0.0,0.0,0.0,0.0,0.0,0.0,0.0,0.0,0.0,0.0,0.0,0.0,0.0,0.0,0.0,0.0,0.0,0.0,0.0,0.0,0.0,5.2646,5.5126,5.7159,5.8524,5.9653,6.0561,5.8243,5.6447,5.5302,0.0,0.0,0.0,0.0,0.0,0.0,0.0,0.0,0.0,0.0,0.0,0.0,0.0,0.0,0.0,0.0,0.0,0.0,0.0,0.0,0.0,0.0,0.0,0.0,0.0,0.0,0.0,0.0,0.0,0.0,0.0,0.0,0.0,0.0,0.0,0.0,0.0,0.0,5.3696,5.4436,0.0,0.0,0.0,0.0,0.0,0.0,0.0,0.0,5.7315,0.0,0.0,0.0,0.0,0.0,0.0,0.0,0.0,0.0,0.0,0.0,0.0,0.0,0.0,0.0,0.0,0.0,0.0,0.0,0.0,0.0,0.0,0.0,0.0,0.0,0.0,0.0,0.0,0.0,0.0,0.0,0.0,0.0,0.0,0.0,0.0,0.0,0.0,0.0,0.0,0.0,0.0,0.0,0.0,0.0,0.0,0.0,0.0,0.0,0.0,0.0,0.0,0.0,0.0,0.0,0.0,5.1434,5.2068,5.4182,5.7981,5.8228,5.9053,6.045,5.88,5.6566,5.3878,0.0,0.0,0.0,0.0,0.0,0.0,0.0,0.0,0.0,0.0,0.0,0.0,0.0,0.0,0.0,0.0,0.0,0.0,0.0,0.0,0.0,0.0,0.0,0.0,0.0,0.0,0.0,0.0,0.0,0.0,0.0,0.0,0.0,0.0,0.0,0.0,0.0,0.0,0.0,5.6923,5.7483,0.0,0.0,0.0,0.0,0.0,0.0,0.0,0.0,5.7608,0.0,0.0,0.0,0.0,0.0,0.0,0.0,0.0,0.0,0.0,0.0,0.0,0.0,0.0,0.0,0.0,0.0,0.0,0.0,0.0,0.0,0.0,0.0,0.0,0.0,0.0,0.0,0.0,0.0,0.0,0.0,0.0,0.0,0.0,0.0,0.0,0.0,0.0,0.0,0.0,0.0,0.0,0.0,0.0,0.0,0.0,0.0,0.0,0.0,0.0,0.0,0.0,0.0,0.0,0.0,5.1143,5.2127,5.4413,5.8158,5.8397,5.8949,5.9882,5.7709,5.5331,0.0,0.0,0.0,0.0,0.0,0.0,0.0,0.0,0.0,0.0,0.0,0.0,0.0,0.0,0.0,0.0,0.0,0.0,0.0,0.0,0.0,0.0,0.0,0.0,0.0,0.0,0.0,0.0,0.0,0.0,0.0,0.0,0.0,0.0,0.0,0.0,0.0,0.0,0.0,0.0,5.7271,5.785,5.7446,0.0,0.0,0.0,0.0,0.0,0.0,5.6339,5.639,0.0,0.0,0.0,0.0,0.0,0.0,0.0,0.0,0.0,0.0,0.0,0.0,0.0,0.0,0.0,0.0,0.0,0.0,0.0,0.0,0.0,0.0,0.0,0.0,0.0,0.0,0.0,0.0,0.0,0.0,0.0,0.0,0.0,0.0,0.0,0.0,0.0,0.0,0.0,0.0,0.0,0.0,0.0,0.0,0.0,0.0,0.0,0.0,0.0,0.0,0.0,0.0,0.0,0.0,0.0,5.0657,5.2184,5.4587,5.7857,5.8386,5.8753,5.9087,5.6817,5.4519,0.0,0.0,0.0,0.0,0.0,0.0,0.0,0.0,0.0,0.0,0.0,0.0,0.0,0.0,0.0,0.0,0.0,0.0,0.0,0.0,0.0,0.0,0.0,0.0,0.0,0.0,0.0,0.0,0.0,0.0,0.0,0.0,0.0,0.0,0.0,0.0,0.0,0.0,0.0,0.0,0.0,5.84,5.7446,5.796,0.0,0.0,0.0,0.0,5.6029,5.6055,0.0,0.0,0.0,0.0,0.0,0.0,0.0,0.0,0.0,0.0,0.0,0.0,0.0,0.0,0.0,0.0,0.0,0.0,0.0,0.0,0.0,0.0,0.0,0.0,0.0,0.0,0.0,0.0,0.0,0.0,0.0,0.0,0.0,0.0,0.0,0.0,0.0,0.0,0.0,0.0,0.0,0.0,0.0,0.0,0.0,0.0,0.0,0.0,0.0,0.0,0.0,0.0,0.0,0.0,0.0,0.0,5.0619,5.1588,5.3703,5.6956,5.7545,5.7916,5.8223,5.7567,5.5665,0.0,0.0,0.0,0.0,0.0,0.0,0.0,0.0,0.0,0.0,0.0,0.0,0.0,0.0,0.0,0.0,0.0,0.0,0.0,0.0,0.0,0.0,0.0,0.0,0.0,0.0,0.0,0.0,0.0,0.0,0.0,0.0,0.0,0.0,0.0,0.0,0.0,0.0,0.0,0.0,0.0,6.0639,5.9134,5.9612,5.9538,0.0,0.0,5.7666,5.7715,5.8859,0.0,0.0,0.0,0.0,0.0,0.0,0.0,0.0,0.0,0.0,0.0,0.0,0.0,0.0,0.0,0.0,0.0,0.0,0.0,0.0,0.0,0.0,0.0,0.0,0.0,0.0,0.0,0.0,0.0,0.0,0.0,0.0,0.0,0.0,0.0,0.0,0.0,0.0,0.0,0.0,0.0,0.0,0.0,0.0,0.0,0.0,0.0,0.0,0.0,0.0,0.0,0.0,0.0,0.0,0.0,4.7661,5.0565,5.1049,5.3107,5.6862,5.7666,5.8033,5.8106,5.6654,5.4687,0.0,0.0,0.0,0.0,0.0,0.0,0.0,0.0,0.0,0.0,0.0,0.0,0.0,0.0,0.0,0.0,0.0,0.0,0.0,0.0,0.0,0.0,0.0,0.0,0.0,0.0,0.0,0.0,0.0,0.0,0.0,0.0,0.0,0.0,0.0,0.0,0.0,0.0,0.0,0.0,0.0,0.0,5.9355,6.0272,0.0,0.0,0.0,5.8171,5.8629,0.0,0.0,0.0,0.0,0.0,0.0,0.0,0.0,0.0,0.0,0.0,0.0,0.0,0.0,0.0,0.0,0.0,0.0,0.0,0.0,0.0,0.0,0.0,0.0,0.0,0.0,0.0,0.0,0.0,0.0,0.0,0.0,0.0,0.0,0.0,0.0,0.0,0.0,0.0,0.0,0.0,0.0,0.0,0.0,0.0,0.0,0.0,0.0,0.0,0.0,0.0,0.0,0.0,0.0,0.0,0.0,0.0,5.0642,5.0895,5.2933,5.684,5.7712,5.8127,5.8069,5.6078,0.0,0.0,0.0,0.0,0.0,0.0,0.0,0.0,0.0,0.0,0.0,0.0,0.0,0.0,0.0,0.0,0.0,0.0,0.0,0.0,0.0,0.0,0.0,0.0,0.0,0.0,0.0,4.3718,0.0,0.0,0.0,0.0,0.0,0.0,0.0,0.0,0.0,0.0,0.0,0.0,0.0,0.0,5.9696,5.9394,6.0662,6.1153,0.0,0.0,5.8731,5.9154,5.8694,5.7707,0.0,0.0,0.0,0.0,0.0,0.0,0.0,0.0,0.0,0.0,0.0,0.0,0.0,0.0,0.0,0.0,0.0,0.0,0.0,0.0,0.0,0.0,0.0,0.0,0.0,0.0,0.0,0.0,0.0,0.0,0.0,0.0,0.0,0.0,0.0,0.0,0.0,0.0,0.0,0.0,0.0,0.0,0.0,0.0,0.0,0.0,0.0,0.0,0.0,0.0,0.0,0.0,0.0,0.0,4.8102,5.0619,5.1434,5.349,5.6851,5.743,5.7764,5.8072,5.6855,5.4929,0.0,0.0,0.0,0.0,0.0,0.0,0.0,0.0,0.0,0.0,0.0,0.0,0.0,0.0,0.0,0.0,0.0,0.0,0.0,0.0,0.0,0.0,0.0,0.0,0.0,0.0,0.0,0.0,0.0,0.0,0.0,0.0,0.0,0.0,0.0,0.0,0.0,0.0,0.0,0.0,0.0,5.8547,5.9701,6.0868,6.1557,0.0,6.075,6.0015,5.9333,6.0995,6.0834,5.6344,0.0,0.0,0.0,0.0,0.0,0.0,0.0,0.0,0.0,0.0,0.0,0.0,0.0,0.0,0.0,0.0,0.0,0.0,0.0,0.0,0.0,0.0,0.0,0.0,0.0,0.0,0.0,0.0,0.0,0.0,0.0,0.0,0.0,0.0,0.0,0.0,0.0,0.0,0.0,0.0,0.0,0.0,0.0,0.0,0.0,0.0,0.0,0.0,0.0,0.0,0.0,0.0,0.0,4.7622,5.0642,5.101,5.2779,5.6066,5.6626,5.6806,5.6635,5.5956,5.4078,0.0,0.0,0.0,0.0,0.0,0.0,0.0,0.0,0.0,0.0,0.0,0.0,0.0,0.0,0.0,0.0,0.0,0.0,0.0,0.0,0.0,0.0,0.0,0.0,0.0,0.0,0.0,0.0,4.3791,4.3791,4.4635,0.0,0.0,0.0,0.0,0.0,0.0,0.0,0.0,0.0,0.0,5.8666,6.0375,6.12,0.0,0.0,6.1263,6.0444,6.064,6.0224,5.8841,5.6066,5.4883,0.0,0.0,0.0,0.0,0.0,0.0,0.0,0.0,0.0,0.0,0.0,0.0,0.0,0.0,0.0,0.0,0.0,0.0,0.0,0.0,0.0,0.0,0.0,0.0,0.0,0.0,4.5586,4.5586,0.0,0.0,0.0,0.0,0.0,0.0,0.0,0.0,0.0,0.0,0.0,0.0,0.0,0.0,0.0,0.0,0.0,0.0,0.0,0.0,0.0,0.0,0.0,0.0,4.7527,5.0682,5.0914,5.2702,5.6011,5.6141,5.6156,5.6069,5.5324,5.3314,5.0073,0.0,0.0,0.0,0.0,0.0,0.0,0.0,0.0,0.0,0.0,0.0,0.0,0.0,0.0,0.0,0.0,0.0,0.0,0.0,0.0,0.0,0.0,0.0,0.0,0.0,0.0,0.0,4.4342,4.3975,4.4305,0.0,0.0,0.0,0.0,0.0,0.0,0.0,0.0,0.0,0.0,5.8338,6.0625,6.1025,6.1308,6.1961,6.0921,6.0249,6.081,5.9674,5.7941,5.5655,0.0,0.0,0.0,0.0,0.0,0.0,0.0,0.0,0.0,0.0,0.0,0.0,0.0,0.0,0.0,0.0,0.0,0.0,0.0,0.0,0.0,0.0,0.0,0.0,0.0,0.0,0.0,4.5586,0.0,0.0,4.5586,0.0,0.0,0.0,0.0,0.0,0.0,0.0,0.0,0.0,0.0,0.0,0.0,0.0,0.0,0.0,0.0,0.0,0.0,0.0,0.0,0.0,0.0,4.8143,5.0682,5.1453,5.351,5.6797,5.6159,5.6031,5.6752,5.5238,5.3035,5.0119,0.0,0.0,0.0,0.0,0.0,0.0,0.0,0.0,0.0,0.0,0.0,0.0,0.0,0.0,0.0,0.0,0.0,0.0,0.0,0.0,0.0,0.0,0.0,0.0,0.0,0.0,4.57,4.5149,4.4342,0.0,0.0,0.0,0.0,0.0,0.0,0.0,0.0,0.0,5.4113,5.5615,5.7379,6.0151,6.0224,6.0092,6.0478,5.9773,5.9237,5.9297,5.9821,5.9034,0.0,0.0,0.0,0.0,0.0,0.0,0.0,0.0,0.0,0.0,0.0,0.0,0.0,0.0,0.0,0.0,0.0,0.0,0.0,0.0,0.0,0.0,0.0,0.0,0.0,0.0,0.0,4.7797,4.7293,0.0,0.0,0.0,0.0,0.0,0.0,0.0,0.0,0.0,0.0,0.0,4.8663,4.9971,0.0,0.0,0.0,0.0,0.0,0.0,0.0,0.0,0.0,0.0,0.0,0.0,4.8143,5.0605,5.1491,5.328,5.5989,5.5323,5.505,5.5314,5.4199,5.2227,4.9359,0.0,0.0,0.0,0.0,0.0,0.0,0.0,0.0,0.0,0.0,0.0,0.0,0.0,0.0,0.0,0.0,0.0,0.0,0.0,0.0,0.0,0.0,0.0,0.0,0.0,4.4599,0.0,0.0,0.0,0.0,0.0,0.0,0.0,0.0,0.0,0.0,4.9277,5.0735,5.3749,5.5577,5.7307,5.9098,5.9399,5.966,0.0,0.0,0.0,0.0,0.0,0.0,0.0,0.0,0.0,0.0,0.0,0.0,0.0,6.114,6.1508,5.8547,5.7996,5.7802,5.7316,0.0,0.0,0.0,0.0,0.0,0.0,0.0,0.0,0.0,0.0,0.0,0.0,0.0,0.0,4.8566,4.8489,4.7932,0.0,0.0,0.0,0.0,0.0,0.0,0.0,0.0,5.0394,5.1087,5.0317,5.1702,5.1895,5.1125,5.0985,4.9486,0.0,0.0,0.0,0.0,0.0,0.0,0.0,0.0,4.8451,5.0625,5.1799,5.3318,5.5143,5.4752,5.4371,5.4037,5.3006,5.1321,4.8968,4.5892,4.3659,0.0,0.0,0.0,0.0,0.0,0.0,0.0,0.0,0.0,0.0,0.0,0.0,0.0,0.0,0.0,0.0,0.0,0.0,0.0,0.0,0.0,0.0,0.0,4.4672,0.0,0.0,0.0,0.0,0.0,0.0,0.0,0.0,0.0,4.9415,5.0301,5.1825,5.4392,5.6214,5.7658,5.8601,0.0,0.0,0.0,0.0,0.0,0.0,0.0,5.7152,5.5583,5.5742,5.5788,5.4987,5.7017,5.8995,5.9439,0.0,0.0,6.0053,5.9459,5.9169,5.8943,5.9495,5.9989,6.0026,6.0201,6.0518,0.0,0.0,0.0,0.0,4.8221,0.0,0.0,0.0,4.7586,4.8164,0.0,4.7838,0.0,0.0,0.0,0.0,4.7163,4.951,0.0,0.0,5.1951,5.2721,5.1951,5.2759,5.2759,5.2008,5.3058,5.1955,4.8819,4.6833,4.5237,0.0,0.0,0.0,0.0,0.0,4.8971,5.0741,5.2279,5.3587,5.4528,5.4486,5.4037,5.3225,5.1834,5.0412,4.9039,4.8138,4.6129,4.2678,4.3762,0.0,0.0,0.0,0.0,0.0,0.0,0.0,0.0,0.0,0.0,0.0,0.0,0.0,0.0,0.0,0.0,0.0,0.0,0.0,0.0,4.5404,0.0,0.0,0.0,0.0,0.0,0.0,0.0,0.0,0.0,4.882,4.9622,5.1746,5.3959,5.599,0.0,0.0,0.0,0.0,5.9065,5.8179,5.796,5.7911,5.7993,5.8544,5.7956,5.5062,0.0,0.0,5.3847,5.48,5.5993,5.5788,5.783,6.0501,6.4119,6.2764,6.1739,6.2352,6.0884,6.0003,6.1176,6.1066,6.0797,5.1593,0.0,0.0,0.0,0.0,5.0678,5.1548,5.2664,5.2433,5.171,5.0732,5.0245,0.0,0.0,0.0,0.0,0.0,0.0,5.041,5.0023,5.1859,5.2303,5.1514,5.236,5.2627,5.2394,5.2158,5.1225,4.9753,4.8016,4.6396,4.4892,0.0,0.0,0.0,0.0,4.9005,5.1414,5.201,5.328,5.5318,5.4154,5.3478,5.3193,5.2287,5.1108,4.9735,4.8452,4.7072,4.5557,4.3878,0.0,0.0,0.0,0.0,0.0,0.0,0.0,0.0,0.0,0.0,0.0,0.0,0.0,0.0,0.0,0.0,0.0,0.0,0.0,4.4634,4.4413,4.4709,0.0,0.0,0.0,0.0,0.0,0.0,0.0,0.0,0.0,5.1871,5.3243,5.4509,0.0,0.0,5.8269,5.747,5.8219,5.8713,5.8097,5.7098,0.0,5.7141,5.6495,5.5606,5.4758,5.4971,5.5213,5.504,5.5855,5.6599,5.6519,5.7671,5.8912,5.9953,6.108,6.1592,6.1862,6.1775,6.1898,6.2315,6.2278,6.1972,5.3038,5.0885,5.0628,5.0894,5.1543,5.1988,5.2778,5.3721,5.3546,5.3031,5.2234,5.1255,4.9924,4.8445,4.8128,0.0,0.0,0.0,5.0636,5.0607,5.1623,5.1891,5.1608,5.2102,5.233,5.233,5.168,5.0936,5.0216,4.9041,4.7601,4.6008,0.0,4.613,4.6323,4.7452,4.9341,5.1779,5.1895,5.2972,5.5164,5.3888,5.319,5.3193,5.2769,5.1849,5.0464,4.9873,4.8855,4.7285,4.5796,4.447,0.0,0.0,0.0,0.0,0.0,0.0,0.0,0.0,0.0,0.0,0.0,4.0087,4.0087,0.0,0.0,0.0,4.3252,4.4452,4.5112,4.4784,0.0,0.0,0.0,0.0,0.0,0.0,0.0,4.9619,4.9801,5.0581,5.2474,5.3456,5.4363,5.5448,5.7117,5.7877,5.6948,0.0,5.8545,5.8088,5.6963,5.6325,5.6796,5.5889,5.4962,5.4656,5.4362,5.4296,5.4737,5.5244,5.5572,5.5657,5.6195,5.687,5.7199,5.861,5.9865,6.0172,6.0651,6.1066,6.1323,6.1163,6.0844,5.3995,5.3193,5.1972,5.1697,5.2083,5.2569,5.2741,5.2691,5.2242,5.2617,5.3427,5.1142,5.0304,5.0502,4.9401,0.0,4.9625,5.0433,5.0982,5.1318,5.1255,5.1456,5.179,5.168,5.168,5.1617,5.1292,5.0763,5.0035,4.9676,4.8746,4.7315,4.6789,4.6725,4.7127,4.8201,4.9771,5.1836,5.1933,5.2721,5.4309,5.367,5.3265,5.323,5.3225,5.2509,5.1225,5.1777,5.0914,4.8226,4.8517,4.7173,4.3799,0.0,0.0,0.0,0.0,0.0,0.0,0.0,0.0,0.0,0.0,0.0,0.0,0.0,0.0,4.1754,4.3512,0.0,4.5737,4.5896,0.0,0.0,0.0,4.7363,4.7507,4.8283,4.9038,4.9548,0.0,0.0,5.1863,5.2724,5.3732,5.5147,5.652,5.7208,5.6801,5.7746,5.8433,5.7941,5.7239,5.6778,5.6517,5.5796,5.4873,5.4192,5.3822,5.3484,5.328,5.3416,5.3382,5.3484,5.3977,5.4667,5.5482,5.6256,5.6893,5.7637,5.8099,5.8492,5.9128,5.8896,5.8652,5.4289,5.4032,5.313,5.2973,5.3379,5.3849,5.4042,5.3997,5.3215,5.2567,5.1888,5.0697,5.0071,4.9778,4.9467,5.0046,5.1318,5.151,5.1519,5.1294,5.1033,5.0639,5.004,4.9172,4.8739,4.8744,4.8601,4.8643,4.8753,4.8676,4.8746,4.893,4.8236,4.7887,4.7994,4.8294,4.9581,5.1895,5.1933,5.2426,5.3471,5.3974,5.3899,5.3188,5.3225,5.2509,5.1173,5.1812,5.1123,4.8843,4.7655,4.6441,4.4986,4.267,0.0,0.0,0.0,0.0,0.0,0.0,0.0,0.0,0.0,4.1271,4.0155,0.0,4.1273,0.0,4.3253,4.4353,4.5128,4.4718,0.0,0.0,4.7666,4.7793,4.8452,4.9253,4.959,4.9136,4.9653,5.0366,5.1245,5.1982,5.2521,5.294,5.5049,5.6432,5.5999,5.701,5.7617,5.7124,5.6464,5.5777,5.5162,5.3998,5.2872,5.1884,5.2686,5.2972,5.141,5.1776,5.2312,5.2312,5.242,5.2903,5.3856,5.4222,5.4346,5.4736,5.653,5.8241,5.8409,5.827,5.8036,5.3885,5.3806,5.3408,5.3318,5.3565,5.3639,5.3624,5.3583,5.2944,5.2177,5.1327,5.0341,4.9666,4.9265,4.9408,5.0073,5.1053,5.1092,5.0894,5.0491,5.0124,4.9402,4.8389,4.7758,4.7243,4.69,4.6873,4.7169,4.7755,4.7792,4.8196,4.8967,4.8526,4.8382,4.8558,4.8767,5.0111,5.2717,5.3332,5.3465,5.3239,5.3692,5.3674,5.323,5.2858,5.2045,5.0642,5.16,5.1228,4.908,4.8286,4.7268,4.5939,4.3808,4.1996,0.0,0.0,0.0,0.0,0.0,0.0,0.0,0.0,0.0,0.0,0.0,4.1767,4.3037,4.3874,4.4736,4.557,4.5574,4.5996,4.7202,4.7557,4.7893,4.8355,4.9097,4.9513,4.9396,4.9521,4.9705,5.0112,5.0449,5.095,5.1491,5.2923,5.4233,5.5037,5.5987,5.6589,5.6316,5.5374,5.4398,5.3672,5.2877,5.2058,5.1534,5.215,5.2215,5.0743,5.0855,5.1229,5.1229,5.1229,5.1386,5.1976,5.2537,5.2775,5.3045,5.4567,5.6064,5.6541,5.6309,5.598,5.3225,5.3225,5.3225,5.3225,5.3193,5.2715,5.253,5.2493,5.2048,5.1523,5.0925,4.9894,4.9232,4.8911,4.9239,4.9644,4.9999,4.9999,4.9846,4.9475,4.9075,4.8338,4.7316,4.7056,4.658,4.592,4.5768,4.6173,4.6948,4.7058,4.7535,4.8269,4.8306,4.8532,4.8996,4.9302,5.0875,5.3709,5.4802,5.479,5.3579,5.3428,5.3334,5.3157,5.2417,5.1318,4.9948,5.1298,5.1053,4.9073,4.9409,4.8681,4.6608,4.5425,4.393,0.0,4.1015,0.0,0.0,0.0,0.0,0.0,0.0,0.0,0.0,4.0985,4.226,4.4122,4.4718,4.5306,4.6054,4.6778,4.6715,4.5719,4.6738,4.7568,4.7672,4.8259,4.8875,4.9538,4.909,4.8707,4.866,4.8709,4.9243,5.0294,5.0813,5.1782,5.3559,5.4759,5.5471,5.5427,5.4201,5.3106,5.2227,5.2099,5.1891,5.1394,5.1688,5.1381,4.9963,5.0023,5.0165,5.0165,5.0165,5.0269,5.038,5.1125,5.176,5.1967,5.2841,5.3719,5.433,5.416,5.3754,5.3225,5.3225,5.3225,5.3225,5.3151,5.243,5.2103,5.2029,5.1337,5.023,4.89,4.8675,4.868,4.8878,4.8973,4.922,4.9589,4.9617,4.9561,4.9475,4.9075,4.8807,4.8481,4.691,4.6067,4.5847,4.5219,4.5329,4.614,4.6801,4.7535,4.8306,4.8306,4.8675,4.9416,0.0,0.0,0.0,5.3546,5.4153,5.5158,5.4597,5.3899,5.323,5.2417,0.0,4.9203,5.0433,5.0285,4.8267,4.9173,0.0,4.6355,0.0,0.0,0.0,0.0,0.0,0.0,0.0,0.0,0.0,4.1607,4.161,4.1102,4.2238,4.311,4.3409,4.4054,4.453,4.4678,4.4847,4.5131,4.5614,4.5932,4.634,4.6884,4.7121,4.7267,4.7368,4.7295,4.7228,4.7251,4.766,4.81,4.847,4.934,5.0389,5.1511,5.3368,5.4583,5.4532,5.3311,5.2039,5.0706,5.1093,5.062,4.9052,5.0335,5.0437,4.7973,4.8337,4.9023,4.9135,4.9054,4.9425,5.0192,5.0602,5.0887,5.1727,5.1999,5.2499,5.3448,5.3585,5.3551,5.3225,5.3225,5.3225,5.3225,0.0,5.2344,5.1756,5.1353,5.0545,4.9481,4.8343,4.8306,4.8421,4.864,4.8813,4.9011,4.9202,4.9202,4.9202,4.9171,4.8779,4.8382,4.7975,4.6544,4.5883,4.5847,4.5075,4.5295,4.6471,4.6874,4.7498,4.8306,4.8306,4.8526,4.8969,4.93,5.0734,5.3164,5.3626,5.4254,5.5007,5.4295,5.3674,5.3193,5.2417,0.0,0.0,0.0,0.0,0.0,0.0,0.0,0.0,4.579,4.4758,4.3459,4.2214,4.1505,4.1596,4.1149,4.0828,4.0841,4.1049,4.1444,4.2204,4.2286,4.261,4.3212,4.3628,4.3821,4.3865,4.4489,4.4973,4.5139,4.5162,4.5432,4.6109,4.6244,4.6422,4.6716,4.6757,4.6675,4.6293,4.6488,4.6914,4.7226,4.7834,4.871,4.9912,5.1835,5.309,5.2795,5.1937,5.1025,5.0339,5.0375,5.0059,4.8522,4.9064,4.8934,4.6731,4.6954,4.7676,4.7981,4.8042,4.8293,4.8738,4.9306,4.979,5.0306,5.0788,5.1263,5.1966,5.2731,5.3518,5.3225,5.3225,5.3225,5.3225,5.3151,5.2344,5.1463,5.0545,4.9738,0.0,0.0,4.8306,4.8306,4.8344,4.8676,4.8779,4.8813,4.8813,4.8813,4.8779,4.8458,4.7939,4.7315,4.6506,4.6103,4.6067,4.5297,4.5663,4.702,4.7094,4.7535,4.8233,4.8306,4.8344,4.8458,4.9177,5.0594,5.279,5.3797,5.4331,5.4478,5.3767,5.3374,5.3188,5.2417,5.1318,4.9877,5.0484,4.999,4.7996,4.8545,4.8337,4.7303,4.6529,4.5868,4.5095,4.3629,4.2891,4.324,4.1925,4.1148,4.1087,4.0703,4.114,4.2881,4.1876,4.1769,4.3069,4.3166,4.3111,4.3182,4.4209,4.4799,4.4406,4.4384,4.4688,4.5399,4.55,4.5737,4.6278,4.6346,4.6167,4.5626,4.5524,4.5712,4.6217,4.6482,4.6986,4.8551,5.0407,5.1457,5.0835,5.047,5.0115,4.9907,4.9848,4.9354,4.8045,4.7959,4.7596,4.6358,4.6052,4.6381,4.7066,4.713,4.7246,4.7366,4.7985,4.8581,4.8758,4.9489,5.0163,5.0474,5.1727,5.2857,5.3225,5.3225,5.3225,5.3225,5.3151,5.2344,5.1132,4.9701,4.8857,4.8416,4.8306,4.8306,4.8306,4.8306,4.8382,4.8383,4.8383,4.8383,4.8383,4.8383,4.8344,4.8269,4.8086,4.7274,4.6908,4.6874,4.6103,4.6213,4.6984,4.7094,4.7535,4.8233,4.8306,4.8495,4.8847,4.9265,5.0182,5.1558,5.2768,5.3694,5.4377,5.4339,5.3936,5.3193,5.2417,5.1027,4.9061,4.9741,4.9412,4.7996,4.9175,4.9086,4.735,4.7612,4.6857,4.4661,4.4154,4.3618,4.2664,4.289,4.302,4.268,4.2588,4.2226,4.1439,4.1266,4.151,4.2364,4.2411,4.2455,4.2489,4.2698,4.3139,4.3504,4.3606,4.391,4.4688,4.4756,4.4733,4.4891,4.4891,4.4891,4.4778,4.4744,4.4834,4.4967,4.5417,4.6151,4.7597,4.9266,4.9882,4.952,4.9696,4.9687,4.9248,4.9018,4.8327,4.6781,4.6944,4.6647,4.5019,4.5125,4.5693,4.6381,4.6531,4.6711,4.716,4.7369,4.7899,4.849,4.889,4.9294,4.9974,5.0632,5.112,5.3225,5.3225,5.3225,5.3225,5.3115,5.1867,5.0398,4.8893,4.8489,4.8306,4.8306,4.8306,4.8306,4.8306,4.8306,4.8306,4.8306,4.8306,4.8306,4.8306,4.8306,4.8306,4.8233,4.7459,4.7351,4.7682,4.6947,4.6947,4.7682,4.7755,4.7939,4.8306,4.8306,4.8383,4.8604,4.8945,4.9537,5.0323,5.152,5.2679,5.3736,5.3579,5.3386,5.3188,5.2448,5.1427,5.011,5.0013,4.9491,4.8572,4.9114,4.8951,4.7771,4.769,4.7153,4.6022,4.5251,4.4766,4.4526,4.3844,4.2728,4.1291,4.1137,4.1018,4.0833,4.0606,4.0608,4.0985,4.1021,4.1166,4.1576,4.2332,4.3026,4.3382,4.3775,4.4013,4.3939,4.3889,4.3681,4.3283,4.3205,4.3396,4.3844,4.3878,4.4103,4.4485,4.4852,4.5367,4.5961,4.693,4.7885,4.8231,4.8618,4.8699,4.8511,4.872,4.8067,4.6487,4.6361,4.5917,4.4599,4.4616,4.5155,4.6082,4.6322,4.6591,4.7189,4.7309,4.7546,4.7752,4.7959,4.8226,4.8641,4.9088,5.0059,5.3371,5.3225,5.3225,5.3115,5.2821,5.1426,4.9958,4.8636,4.8379,4.8306,4.8306,4.8306,4.8306,4.8306,4.8306,4.8306,4.8306,4.8306,4.8306,4.8306,4.8306,4.8306,4.8269,4.7645,4.7719,4.8196,4.7682,4.7719,4.8269,4.8306,4.8416,4.8563,4.8416,4.8416,4.86,4.8785,4.9075,4.9416,5.0269,5.1443,5.2831,5.2701,5.279,5.3115,5.2509,5.179,5.1138,5.039,4.9664,4.908,4.9154,4.8956,4.8236,4.7696,4.7449,4.7267,4.6202,4.5526,4.5595,4.4086,4.2034,3.9682,3.9218,3.9358,3.9817,3.9471,3.9429,3.9809,3.9903,4.0144,4.0705,4.1544,4.2433,4.2756,4.3203,4.3248,4.3043,4.2986,4.278,4.2129,4.1989,4.2352,4.2815,4.2998,4.3362,4.4069,4.4451,4.4553,4.4654,4.5128,4.592,4.6781,4.7359,4.7781,4.7861,4.8063,4.7704,4.6372,4.6018,4.5282,4.4388,4.4077,4.4526,4.546,4.5992,4.6267,4.6864,4.7163,4.7309,4.7369,4.7456,4.7369,4.7516,4.7959,4.9136,5.3842,5.3261,5.3225,5.2784,5.205,5.1169,5.0288,4.9407,4.8673,4.8306,4.8343,4.8306,4.8343,4.8306,4.8306,4.8306,4.8306,4.8306,4.8306,4.8306,4.8306,4.8306,4.8306,4.8233,4.8233,4.8306,4.8196,4.8196,4.8306,4.8306,4.8673,4.9297,4.871,4.871,4.9338,4.9082,4.8907,4.8958,4.908,5.0071,5.1902,5.2401,5.279,5.3188,5.2472,5.179,5.1086,5.039,4.9664,4.9114,4.9627,4.956,4.8668,4.8344,4.8074,4.7654,4.6766,4.5569,4.4008,4.3168,4.168,3.9256,3.8561,3.8252,3.8106,3.75,3.788,3.924,3.972,3.98,3.9864,3.969,4.0119,4.1233,4.0974,4.0759,4.1853,4.2141,4.2077,4.2013,4.182,4.2043,4.2082,4.2197,4.2522,4.3429,4.408,4.4497,4.4587,4.4688,4.479,4.523,4.6007,4.7098,4.7585,4.7144,4.688,4.6269,4.5494,4.4686,4.3938,4.3539,4.3668,4.4684,4.5185,4.5699,4.6304,4.6867,4.7309,4.7309,4.7309,4.7309,4.7309,4.7486,4.8353,5.3775,5.3855,5.3371,5.2747,5.1977,5.1646,5.0765,4.9591,4.9224,4.9077,4.9077,4.904,4.8783,4.8343,4.8306,4.8306,4.8306,4.8306,4.8306,4.8306,4.8306,4.8306,4.8306,4.8306,4.8306,4.8306,4.8306,4.8306,4.8306,4.8306,4.8489,4.8746,4.8453,4.8746,4.9483,4.8901,4.8895,4.9571,4.8895,4.9299,5.067,5.1304,5.2072,5.2956,5.2065,5.1393,5.1034,5.0033,4.9256,4.9018,4.9289,4.9198,4.8647,4.8046,4.7517,4.7109,4.6659,4.5661,4.4297,4.3805,4.268,4.0194,3.9385,3.8727,3.7918,3.7325,3.72,3.7672,3.8427,3.9161,3.9603,3.9835,4.0196,4.0801,4.0959,4.1151,4.117,4.1229,4.1095,4.0585,4.0447,4.0755,4.1208,4.1654,4.2327,4.3089,4.3662,4.3972,4.444,4.4553,4.4553,4.4654,4.5162,4.5987,4.6937,4.7383,4.6974,4.6357,4.589,4.5239,4.3728,4.3359,4.3519,4.4154,4.4825,4.5514,4.6218,4.6837,4.7309,4.7309,4.7309,4.7309,4.7309,4.7309,4.7782,5.4075,5.4265,5.3518,5.2894,5.2307,5.2087,5.1316,5.0288,5.0031,4.9921,4.9921,4.9921,4.9591,4.904,4.8783,4.8746,4.893,4.8746,4.8783,4.893,4.8783,4.8673,4.8636,4.8416,4.8416,4.8636,4.8671,4.8781,4.8967,4.9003,4.9114,4.926,4.9114,4.9297,4.9738,4.9077,4.8974,4.9412,4.8716,4.8827,4.9889,5.0488,5.1463,5.2584,5.1718,5.1086,5.1086,4.9722,4.9018,4.9018,4.9357,4.9333,4.8718,4.7981,4.7139,4.6444,4.6297,4.5779,4.4644,4.4171,4.297,4.0831,3.9528,3.8593,3.7966,3.7358,3.6888,3.6928,3.755,3.8384,3.9031,3.9421,3.9856,4.0407,4.0887,4.0778,4.0385,4.0378,4.013,3.9481,3.9553,3.9631,4.0304,4.1044,4.1821,4.2323,4.2762,4.3262,4.4006,4.4179,4.427,4.4497,4.4451,4.4846,4.6181,4.7056,4.6974,4.6389,4.5859,4.5471,4.3788,4.3389,4.3359,4.3847,4.4749,4.5334,4.5836,4.6486,4.7309,4.7309,4.7309,4.7309,4.7309,4.7309,4.7309,5.506,5.4326,5.3555,5.3225,5.3078,5.2344,5.1977,5.1646,5.1059,5.0765,5.0729,5.0765,5.0729,5.0618,4.9921,4.9958,5.0472,4.9848,4.9884,5.0435,4.9848,4.9517,4.9481,4.871,4.8746,4.9481,4.9548,4.9878,5.0545,5.0578,5.1096,5.1646,5.0835,5.0615,5.0578,4.9848,4.9189,4.8787,4.8491,4.8787,4.9637,5.0441,5.1206,5.1967,5.1431,5.1086,5.0929,4.9722,4.9018,4.9018,5.0236,5.0439,4.9135,4.8478,4.7321,4.5746,4.5903,4.5865,4.4762,4.3687,4.2158,4.0147,3.8314,3.7075,3.7727,3.6946,3.6631,3.7623,3.7155,3.7318,3.7748,3.7738,3.8032,3.9242,3.8993,3.9053,3.9493,3.9625,3.9481,3.9409,3.9439,3.9469,3.9541,4.02,4.0732,4.1093,4.161,4.2395,4.3108,4.3383,4.3621,4.3987,4.3923,4.3912,4.5377,4.5925,4.5953,4.5731,4.5516,4.5501,4.4327,4.3359,4.3389,4.3658,4.4578,4.5304,4.5513,4.6134,4.7043,4.7309,4.7309,4.7309,4.7309,4.7309,4.7309,5.4363,5.3665,5.3885,5.3665,5.3188,5.2894,5.2491,5.1977,5.1683,5.1536,5.1536,5.1573,5.1867,5.2307,5.1499,5.0986,5.0765,5.0472,5.0545,5.0765,5.0508,5.0362,5.0325,5.0034,5.0034,5.0325,5.0354,5.0501,5.0648,5.032,5.0257,5.0439,5.0294,5.033,5.0591,5.0017,4.9924,5.0441,4.9189,4.893,5.0218,5.0618,5.1206,5.1899,5.1395,5.1086,5.1086,4.9722,4.9018,4.9018,4.9965,5.0042,4.8988,4.7726,4.6498,4.544,4.5544,4.5853,4.6136,4.5133,4.3666,4.1824,3.9759,3.8041,3.7057,3.6252,3.5796,3.5887,3.577,3.5878,3.6757,3.713,3.7659,3.8281,3.8809,3.911,3.9349,3.9439,3.9439,3.9439,3.9439,3.9439,3.9481,3.9666,4.0092,4.0588,4.0993,4.1525,4.2205,4.2458,4.2645,4.279,4.2675,4.2675,4.3113,4.3931,4.4329,4.4861,4.4887,4.443,4.3528,4.3359,4.3389,4.3629,4.4488,4.5311,4.5661,4.6456,4.7133,4.7309,4.7309,4.7309,4.7309,4.7309,4.7309,5.4326,5.3739,5.4179,5.3922,5.3261,5.3482,5.3151,5.2417,5.238,5.238,5.2422,5.238,5.2711,5.3078,5.2637,5.2123,5.1573,5.1353,5.1316,5.1536,5.1316,5.1169,5.1132,5.0952,5.0912,5.1206,5.1495,5.1365,5.0911,5.0615,5.0351,5.0199,5.0163,5.0271,5.0473,5.0141,5.0529,5.0842,4.9814,4.9701,5.0692,5.1059,5.1426,5.181,5.1431,5.1086,5.1086,4.9756,4.9018,4.9086,4.9695,4.9584,4.8462,4.7253,4.6164,4.5417,4.5514,4.6112,4.6927,4.6137,4.4641,4.311,4.1194,3.9242,3.7445,3.6533,3.5899,3.5536,3.508,3.5351,3.5994,3.6791,3.7479,3.8007,3.8915,3.9367,3.9439,3.9439,3.9439,3.9439,3.9439,3.9439,3.9439,3.9409,3.9661,4.0209,4.0274,4.0653,4.1362,4.1593,4.1723,4.1917,4.1772,4.1829,4.2078,4.2526,4.3071,4.3593,4.4295,4.3723,4.3419,4.3359,4.3449,4.3798,4.4407,4.5203,4.6007,4.6748,4.7103,4.7279,4.7309,4.7309,4.7309,4.7309,4.7309,5.5133,5.4399,5.4436,5.4032,5.3371,5.3959,5.3885,5.3188,5.3115,5.3078,5.3041,5.3151,5.3115,5.3188,5.3115,5.3115,5.2894,5.2307,5.2344,5.2858,5.2307,5.2013,5.1977,5.1266,5.1219,5.181,5.2663,5.2309,5.1165,5.1392,5.1379,5.1083,5.0873,5.0555,4.9937,5.045,5.0519,5.0248,5.0401,5.0729,5.0912,5.1573,5.1899,5.1919,5.1418,5.1086,5.1034,4.9756,4.9018,4.9086,4.9695,4.9227,4.7748,4.7294,4.6667,4.5597,4.5903,4.6591,4.7103,4.6255,4.5115,4.3686,4.1881,4.0342,3.8983,3.7774,3.7089,3.6818,3.6163,3.5605,3.5644,3.6159,3.7094,3.8432,3.9044,3.9311,3.9427,3.9439,3.9439,3.9439,3.9439,3.9439,3.9439,3.9439,3.9469,3.9541,3.9583,3.9778,4.0516,4.069,4.1095,4.1464,4.1181,4.0923,4.1038,4.1301,4.1863,4.2393,4.3223,4.3419,4.3389,4.3359,4.3588,4.3968,4.4833,4.5679,4.6509,4.7133,4.7163,4.7309,4.7309,4.7309,4.7309,4.7309,4.7309,5.6124,5.462,5.5611,5.495,5.3445,5.4069,5.3959,5.3225,5.3225,5.3225,5.3225,5.3225,5.3225,5.3225,5.3225,5.3225,5.3188,5.2931,5.2968,5.3151,5.2931,5.2784,5.2627,5.2025,5.1618,5.1467,5.1633,5.1579,5.1086,5.0823,5.05,5.039,5.0369,5.023,5.0006,5.0602,5.0939,5.1302,5.0986,5.1279,5.227,5.2123,5.2029,5.1982,5.1437,5.0876,5.0335,4.9496,4.9018,4.9018,4.9695,4.9227,4.7798,4.7746,4.7076,4.5597,4.5933,4.6621,4.7189,4.6931,4.6077,4.4818,4.3138,4.1646,4.0259,3.8665,3.7678,3.7337,3.6843,3.6528,3.6251,3.6521,3.7284,3.8198,3.8646,3.9237,3.9771,3.9649,3.9469,3.9439,3.9439,3.9439,3.9439,3.9439,3.9439,3.9439,3.9439,3.9625,3.9768,4.0011,3.9809,4.01,3.9947,4.0286,4.0619,4.1092,4.1671,4.2085,4.2772,4.3359,4.3329,4.3389,4.3648,4.4368,4.5281,4.6147,4.698,4.7309,4.7309,4.7309,4.7309,4.7309,4.7309,4.7309,4.7309,5.6675,5.5464,5.6381,5.5794,5.4216,5.4656,5.4399,5.3665,5.3335,5.3225,5.3225,5.3225,5.3225,5.3146,5.2937,5.2937,5.3146,5.2937,5.2937,5.3103,5.2893,5.2937,5.306,5.2427,5.1593,5.0876,5.0981,5.0823,5.0314,5.0146,4.9861,4.9664,4.9605,4.9605,4.9688,5.0259,5.0843,5.1256,5.1282,5.1761,5.2517,5.2601,5.2302,5.204,5.1444,5.077,5.0033,4.9376,4.9154,4.939,4.9859,4.9424,4.8388,4.8247,4.7607,4.6682,4.6496,4.689,4.7249,4.7222,4.6726,4.5421,4.3891,4.2452,4.1077,3.9424,3.8241,3.7912,3.7445,3.7013,3.681,3.6734,3.7243,3.8038,3.8492,3.9073,3.9817,3.9679,3.9439,3.9439,3.9631,3.9631,3.9469,3.9661,3.9631,3.9469,3.9439,3.9589,3.9679,3.9798,3.9768,3.9871,4.0293,4.0496,4.0444,4.0949,4.1564,4.196,4.2476,4.2962,4.319,4.328,4.3509,4.4624,4.559,4.6322,4.7096,4.7219,4.7309,4.7309,4.7309,4.7309,4.7309,4.7309,4.7309,5.6859,5.6785,5.6859,5.6381,5.55,5.55,5.506,5.4289,5.3555,5.3225,5.3225,5.3225,5.314,5.293,5.2454,5.2509,5.2893,5.2509,5.2509,5.2761,5.2536,5.248,5.285,5.2351,5.1434,5.0335,5.0819,5.0341,4.935,4.9742,4.9639,4.9168,4.9107,4.8984,4.9256,4.9688,5.011,5.0347,5.1405,5.2064,5.2212,5.2815,5.2733,5.2018,5.1393,5.0716,4.9896,4.9521,4.9526,5.0028,5.0255,5.0183,4.9538,4.8702,4.8214,4.7509,4.7387,4.7336,4.7309,4.7309,4.6844,4.5779,4.4535,4.3052,4.1791,4.0338,3.9091,3.8714,3.7988,3.7292,3.714,3.6792,3.7031,3.7817,3.8477,3.8996,3.9238,3.9367,3.9469,3.9601,3.9986,4.0197,3.9666,4.0124,3.9986,3.9661,3.9499,3.9679,4.0098,4.0247,4.0337,4.0514,4.0674,4.0825,4.0855,4.1414,4.196,4.2395,4.2654,4.2882,4.3339,4.3569,4.3868,4.4899,4.5798,4.6531,4.6976,4.7189,4.7309,4.7309,4.7309,4.7309,4.7309,4.7309,4.7486,5.7336,5.6895,5.7446,5.6859,5.5684,5.5611,5.5133,5.4363,5.3555,5.3225,5.3225,5.3225,5.2899,5.2364,5.2198,5.197,5.1825,5.197,5.2159,5.2315,5.2287,5.2193,5.2365,5.2251,5.144,5.0332,5.0754,5.0434,4.9182,4.9739,4.9739,4.9018,4.9086,4.9052,4.9107,4.9767,4.9976,5.0195,5.1414,5.2045,5.2163,5.281,5.2554,5.1444,5.1225,5.048,4.9539,5.0193,5.0405,5.0168,5.1206,5.069,4.9243,4.9405,4.8817,4.7334,4.7182,4.7309,4.7309,4.7309,4.7106,4.6726,4.5508,4.434,4.3052,4.169,4.0363,3.9265,3.8515,3.8065,3.7374,3.7051,3.7151,3.7437,3.8338,3.8974,3.8672,3.8943,3.9601,4.0016,4.0239,4.0457,4.0604,4.0592,4.042,4.0166,3.9841,3.9768,4.0457,4.0636,4.0726,4.0694,4.0812,4.1053,4.14,4.1948,4.2446,4.2951,4.316,4.316,4.3629,4.4098,4.4526,4.5281,4.6117,4.6856,4.7126,4.7279,4.7309,4.7309,4.7309,4.7309,4.7309,4.7309,4.7692,5.774,5.7336,5.7813,5.7483,5.6528,5.5868,5.5317,5.473,5.3702,5.3225,5.3225,5.3225,5.279,5.2141,5.1794,5.1494,5.1189,5.1494,5.1643,5.1665,5.1667,5.1723,5.1809,5.2004,5.165,5.0704,5.0997,5.074,5.0067,5.0067,4.9965,4.9932,4.9627,4.9627,4.9999,5.0271,5.0317,5.0283,5.1115,5.1601,5.1308,5.2227,5.1886,5.1105,5.1105,5.0983,5.0249,5.1048,5.1454,5.1285,5.1792,5.1665,5.0651,5.0,4.9326,4.8001,4.7658,4.7309,4.7309,4.7309,4.7309,4.7106,4.6166,4.4812,4.3519,4.2345,4.0901,3.9494,3.9137,3.8641,3.804,3.7487,3.6944,3.6716,3.7704,3.8529,3.8474,3.8855,3.9486,4.0166,4.0651,4.0783,4.1046,4.1109,4.1085,4.086,4.0546,4.0786,4.1175,4.1145,4.1145,4.1235,4.1445,4.1926,4.1987,4.2432,4.2704,4.316,4.325,4.3329,4.3718,4.4338,4.4833,4.5376,4.6267,4.695,4.716,4.7309,4.7309,4.7309,4.7309,4.7309,4.7309,4.7463,4.7788,5.7997,5.796,5.7997,5.7997,5.7703,5.6418,5.5757,5.5427,5.4216,5.3518,5.3445,5.336,5.2893,5.2093,5.1706,5.1247,5.1086,5.137,5.1423,5.1494,5.1509,5.1521,5.1828,5.2097,5.1916,5.1395,5.1315,5.1319,5.1014,5.0541,5.0676,5.0777,5.0439,5.0574,5.0845,5.1112,5.0807,5.055,5.108,5.1284,5.1105,5.183,5.1876,5.0983,5.1346,5.172,5.1469,5.1894,5.2266,5.2401,5.2404,5.2606,5.2736,5.0676,4.9651,4.9488,4.8218,4.7309,4.7309,4.7309,4.7309,4.7106,4.6255,4.5024,4.3993,4.2708,4.1464,4.0183,3.934,3.8988,3.8639,3.7916,3.6985,3.6481,3.6806,3.7859,3.8887,3.9051,3.9192,4.0269,4.1037,4.1077,4.1243,4.1498,4.2179,4.155,4.1265,4.1294,4.1624,4.1803,4.1893,4.2059,4.2409,4.2849,4.2878,4.2857,4.303,4.3329,4.325,4.3389,4.3768,4.4257,4.4703,4.5361,4.636,4.6894,4.7219,4.7309,4.7309,4.7309,4.7309,4.7309,4.7369,4.7614,4.7941,5.7997,5.7997,5.7997,5.7997,5.785,5.6969,5.6528,5.6418,5.5464,5.4663,5.4246,5.4163,5.3441,5.2181,5.2018,5.1716,5.1313,5.1672,5.2288,5.281,5.2277,5.2502,5.2694,5.2585,5.2209,5.218,5.2731,5.2367,5.1589,5.1589,5.1589,5.1251,5.1183,5.1048,5.1285,5.142,5.1153,5.1078,5.1665,5.1904,5.1847,5.2337,5.2514,5.1765,5.1588,5.1731,5.2024,5.2232,5.2604,5.3078,5.318,5.2977,5.2332,5.1005,4.9993,4.9182,4.8147,4.7309,4.7309,4.7309,4.7309,4.7222,4.6931,4.6344,4.5115,4.3776,4.2556,4.1284,4.0208,3.9496,3.8893,3.8216,3.7538,3.7056,3.6995,3.7516,3.8343,3.8993,3.9554,4.0471,4.1455,4.2259,4.2495,4.2228,4.2376,4.2162,4.1953,4.1803,4.2043,4.2402,4.2491,4.2581,4.2779,4.3102,4.3012,4.3007,4.312,4.3399,4.3459,4.3588,4.3938,4.4526,4.5173,4.5743,4.6423,4.6867,4.7279,4.7309,4.7309,4.7309,4.7309,4.7369,4.7461,4.7763,4.8233,5.7997,5.7997,5.7997,5.7997,5.785,5.7152,5.6785,5.6638,5.5941,5.5354,5.4972,5.4665,5.383,5.2748,5.2462,5.1871,5.1376,5.1629,5.2165,5.2528,5.2165,5.2384,5.3143,5.2793,5.2432,5.2814,5.3275,5.2909,5.2536,5.2266,5.2266,5.2232,5.1928,5.2029,5.2232,5.2232,5.2099,5.1796,5.2081,5.2124,5.1974,5.2438,5.2939,5.265,5.2175,5.2063,5.2807,5.2875,5.3112,5.3382,5.3518,5.3281,5.2503,5.1255,5.0133,4.9501,4.8042,4.7396,4.7309,4.7309,4.7309,4.7309,4.7309,4.655,4.5663,4.4676,4.3464,4.1997,4.0901,4.0185,3.9095,3.8668,3.8165,3.7663,3.7337,3.7324,3.7738,3.814,3.9086,4.0149,4.1037,4.1906,4.2346,4.2565,4.2872,4.2731,4.2731,4.2611,4.2641,4.294,4.291,4.3,4.315,4.3229,4.3097,4.3079,4.321,4.3489,4.3707,4.3838,4.4168,4.4967,4.5764,4.6185,4.6602,4.7013,4.7309,4.7309,4.7309,4.7309,4.7339,4.7486,4.77,4.8118,4.8739,5.7997,5.7997,5.7997,5.7997,5.7886,5.7299,5.7042,5.6895,5.6271,5.6006,5.5679,5.5003,5.4349,5.3521,5.2823,5.2096,5.1749,5.1454,5.2038,5.2557,5.1975,5.2431,5.3044,5.2975,5.2872,5.345,5.3484,5.3382,5.3213,5.2909,5.2875,5.3247,5.2841,5.2773,5.3315,5.345,5.3078,5.2606,5.2536,5.2399,5.1993,5.2426,5.2915,5.3072,5.2861,5.2739,5.3247,5.3416,5.3484,5.3518,5.3518,5.3518,5.3041,5.1855,5.0493,5.0375,4.8613,4.7624,4.7396,4.7309,4.7309,4.7309,4.7309,4.6844,4.6049,4.5374,4.4174,4.2598,4.1406,4.0414,3.9221,3.9019,3.8718,3.8241,3.7688,3.7437,3.7333,3.7273,3.8246,3.962,4.0779,4.1647,4.2248,4.2654,4.3021,4.3329,4.3329,4.3329,4.3329,4.3329,4.321,4.318,4.3269,4.3329,4.312,4.3199,4.3359,4.3707,4.3983,4.4347,4.4619,4.5327,4.6117,4.6334,4.6691,4.7103,4.7309,4.7309,4.7309,4.7309,4.7516,4.7752,4.8089,4.8383,4.9186,5.7997,5.7997,5.7997,5.7997,5.796,5.785,5.774,5.7776,5.7556,5.718,5.651,5.5793,5.4988,5.4321,5.3601,5.3211,5.2706,5.2367,5.2533,5.2901,5.2467,5.2739,5.3247,5.3315,5.3348,5.345,5.3518,5.3518,5.3518,5.3382,5.3315,5.345,5.3315,5.3416,5.345,5.3518,5.345,5.3213,5.3179,5.3078,5.3043,5.3041,5.3239,5.3477,5.3212,5.3281,5.3416,5.3518,5.3518,5.3518,5.3518,5.3518,5.3281,5.2299,5.131,5.0333,4.9147,4.8072,4.7452,4.7309,4.7309,4.7309,4.7309,4.7309,4.6783,4.6019,4.4787,4.3129,4.1334,3.9928,3.9597,3.9471,3.927,3.8868,3.8567,3.8316,3.7889,3.7632,3.7559,3.8692,4.0069,4.1469,4.1922,4.2485,4.2852,4.319,4.3329,4.3329,4.3329,4.3329,4.3299,4.3299,4.3329,4.3329,4.3299,4.3329,4.3429,4.3983,4.4347,4.4929,4.5357,4.5927,4.6326,4.6629,4.6867,4.7163,4.7309,4.7309,4.7369,4.7516,4.7782,4.8166,4.8656,4.91,4.9571,5.7997,5.7997,5.7997,5.7997,5.7997,5.7997,5.7997,5.7997,5.796,5.7813,5.717,5.6241,5.5482,5.4919,5.3943,5.3315,5.2909,5.301,5.2909,5.2909,5.2909,5.3078,5.3484,5.3518,5.3518,5.3518,5.3518,5.3518,5.3518,5.3484,5.3518,5.3518,5.3518,5.3518,5.3518,5.3518,5.3518,5.3518,5.3518,5.3518,5.3518,5.3518,5.3518,5.3518,5.3518,5.3518,5.3518,5.3518,5.3518,5.3518,5.3518,5.3518,5.3349,5.2943,5.2058,5.0607,4.9489,4.8377,4.7538,4.7309,4.7309,4.7309,4.7339,4.7309,4.7163,4.6577,4.5432,4.361,4.2031,4.0337,3.975,3.9697,3.9546,3.932,3.9069,3.8768,3.8442,3.7939,3.783,3.7807,3.8724,4.0152,4.1557,4.2119,4.2654,4.2991,4.322,4.3329,4.3329,4.3329,4.3329,4.325,4.325,4.328,4.331,4.3479,4.3838,4.4311,4.4798,4.5436,4.5963,4.6411,4.6741,4.6954,4.7133,4.7429,4.7309,4.7309,4.7516,4.7752,4.8109,4.8561,4.9224,4.9819,5.0322,5.7997,5.7997,5.7997,5.7997,5.7997,5.7997,5.7997,5.7997,5.7997,5.796,5.7821,5.6632,5.5872,5.5367,5.4264,5.3179,5.2604,5.3247,5.3112,5.2909,5.3179,5.3484,5.3518,5.3518,5.3518,5.3518,5.3518,5.3518,5.3518,5.3518,5.3518,5.3518,5.3518,5.3518,5.3518,5.3518,5.3518,5.3518,5.3518,5.3518,5.3518,5.3518,5.3518,5.3518,5.3518,5.3518,5.3518,5.3518,5.3518,5.3551,5.3619,5.3754,5.3754,5.3754,5.2872,5.1099,4.9787,4.8697,4.7934,4.7519,4.7608,4.7608,4.7668,4.7668,4.7282,4.6873,4.5898,4.4069,4.2366,4.1209,4.0414,3.9878,3.9672,3.9597,3.9295,3.9019,3.8894,3.8567,3.809,3.8079,3.8056,3.9017,4.063,4.1754,4.2287,4.3021,4.3329,4.3329,4.3329,4.3329,4.325,4.317,4.32,4.323,4.3369,4.3728,4.4218,4.5035,4.5441,4.5862,4.636,4.686,4.71,4.7163,4.7578,4.7698,4.7519,4.7516,4.7752,4.8079,4.841,4.8895,4.961,5.0351,5.1036,5.7997,5.7997,5.7997,5.7997,5.7997,5.7997,5.7997,5.7997,5.7997,5.7997,5.795,5.7116,5.6328,5.5434,5.4179,5.3517,5.3382,5.3382,5.3416,5.3281,5.3416,5.3518,5.3518,5.3518,5.3518,5.3518,5.3518,5.3518,5.3518,5.3518,5.3518,5.3518,5.3518,5.3518,5.3518,5.3518,5.3518,5.3518,5.3518,5.3518,5.3518,5.3518,5.3518,5.3518,5.3518,5.3518,5.3518,5.3518,5.3518,5.3551,5.4127,5.4398,5.4466,5.4466,5.3856,5.263,5.1247,4.9773,4.8749,4.8248,4.8147,4.8237,4.8566,4.8626,4.8027,4.6842,4.5903,4.5318,4.31,4.1701,4.1093,4.0262,3.9878,3.9697,3.9572,3.9496,3.9446,3.912,3.8668,3.8417,3.8336,3.8936,4.0079,4.1057,4.2031,4.2763,4.328,4.328,4.3419,4.3449,4.3489,4.3468,4.3358,4.3418,4.3599,4.3848,4.4578,4.5537,4.5883,4.6221,4.6748,4.71,4.7189,4.7399,4.7758,4.7938,4.77,4.7815,4.8109,4.8621,4.9134,4.9521,5.005,5.0822,5.1691,5.7997,5.7997,5.7997,5.7997,5.7997,5.7997,5.7997,5.7997,5.7997,5.7997,5.7821,5.7216,5.6257,5.5088,5.3949,5.3518,5.3518,5.3518,5.3518,5.3518,5.3518,5.3518,5.3518,5.3518,5.3518,5.3518,5.3518,5.3518,5.3518,5.3518,5.3518,5.3518,5.3518,5.3518,5.3518,5.3518,5.3518,5.3518,5.3518,5.3518,5.3518,5.3518,5.3518,5.3518,5.3518,5.3518,5.3518,5.3518,5.3518,5.3619,5.4161,5.4364,5.4262,5.4228,5.4193,5.3247,5.1418,5.0121,4.9399,4.8754,4.8623,4.8805,4.9045,4.8925,4.8265,4.7581,4.6371,4.5404,4.3742,4.2533,4.1565,4.0465,3.9981,3.9697,3.9697,3.9697,3.9672,3.9546,3.9245,3.8943,3.8717,3.9216,3.9589,4.0177,4.1253,4.2344,4.296,4.3256,4.3477,4.3778,4.3817,4.3886,4.3775,4.3664,4.3978,4.4218,4.4967,4.5753,4.6122,4.6456,4.6927,4.7279,4.7339,4.7519,4.7878,4.7967,4.7909,4.8295,4.8887,4.9314,4.9786,5.0199,5.0639,5.1416,5.2226,5.7997,5.7997,5.7997,5.7997,5.7997,5.7997,5.7997,5.7997,5.7997,5.7997,5.7726,5.7036,5.5922,5.4818,5.4011,5.3518,5.3518,5.3518,5.3518,5.3518,5.3518,5.3518,5.3518,5.3518,5.3518,5.3518,5.3518,5.3518,5.3518,5.3518,5.3518,5.3518,5.3518,5.3518,5.3518,5.3518,5.3518,5.3518,5.3518,5.3518,5.3518,5.3518,5.3518,5.3518,5.3518,5.3518,5.3518,5.3518,5.3518,5.3619,5.4161,5.4466,5.4363,5.4499,5.4635,5.3786,5.2415,5.1115,5.036,4.9585,4.9132,4.9254,4.9494,4.9344,4.8745,4.8446,4.779,4.6134,4.48,4.3448,4.2181,4.1045,4.0262,3.9878,3.9697,3.9697,3.9672,3.9597,3.9546,3.9421,3.9168,3.9116,3.9367,3.9468,4.0453,4.1852,4.2591,4.3089,4.3619,4.4124,4.3997,4.4039,4.3931,4.3921,4.4298,4.467,4.5387,4.5998,4.6334,4.6661,4.7133,4.7369,4.7429,4.7698,4.8087,4.8595,4.8895,4.9312,4.967,4.9944,5.0262,5.0763,5.1357,5.207,5.2881,5.7997,5.7997,5.7997,5.7997,5.7997,5.7997,5.7997,5.7997,5.7997,5.7997,5.781,5.6525,5.5777,5.5214,5.4171,5.3518,5.3518,5.3518,5.3518,5.3518,5.3518,5.3518,5.3551,5.3585,5.3619,5.3619,5.3822,5.3822,5.3619,5.389,5.3721,5.3518,5.3754,5.3619,5.3585,5.3687,5.3687,5.3653,5.3585,5.3518,5.3518,5.3518,5.3518,5.3518,5.3518,5.3518,5.3518,5.3518,5.3518,5.3551,5.4161,5.4771,5.4872,5.4837,5.4872,5.47,5.3584,5.241,5.1706,5.0513,4.9794,4.9942,5.006,4.9878,4.9307,4.8596,4.7909,4.7106,4.5781,4.4578,4.3421,4.2279,4.0844,4.0262,3.9981,3.9697,3.9697,3.9697,3.9647,3.9672,3.9544,3.9494,4.0058,4.0271,4.0713,4.2064,4.3507,4.4086,4.4359,4.4703,4.4174,4.3978,4.3921,4.406,4.4569,4.5212,4.601,4.6471,4.6894,4.7073,4.7279,4.7399,4.7668,4.8117,4.8566,4.9314,4.9885,5.0005,5.0216,5.0329,5.0644,5.1393,5.2197,5.2931,5.3844,5.7997,5.7997,5.7997,5.7997,5.7997,5.7997,5.7997,5.7997,5.7997,5.7997,5.7904,5.6451,5.5672,5.5308,5.4235,5.3518,5.3518,5.3518,5.3518,5.3518,5.3518,5.3518,5.3619,5.3957,5.416,5.4296,5.4565,5.4869,5.4938,5.4702,5.4837,5.4769,5.4397,5.4228,5.416,5.416,5.416,5.3991,5.3754,5.3518,5.3518,5.3518,5.3518,5.3518,5.3518,5.3518,5.3518,5.3518,5.3518,5.3653,5.4194,5.4737,5.5212,5.5141,5.5378,5.5653,5.4428,5.3618,5.2925,5.1678,5.0997,5.0753,5.0717,5.0504,4.9833,4.925,4.8626,4.7702,4.6402,4.5165,4.4633,4.2876,4.1319,4.0844,4.0364,3.9981,3.9697,3.9697,3.9697,3.9697,3.9672,3.9672,4.0413,4.132,4.1734,4.2412,4.3834,4.5095,4.5287,4.5416,4.4934,4.4705,4.4763,4.482,4.5272,4.5908,4.6581,4.6916,4.7309,4.7309,4.7369,4.7848,4.8147,4.8596,4.9075,4.9674,5.0215,5.0575,5.0753,5.0807,5.1404,5.2217,5.3047,5.3803,5.457,5.7997,5.7997,5.7997,5.7997,5.7997,5.7997,5.7997,5.7997,5.7997,5.7997,5.7904,5.6435,5.5719,5.5273,5.4235,5.3717,5.3717,5.3685,5.3717,5.3753,5.3888,5.3856,5.4093,5.4465,5.4905,5.5074,5.5306,5.5609,5.5581,5.5683,5.5581,5.5446,5.5412,5.5243,5.4938,5.4938,5.4837,5.4499,5.416,5.3653,5.3585,5.3518,5.3721,5.3788,5.389,5.3923,5.3923,5.3957,5.3923,5.3991,5.4194,5.4635,5.5077,5.5378,5.5606,5.5631,5.5302,5.4536,5.3486,5.2417,5.1545,5.1143,5.1169,5.0773,5.0292,4.9637,4.8895,4.823,4.6897,4.587,4.5638,4.3863,4.2323,4.169,4.1045,4.0567,3.9878,3.9697,3.9697,3.9697,3.9697,3.9697,4.0617,4.1629,4.311,4.3844,4.5142,4.6022,4.5992,4.6092,4.607,4.5903,4.5961,4.6018,4.6046,4.6519,4.6946,4.7036,4.7309,4.7309,4.7489,4.8027,4.8506,4.8865,4.9464,5.0094,5.0633,5.1113,5.1233,5.1199,5.1942,5.286,5.3644,5.441,5.501,5.7997,5.7997,5.7997,5.7997,5.7997,5.7997,5.7997,5.7997,5.7997,5.7997,5.7821,5.6456,5.5759,5.5495,5.4328,5.4011,5.4136,5.3849,5.3785,5.4282,5.4363,5.4499,5.4872,5.5245,5.5685,5.5716,5.5984,5.6119,5.5919,5.6089,5.5987,5.6122,5.6359,5.6359,5.5784,5.5683,5.531,5.4702,5.46,5.4228,5.3788,5.3754,5.416,5.4431,5.4566,5.4566,5.4363,5.4363,5.4296,5.416,5.3822,5.4534,5.5996,5.528,5.5576,5.6617,5.6655,5.5629,5.3711,5.2116,5.1359,5.1169,5.1229,5.0832,5.0292,4.967,4.9104,4.8528,4.7695,4.6723,4.6079,4.528,4.3871,4.2982,4.2351,4.1302,4.0645,3.9697,3.9697,3.9697,3.9697,3.9903,4.0668,4.1834,4.3919,4.5403,4.6577,4.698,4.6766,4.6681,4.6688,4.6634,4.6697,4.6579,4.6609,4.702,4.7309,4.7339,4.7519,4.7758,4.7967,4.8416,4.8865,4.9194,4.9942,5.0873,5.1289,5.1738,5.1912,5.2234,5.2655,5.3485,5.428,5.4929,5.5329,5.7997,5.7997,5.7997,5.7997,5.7997,5.7997,5.7997,5.7997,5.7997,5.7997,5.7821,5.6876,5.651,5.6039,5.5094,5.4425,5.4523,5.3915,5.3885,5.4599,5.4703,5.4974,5.5378,5.5953,5.643,5.6562,5.6761,5.7031,5.7205,5.7002,5.7103,5.7273,5.7205,5.7374,5.707,5.6731,5.6089,5.548,5.5277,5.5006,5.4363,5.4634,5.504,5.531,5.5344,5.5141,5.4769,5.4769,5.4532,5.4228,5.3754,5.4465,5.5928,5.5415,5.6085,5.7094,5.7437,5.6554,5.4319,5.2572,5.1293,5.1229,5.1199,5.0862,5.0228,5.005,4.9523,4.9101,4.8653,4.8148,4.809,4.7095,4.6026,4.5436,4.4483,4.2705,4.1591,4.0363,3.9697,3.9697,3.9697,4.0208,4.0875,4.194,4.3938,4.537,4.6461,4.7133,4.704,4.704,4.7073,4.7073,4.7048,4.6933,4.708,4.7578,4.7909,4.7971,4.8387,4.8745,4.8925,4.8985,4.9374,4.9914,5.072,5.1588,5.2067,5.2479,5.294,5.3337,5.3841,5.4078,5.4678,5.5096,5.5381,5.7997,5.7997,5.7997,5.7997,5.7997,5.7997,5.7997,5.7997,5.7997,5.7997,5.7821,5.7252,5.7093,5.6833,5.6091,5.5628,5.5706,5.509,5.4768,5.5349,5.538,5.5753,5.6224,5.6799,5.7103,5.7306,5.7543,5.7814,5.7746,5.7848,5.778,5.7746,5.7881,5.778,5.7645,5.7273,5.6833,5.6292,5.6021,5.5716,5.531,5.5378,5.5784,5.6021,5.6055,5.5886,5.5446,5.5074,5.4769,5.4261,5.4193,5.46,5.5586,5.6195,5.6693,5.7543,5.6887,5.6047,5.4389,5.2455,5.1386,5.1229,5.1229,5.1016,5.05,5.0326,5.003,4.9674,4.9494,4.9343,4.9129,4.8144,4.7846,4.7137,4.5692,4.3986,4.2545,4.1338,4.013,4.0002,3.9851,4.0413,4.1029,4.2396,4.3836,4.4972,4.6138,4.6784,4.7339,4.7309,4.7369,4.7399,4.7546,4.7608,4.7758,4.8287,4.8505,4.8623,4.8981,4.9463,4.9434,4.9404,4.9942,5.0573,5.1353,5.2132,5.2785,5.3316,5.3844,5.4339,5.4905,5.5126,5.5239,5.5526,5.5931,5.7997,5.7997,5.7997,5.7997,5.7997,5.7997,5.7997,5.7997,5.7997,5.7997,5.7914,5.7302,5.7355,5.7815,5.7183,5.7104,5.7339,5.6802,5.666,5.6606,5.6403,5.6633,5.6968,5.7442,5.7611,5.778,5.7881,5.7881,5.7881,5.7881,5.7881,5.7881,5.7881,5.7881,5.7814,5.7712,5.7273,5.6765,5.6731,5.6359,5.5953,5.5953,5.6393,5.6697,5.6799,5.6697,5.6325,5.5886,5.5547,5.5175,5.4837,5.5482,5.6161,5.6701,5.7205,5.7171,5.5968,5.5084,5.4337,5.2485,5.1479,5.1229,5.1229,5.1199,5.0926,5.0538,5.0299,5.012,4.9878,4.9694,4.9351,4.9178,4.9005,4.7833,4.6543,4.5128,4.3637,4.2397,4.1001,4.0436,3.9926,4.0132,4.0415,4.1565,4.3326,4.4457,4.5663,4.6993,4.7374,4.7339,4.7399,4.7608,4.7872,4.8226,4.8555,4.889,4.9134,4.9304,4.9542,4.9875,4.9789,4.9972,5.0543,5.1206,5.1897,5.2612,5.3631,5.4251,5.466,5.5257,5.5662,5.5795,5.5879,5.6329,5.6645,5.7997,5.7997,5.7997,5.7997,5.7997,5.7997,5.7997,5.7997,5.7997,5.7997,5.7997,5.7774,5.785,5.7996,5.7831,5.76,5.7306,5.706,5.6845,5.6815,5.6944,5.7209,5.7476,5.7746,5.7881,5.7881,5.7881,5.7881,5.7881,5.7881,5.7881,5.7881,5.7881,5.7881,5.7881,5.7881,5.7408,5.7137,5.7306,5.7002,5.6799,5.6833,5.7205,5.7408,5.7476,5.7306,5.6833,5.619,5.5683,5.5006,5.4296,5.4601,5.5818,5.6055,5.6461,5.7459,5.608,5.4589,5.4253,5.2485,5.1229,5.1229,5.1229,5.0832,5.0713,5.0653,5.0657,5.0475,5.0475,5.0381,5.0288,5.0173,5.0024,4.9345,4.8028,4.6532,4.5091,4.3542,4.2216,4.054,4.0055,3.9851,4.0108,4.1019,4.2587,4.378,4.5092,4.6577,4.7614,4.7611,4.7728,4.7967,4.8323,4.8739,4.9194,4.9584,4.9759,4.9927,5.0194,5.0496,5.0747,5.0993,5.1296,5.1961,5.2803,5.3699,5.468,5.5059,5.534,5.5735,5.6109,5.6316,5.6509,5.6989,5.696,5.7997,5.7997,5.7997,5.7997,5.7997,5.7997,5.7997,5.7997,5.7997,5.7997,5.7997,5.7997,5.818,5.8564,5.8846,5.8842,5.8488,5.8501,5.8303,5.781,5.7386,5.7548,5.778,5.7881,5.7881,5.7881,5.7881,5.7881,5.7881,5.7881,5.7881,5.7881,5.7881,5.7881,5.7881,5.7848,5.7679,5.7509,5.7509,5.7509,5.7543,5.7611,5.778,5.7881,5.7881,5.7577,5.7205,5.6494,5.5886,5.5412,5.4769,5.4941,5.6094,5.6433,5.6765,5.7446,5.5922,5.4838,5.4253,5.2485,5.1542,5.1229,5.1229,5.1016,5.0986,5.0956,5.0896,5.0743,5.0986,5.1199,5.1199,5.1199,5.1199,5.1075,4.9581,4.8097,4.6495,4.477,4.2968,4.0977,4.0234,4.0004,4.0338,4.1071,4.2084,4.3571,4.5103,4.669,4.7792,4.8356,4.8446,4.8626,4.8984,4.9342,4.9734,5.012,5.0355,5.0679,5.1119,5.1363,5.1553,5.1982,5.2347,5.3014,5.3929,5.4669,5.5209,5.5561,5.5801,5.6196,5.681,5.7258,5.7453,5.7648,5.7149,5.7997,5.7997,5.7997,5.7997,5.7997,5.7997,5.7997,5.7997,5.7997,5.7997,5.7997,5.7997,5.8364,5.8794,5.9395,5.9656,5.9492,5.9526,5.9131,5.9007,5.8287,5.8069,5.792,5.7881,5.7881,5.7881,5.7881,5.7881,5.7881,5.7881,5.7881,5.7881,5.7881,5.7881,5.7881,5.7881,5.778,5.778,5.778,5.778,5.7814,5.7848,5.7881,5.7881,5.7881,5.7814,5.7645,5.7273,5.6799,5.6528,5.6261,5.6029,5.6607,5.7355,5.7717,5.7338,5.5968,5.5084,5.4253,5.2723,5.1635,5.1293,5.1229,5.1199,5.1075,5.1075,5.1046,5.1016,5.1199,5.1229,5.1229,5.1229,5.1229,5.1105,5.0235,4.8902,4.7644,4.5641,4.3332,4.1584,4.0717,4.0461,4.0132,4.0898,4.1641,4.3215,4.4562,4.6146,4.7842,4.8563,4.8984,4.9253,4.9494,4.9884,5.0305,5.0631,5.096,5.1344,5.1816,5.1965,5.1852,5.2612,5.3458,5.4029,5.4431,5.501,5.5508,5.5891,5.6425,5.6955,5.7528,5.8274,5.8483,5.8351,5.725,5.7997,5.7997,5.7997,5.7997,5.7997,5.7997,5.7997,5.7997,5.7997,5.7997,5.7997,5.8033,5.8107,5.8474,5.9318,5.9479,5.9131,6.008,5.9441,5.9015,5.8633,5.8388,5.8027,5.7954,5.7881,5.7881,5.7881,5.7881,5.7881,5.7881,5.7881,5.7881,5.7881,5.7881,5.7881,5.7881,5.7881,5.7881,5.7881,5.7881,5.7881,5.7881,5.7881,5.7881,5.7915,5.7915,5.7712,5.7273,5.6934,5.6664,5.6055,5.6159,5.6738,5.7514,5.7814,5.7628,5.6547,5.549,5.4389,5.3165,5.2154,5.1386,5.1229,5.1229,5.1229,5.1229,5.1229,5.1229,5.1229,5.1229,5.1229,5.1229,5.1229,5.1011,5.0793,4.9776,4.8766,4.6288,4.3759,4.2557,4.1613,4.1076,4.0667,4.0823,4.1415,4.2343,4.3216,4.4747,4.7241,4.8574,4.9233,4.9571,4.9945,5.0246,5.0755,5.1023,5.1323,5.1618,5.2031,5.2121,5.2336,5.3211,5.4149,5.4458,5.4908,5.541,5.5897,5.6515,5.7009,5.7626,5.7993,5.8543,5.8811,5.877,5.735,5.7997,5.7997,5.7997,5.7997,5.7997,5.7997,5.7997,5.7997,5.7997,5.8226,5.841,5.8189,5.7997,5.8253,5.9171,5.9542,5.9263,6.0377,6.049,5.9972,5.9029,5.8771,5.8494,5.8065,5.7954,5.7881,5.7881,5.7881,5.7881,5.7881,5.7881,5.7881,5.7881,5.7881,5.7881,5.7881,5.7881,5.7881,5.7881,5.7881,5.7949,5.8118,5.8084,5.8084,5.8152,5.8152,5.7848,5.7476,5.7374,5.7273,5.6934,5.663,5.7074,5.7476,5.7814,5.7628,5.6811,5.5698,5.464,5.3569,5.2485,5.1727,5.1229,5.1229,5.1229,5.1229,5.1229,5.1229,5.1229,5.1229,5.1229,5.1229,5.1229,5.1105,5.0917,5.0287,4.9009,4.7233,4.5118,4.3526,4.2805,4.2627,4.222,4.1795,4.2237,4.2368,4.3075,4.4296,4.664,4.8603,4.9243,4.9911,5.0269,5.0605,5.0993,5.1293,5.1596,5.1922,5.227,5.3084,5.3721,5.4171,5.477,5.4994,5.5397,5.5827,5.6419,5.7028,5.7395,5.783,5.8324,5.8752,5.8901,5.9099,5.7843,5.7997,5.7997,5.7997,5.7997,5.7997,5.7997,5.7997,5.7997,5.8143,5.852,5.9044,5.863,5.8327,5.8841,5.9612,6.0089,6.0567,6.1054,6.1299,6.0827,5.9972,5.9439,5.8875,5.8458,5.8209,5.7954,5.7881,5.7881,5.7881,5.7881,5.7881,5.7881,5.7881,5.7881,5.7881,5.7881,5.7881,5.7881,5.7881,5.7881,5.8152,5.849,5.8287,5.8287,5.849,5.8558,5.8118,5.7983,5.7983,5.7814,5.7679,5.7442,5.7306,5.7577,5.7746,5.7628,5.7222,5.6126,5.497,5.3999,5.2812,5.1911,5.1479,5.1229,5.1229,5.1229,5.1229,5.1229,5.1229,5.1229,5.1229,5.1229,5.1229,5.1229,5.1011,5.0698,4.9281,4.8033,4.6491,4.4817,4.448,4.4325,4.3773,4.3362,4.3148,4.3174,4.365,4.4881,4.6302,4.8141,4.9475,5.011,5.056,5.0926,5.1319,5.1623,5.1927,5.2426,5.2987,5.4072,5.489,5.489,5.513,5.5436,5.5781,5.6422,5.6974,5.7647,5.7958,5.8195,5.8505,5.8901,5.9357,5.9327,5.8524,5.7997,5.7997,5.7997,5.7997,5.7997,5.7997,5.7997,5.8107,5.8694,5.9108,5.9338,5.9842,5.9942,5.9916,6.0126,6.0456,6.0701,6.1332,6.1095,6.0464,6.0805,6.0167,5.9408,5.8943,5.8494,5.8209,5.7954,5.7881,5.7881,5.7881,5.7881,5.7881,5.7881,5.7881,5.7881,5.7881,5.7881,5.7881,5.7881,5.7881,5.7915,5.8051,5.8017,5.8186,5.8592,5.8389,5.8254,5.8524,5.8355,5.8084,5.7881,5.7746,5.7712,5.7746,5.7848,5.7881,5.7446,5.6778,5.573,5.464,5.3483,5.2395,5.188,5.1229,5.1229,5.1229,5.1229,5.1229,5.1229,5.1229,5.1229,5.1229,5.1229,5.1229,5.1105,5.0508,4.9519,4.8923,4.8113,4.7136,4.6545,4.6102,4.5409,4.5139,4.4881,4.4908,4.5016,4.6079,4.6633,4.8069,4.9582,5.0279,5.0911,5.1439,5.1931,5.2042,5.2372,5.2897,5.3456,5.447,5.495,5.5089,5.5418,5.5914,5.6482,5.7124,5.7678,5.8053,5.8504,5.873,5.8864,5.9159,5.9615,5.9705,5.905]},{"header":{"parameterUnit":"m.s-1","parameterCategory":1,"la1":31.0,"la2":29.5877,"lo1":-88.7671,"lo2":-86.6584,"dy":0.0162,"dx":0.0185,"nx":115,"ny":88,"refTime":"2023-08-29T18:00:00:Z","depth":0,"parameterNumber":3,"parameterNumberName":"V-component_of_WINDS"},"data":[0.0,0.0,0.0,0.0,0.0,0.0,0.0,0.0,0.0,0.0,0.0,0.0,0.0,0.0,0.0,0.0,0.0,0.0,0.0,0.0,0.0,0.0,0.0,0.0,0.0,0.0,0.0,0.0,0.0,0.0,0.0,0.0,0.0,0.0,0.0,0.0,0.0,0.0,0.0,0.0,0.0,0.0,0.0,0.0,0.0,0.0,0.0,0.0,0.0,0.0,0.0,0.0,0.0,0.0,0.0,0.0,0.0,0.0,0.0,0.0,0.0,0.0,0.0,0.0,0.0,0.0,0.0,0.0,0.0,0.0,0.0,0.0,0.0,0.0,0.0,0.0,0.0,0.0,0.0,0.0,0.0,0.0,0.0,0.0,0.0,0.0,0.0,0.0,0.0,0.0,0.0,0.0,0.0,0.0,0.0,0.0,0.0,0.0,0.0,0.0,0.0,0.0,0.0,0.0,0.0,0.0,0.0,0.0,0.0,0.0,0.0,0.0,0.0,0.0,0.0,0.0,0.0,0.0,0.0,0.0,0.0,0.0,0.0,0.0,0.0,0.0,0.0,0.0,0.0,0.0,0.0,0.0,0.0,0.0,0.0,0.0,0.0,0.0,0.0,0.0,0.0,0.0,0.0,0.0,0.0,0.0,0.0,0.0,0.0,0.0,0.0,0.0,0.0,0.0,0.0,0.0,0.0,0.0,0.0,0.0,0.0,0.0,0.0,0.0,0.0,0.0,0.0,0.0,0.0,0.0,0.0,0.0,0.0,0.0,0.0,0.0,0.0,0.0,0.0,0.0,0.0,0.0,0.0,0.0,0.0,0.0,0.0,0.0,0.0,0.0,0.0,0.0,0.0,0.0,0.0,0.0,0.0,0.0,0.0,0.0,0.0,0.0,0.0,0.0,0.0,0.0,0.0,0.0,0.0,0.0,0.0,0.0,0.0,0.0,0.0,0.0,0.0,0.0,0.0,0.0,0.0,0.0,0.0,0.0,0.0,0.0,0.0,0.0,0.0,0.0,0.0,0.0,0.0,0.0,0.0,0.0,0.0,0.0,0.0,0.0,0.0,0.0,0.0,0.0,0.0,0.0,0.0,0.0,0.0,0.0,0.0,0.0,0.0,0.0,0.0,0.0,0.0,0.0,0.0,0.0,0.0,0.0,0.0,0.0,0.0,0.0,0.0,0.0,0.0,0.0,0.0,0.0,0.0,0.0,0.0,0.0,0.0,0.0,0.0,0.0,0.0,0.0,0.0,0.0,0.0,0.0,0.0,0.0,0.0,0.0,0.0,0.0,0.0,0.0,0.0,0.0,0.0,0.0,0.0,0.0,0.0,0.0,0.0,0.0,0.0,0.0,0.0,0.0,0.0,0.0,0.0,0.0,0.0,0.0,0.0,0.0,0.0,0.0,0.0,0.0,0.0,0.0,0.0,0.0,0.0,0.0,0.0,0.0,0.0,0.0,0.0,0.0,0.0,0.0,0.0,0.0,0.0,0.0,0.0,0.0,0.0,0.0,0.0,0.0,0.0,0.0,0.0,0.0,0.0,0.0,0.0,0.0,0.0,0.0,0.0,0.0,0.0,0.0,0.0,0.0,0.0,0.0,0.0,0.0,0.0,0.0,0.0,0.0,0.0,0.0,0.0,0.0,0.0,0.0,0.0,0.0,0.0,0.0,0.0,0.0,0.0,0.0,0.0,0.0,0.0,0.0,0.0,0.0,0.0,0.0,0.0,0.0,0.0,0.0,0.0,0.0,0.0,0.0,0.0,0.0,0.0,0.0,0.0,0.0,0.0,0.0,0.0,0.0,0.0,0.0,0.0,0.0,0.0,0.0,0.0,0.0,0.0,0.0,0.0,0.0,0.0,0.0,0.0,0.0,0.0,0.0,0.0,0.0,0.0,0.0,0.0,0.0,0.0,0.0,0.0,0.0,0.0,0.0,0.0,0.0,0.0,0.0,0.0,0.0,0.0,0.0,0.0,0.0,0.0,0.0,0.0,0.0,0.0,0.0,0.0,0.0,0.0,0.0,0.0,0.0,0.0,0.0,0.0,0.0,0.0,0.0,0.0,0.0,0.0,0.0,0.0,0.0,0.0,0.0,0.0,0.0,0.0,0.0,0.0,0.0,0.0,0.0,0.0,0.0,0.0,0.0,0.0,0.0,0.0,0.0,0.0,0.0,0.0,0.0,0.0,0.0,0.0,0.0,0.0,0.0,0.0,0.0,0.0,0.0,0.0,0.0,0.0,0.0,0.0,0.0,0.0,0.0,0.0,0.0,0.0,0.0,0.0,0.0,0.0,0.0,0.0,0.0,0.0,0.0,0.0,0.0,0.0,0.0,0.0,0.0,0.0,0.0,0.0,0.0,0.0,0.0,0.0,0.0,0.0,0.0,0.0,0.0,0.0,0.0,0.0,0.0,0.0,0.0,0.0,0.0,0.0,0.0,0.0,0.0,0.0,0.0,0.0,0.0,0.0,0.0,0.0,0.0,0.0,0.0,0.0,0.0,0.0,0.0,0.0,0.0,0.0,0.0,0.0,0.0,0.0,0.0,0.0,0.0,0.0,0.0,0.0,0.0,0.0,0.0,0.0,0.0,0.0,0.0,0.0,0.0,0.0,0.0,0.0,0.0,0.0,0.0,0.0,0.0,0.0,0.0,0.0,0.0,0.0,0.0,0.0,0.0,0.0,0.0,0.0,0.0,0.0,0.0,0.0,0.0,0.0,0.0,0.0,0.0,0.0,0.0,0.0,0.0,0.0,0.0,0.0,0.0,0.0,0.0,0.0,0.0,0.0,0.0,0.0,0.0,0.0,0.0,0.0,0.0,0.0,0.0,0.0,0.0,0.0,0.0,0.0,0.0,0.0,0.0,0.0,0.0,0.0,0.0,0.0,0.0,0.0,0.0,0.0,0.0,0.0,0.0,0.0,0.0,0.0,0.0,0.0,0.0,0.0,0.0,0.0,0.0,0.0,0.0,0.0,0.0,0.0,0.0,0.0,0.0,0.0,0.0,0.0,0.0,0.0,0.0,0.0,0.0,0.0,0.0,0.0,0.0,0.0,0.0,0.0,0.0,0.0,0.0,0.0,0.0,0.0,0.0,0.0,0.0,0.0,0.0,0.0,0.0,0.0,0.0,0.0,0.0,0.0,0.0,0.0,0.0,0.0,0.0,0.0,0.0,0.0,0.0,0.0,0.0,0.0,0.0,0.0,0.0,0.0,0.0,0.0,0.0,0.0,0.0,0.0,0.0,0.0,0.0,0.0,0.0,0.0,0.0,0.0,0.0,0.0,0.0,0.0,0.0,0.0,0.0,0.0,0.0,0.0,0.0,0.0,0.0,0.0,0.0,0.0,0.0,0.0,0.0,0.0,0.0,0.0,0.0,0.0,0.0,0.0,0.0,0.0,0.0,0.0,0.0,0.0,0.0,0.0,0.0,0.0,0.0,0.0,0.0,0.0,0.0,0.0,0.0,0.0,0.0,0.0,0.0,0.0,0.0,0.0,0.0,0.0,0.0,0.0,0.0,0.0,0.0,0.0,0.0,0.0,0.0,0.0,0.0,0.0,0.0,0.0,0.0,0.0,0.0,0.0,0.0,0.0,0.0,0.0,0.0,0.0,0.0,0.0,0.0,0.0,0.0,0.0,0.0,0.0,0.0,0.0,0.0,0.0,0.0,0.0,0.0,0.0,0.0,0.0,0.0,0.0,0.0,0.0,0.0,0.0,0.0,0.0,0.0,0.0,0.0,0.0,0.0,0.0,0.0,0.0,0.0,0.0,0.0,0.0,0.0,0.0,0.0,0.0,0.0,0.0,0.0,0.0,0.0,0.0,0.0,0.0,0.0,0.0,0.0,0.0,0.0,0.0,0.0,0.0,0.0,0.0,0.0,0.0,0.0,0.0,0.0,0.0,0.0,0.0,0.0,0.0,0.0,0.0,0.0,0.0,0.0,0.0,0.0,0.0,0.0,0.0,0.0,0.0,0.0,0.0,0.0,0.0,0.0,0.0,0.0,0.0,0.0,0.0,0.0,0.0,0.0,0.0,0.0,0.0,0.0,0.0,0.0,0.0,0.0,0.0,0.0,0.0,0.0,0.0,0.0,0.0,0.0,0.0,0.0,0.0,0.0,0.0,0.0,0.0,0.0,0.0,0.0,0.0,0.0,0.0,0.0,0.0,0.0,0.0,0.0,0.0,0.0,0.0,0.0,0.0,0.0,0.0,0.0,0.0,0.0,0.0,0.0,0.0,0.0,0.0,0.0,-0.9632,0.0,0.0,0.0,-0.9381,0.0,0.0,0.0,0.0,0.0,0.0,0.0,0.0,0.0,0.0,0.0,0.0,0.0,0.0,0.0,0.0,0.0,0.0,0.0,0.0,0.0,0.0,0.0,0.0,0.0,0.0,0.0,0.0,0.0,0.0,0.0,0.0,0.0,0.0,0.0,0.0,0.0,0.0,0.0,0.0,0.0,0.0,0.0,0.0,0.0,0.0,0.0,0.0,0.0,0.0,0.0,0.0,0.0,0.0,0.0,0.0,0.0,0.0,0.0,0.0,0.0,0.0,0.0,0.0,0.0,0.0,0.0,0.0,0.0,0.0,0.0,0.0,0.0,0.0,0.0,0.0,0.0,0.0,0.0,0.0,0.0,0.0,0.0,0.0,0.0,0.0,0.0,0.0,0.0,0.0,0.0,0.0,0.0,0.0,0.0,0.0,0.0,0.0,0.0,0.0,0.0,0.0,0.0,0.0,0.0,0.0,0.0,0.0,0.0,0.0,-0.9571,-0.949,-0.9571,-0.9856,-1.0387,0.0,0.0,0.0,0.0,0.0,0.0,0.0,0.0,0.0,0.0,0.0,0.0,0.0,0.0,0.0,0.0,0.0,0.0,0.0,0.0,0.0,0.0,0.0,0.0,0.0,0.0,0.0,0.0,0.0,0.0,0.0,0.0,0.0,0.0,0.0,0.0,0.0,0.0,0.0,0.0,0.0,0.0,0.0,0.0,0.0,0.0,0.0,0.0,0.0,0.0,0.0,0.0,0.0,0.0,0.0,0.0,0.0,0.0,0.0,0.0,0.0,0.0,0.0,0.0,0.0,0.0,0.0,0.0,0.0,0.0,0.0,0.0,0.0,0.0,0.0,0.0,0.0,0.0,0.0,0.0,0.0,0.0,0.0,0.0,0.0,0.0,0.0,0.0,0.0,0.0,0.0,0.0,0.0,0.0,0.0,0.0,0.0,0.0,0.0,0.0,0.0,0.0,0.0,0.0,0.0,0.0,0.0,0.0,0.0,0.0,0.0,0.0,-0.9639,-1.0259,-1.1343,0.0,0.0,0.0,0.0,0.0,0.0,0.0,0.0,0.0,0.0,0.0,0.0,0.0,0.0,0.0,0.0,0.0,0.0,0.0,0.0,0.0,0.0,0.0,0.0,0.0,0.0,0.0,0.0,0.0,0.0,0.0,0.0,0.0,0.0,0.0,0.0,0.0,0.0,0.0,0.0,0.0,0.0,0.0,0.0,0.0,0.0,0.0,0.0,0.0,0.0,0.0,0.0,0.0,0.0,0.0,0.0,0.0,0.0,0.0,0.0,0.0,0.0,0.0,0.0,0.0,0.0,0.0,0.0,0.0,0.0,0.0,0.0,0.0,0.0,0.0,0.0,0.0,0.0,0.0,0.0,0.0,0.0,0.0,0.0,0.0,0.0,0.0,0.0,0.0,0.0,0.0,0.0,0.0,0.0,0.0,0.0,0.0,0.0,0.0,0.0,0.0,0.0,0.0,0.0,0.0,0.0,0.0,0.0,0.0,0.0,-0.9245,-0.9761,-0.9544,0.0,-1.1502,0.0,0.0,0.0,0.0,0.0,0.0,0.0,0.0,0.0,0.0,0.0,0.0,0.0,0.0,0.0,0.0,0.0,0.0,0.0,0.0,0.0,0.0,0.0,0.0,0.0,0.0,0.0,0.0,0.0,0.0,0.0,0.0,0.0,0.0,0.0,0.0,0.0,0.0,0.0,0.0,0.0,0.0,0.0,0.0,0.0,0.0,0.0,0.0,0.0,0.0,0.0,0.0,0.0,0.0,0.0,0.0,0.0,0.0,0.0,0.0,0.0,0.0,0.0,0.0,0.0,0.0,0.0,0.0,0.0,0.0,0.0,0.0,0.0,0.0,0.0,0.0,0.0,0.0,0.0,0.0,0.0,0.0,0.0,0.0,0.0,0.0,0.0,0.0,0.0,0.0,0.0,0.0,0.0,0.0,0.0,0.0,0.0,0.0,0.0,0.0,0.0,0.0,0.0,0.0,0.0,0.0,0.0,0.0,0.0,0.0,-0.9313,-0.9557,-1.1165,-1.2117,0.0,0.0,0.0,0.0,0.0,0.0,0.0,0.0,0.0,0.0,0.0,0.0,0.0,0.0,0.0,0.0,0.0,0.0,0.0,0.0,0.0,0.0,0.0,0.0,0.0,0.0,0.0,0.0,0.0,0.0,0.0,0.0,0.0,0.0,0.0,0.0,0.0,0.0,0.0,0.0,0.0,0.0,0.0,0.0,0.0,0.0,0.0,0.0,0.0,0.0,0.0,0.0,0.0,0.0,0.0,0.0,0.0,0.0,0.0,0.0,0.0,0.0,0.0,0.0,0.0,0.0,0.0,0.0,0.0,0.0,0.0,0.0,0.0,0.0,0.0,0.0,0.0,0.0,0.0,0.0,0.0,0.0,0.0,0.0,0.0,0.0,0.0,0.0,0.0,0.0,0.0,0.0,0.0,0.0,0.0,0.0,0.0,0.0,0.0,0.0,0.0,0.0,0.0,0.0,0.0,0.0,0.0,0.0,0.0,0.0,-0.934,-0.9634,-1.0128,-1.2813,-1.4166,-1.3609,0.0,0.0,0.0,0.0,0.0,0.0,0.0,0.0,0.0,0.0,0.0,0.0,0.0,0.0,0.0,0.0,0.0,0.0,0.0,0.0,0.0,0.0,0.0,0.0,0.0,0.0,0.0,0.0,0.0,0.0,0.0,0.0,0.0,0.0,0.0,0.0,0.0,0.0,0.0,0.0,0.0,0.0,0.0,0.0,0.0,0.0,0.0,0.0,0.0,0.0,0.0,0.0,0.0,0.0,0.0,0.0,0.0,0.0,0.0,0.0,0.0,0.0,0.0,0.0,0.0,0.0,0.0,0.0,0.0,0.0,0.0,0.0,0.0,0.0,0.0,0.0,0.0,0.0,0.0,0.0,0.0,0.0,0.0,0.0,0.0,0.0,0.0,0.0,0.0,0.0,0.0,0.0,0.0,0.0,0.0,0.0,0.0,0.0,0.0,0.0,0.0,0.0,0.0,0.0,0.0,0.0,0.0,0.0,-0.9937,-0.9585,-1.0142,-1.1443,-1.4603,-1.5829,0.0,0.0,0.0,0.0,0.0,0.0,0.0,0.0,0.0,0.0,0.0,0.0,0.0,0.0,0.0,0.0,0.0,0.0,0.0,0.0,0.0,0.0,0.0,0.0,0.0,0.0,0.0,0.0,0.0,0.0,0.0,0.0,0.0,0.0,0.0,0.0,0.0,0.0,0.0,0.0,0.0,0.0,0.0,0.0,0.0,0.0,0.0,0.0,0.0,0.0,0.0,0.0,0.0,0.0,0.0,0.0,0.0,0.0,0.0,0.0,0.0,0.0,0.0,0.0,0.0,0.0,0.0,0.0,0.0,0.0,0.0,0.0,0.0,0.0,0.0,0.0,0.0,0.0,0.0,0.0,0.0,0.0,0.0,0.0,0.0,0.0,0.0,0.0,0.0,0.0,0.0,0.0,0.0,0.0,0.0,0.0,0.0,0.0,0.0,0.0,0.0,0.0,0.0,0.0,0.0,0.0,0.0,0.0,0.0,-0.9327,-1.0271,-1.1229,-1.2082,-1.4427,-1.5626,0.0,0.0,0.0,0.0,0.0,0.0,0.0,0.0,0.0,0.0,0.0,0.0,0.0,0.0,0.0,0.0,0.0,0.0,0.0,0.0,0.0,0.0,0.0,0.0,0.0,0.0,0.0,0.0,0.0,0.0,0.0,0.0,0.0,0.0,0.0,0.0,0.0,0.0,0.0,0.0,0.0,0.0,0.0,0.0,0.0,0.0,0.0,0.0,0.0,0.0,0.0,0.0,0.0,0.0,0.0,0.0,0.0,0.0,0.0,0.0,0.0,0.0,0.0,0.0,0.0,0.0,0.0,0.0,0.0,0.0,0.0,0.0,0.0,0.0,0.0,0.0,0.0,0.0,0.0,0.0,0.0,0.0,0.0,0.0,0.0,0.0,0.0,0.0,0.0,0.0,0.0,0.0,0.0,0.0,0.0,0.0,0.0,0.0,0.0,0.0,0.0,0.0,0.0,0.0,0.0,0.0,0.0,0.0,0.0,-0.9225,0.0,-1.1929,-1.2209,-1.3972,-1.4965,0.0,0.0,0.0,0.0,0.0,0.0,0.0,0.0,0.0,0.0,0.0,0.0,0.0,0.0,0.0,0.0,0.0,0.0,0.0,0.0,0.0,0.0,0.0,0.0,0.0,0.0,0.0,0.0,0.0,0.0,0.0,0.0,0.0,0.0,0.0,0.0,0.0,0.0,0.0,0.0,0.0,0.0,0.0,0.0,0.0,0.0,0.0,0.0,0.0,0.0,0.0,0.0,0.0,0.0,0.0,0.0,0.0,0.0,0.0,0.0,0.0,0.0,0.0,0.0,0.0,0.0,0.0,0.0,0.0,0.0,0.0,0.0,0.0,0.0,0.0,0.0,0.0,0.0,0.0,0.0,0.0,0.0,0.0,0.0,0.0,0.0,0.0,0.0,0.0,0.0,0.0,0.0,0.0,0.0,0.0,0.0,0.0,0.0,0.0,0.0,0.0,0.0,0.0,0.0,0.0,0.0,0.0,0.0,-0.9218,-0.9774,-1.1549,-1.2217,-1.1728,-1.3241,-1.407,0.0,0.0,0.0,0.0,0.0,0.0,0.0,0.0,0.0,0.0,0.0,0.0,0.0,0.0,0.0,0.0,0.0,0.0,0.0,0.0,0.0,0.0,0.0,0.0,0.0,0.0,0.0,0.0,0.0,0.0,0.0,0.0,0.0,0.0,0.0,0.0,0.0,0.0,0.0,0.0,0.0,0.0,0.0,0.0,0.0,0.0,0.0,0.0,0.0,0.0,0.0,0.0,0.0,0.0,0.0,0.0,0.0,0.0,0.0,0.0,0.0,0.0,0.0,0.0,0.0,0.0,0.0,0.0,0.0,0.0,0.0,0.0,0.0,0.0,0.0,0.0,0.0,0.0,0.0,0.0,0.0,0.0,0.0,0.0,0.0,0.0,0.0,0.0,0.0,0.0,0.0,0.0,0.0,0.0,0.0,0.0,0.0,0.0,0.0,0.0,0.0,0.0,0.0,0.0,0.0,0.0,0.0,0.0,0.0,-0.9476,-1.2233,-1.3971,-1.4416,-1.5978,-1.6929,0.0,0.0,0.0,0.0,0.0,0.0,0.0,0.0,0.0,0.0,0.0,0.0,0.0,0.0,0.0,0.0,0.0,0.0,0.0,0.0,0.0,0.0,0.0,0.0,0.0,0.0,0.0,0.0,0.0,0.0,0.0,0.0,0.0,0.0,0.0,0.0,0.0,0.0,0.0,0.0,0.0,0.0,0.0,0.0,0.0,0.0,0.0,0.0,0.0,0.0,0.0,0.0,0.0,0.0,0.0,0.0,0.0,0.0,0.0,0.0,0.0,0.0,0.0,0.0,0.0,0.0,0.0,0.0,0.0,0.0,0.0,0.0,0.0,0.0,0.0,0.0,0.0,0.0,0.0,0.0,0.0,0.0,0.0,0.0,0.0,0.0,0.0,0.0,0.0,0.0,0.0,0.0,0.0,0.0,0.0,0.0,0.0,0.0,0.0,0.0,0.0,0.0,0.0,0.0,0.0,0.0,0.0,0.0,0.0,-0.9531,-1.2423,-1.426,-1.4634,-1.6065,-1.7018,-1.7487,0.0,0.0,0.0,0.0,0.0,0.0,0.0,0.0,0.0,0.0,0.0,0.0,0.0,0.0,0.0,0.0,0.0,0.0,0.0,0.0,0.0,0.0,0.0,0.0,0.0,0.0,0.0,0.0,0.0,0.0,0.0,0.0,0.0,0.0,0.0,0.0,0.0,0.0,0.0,0.0,0.0,0.0,0.0,0.0,0.0,0.0,0.0,0.0,0.0,0.0,0.0,0.0,0.0,0.0,0.0,0.0,0.0,0.0,0.0,0.0,0.0,0.0,0.0,0.0,0.0,0.0,0.0,0.0,0.0,0.0,0.0,0.0,0.0,0.0,0.0,0.0,0.0,0.0,0.0,0.0,0.0,0.0,0.0,0.0,0.0,0.0,0.0,0.0,0.0,0.0,0.0,0.0,0.0,0.0,0.0,0.0,0.0,0.0,0.0,0.0,0.0,0.0,0.0,0.0,0.0,0.0,0.0,0.0,-0.9815,-1.2306,-1.3552,-1.3213,-1.4508,-1.5264,0.0,0.0,0.0,0.0,0.0,0.0,0.0,0.0,0.0,0.0,0.0,0.0,0.0,0.0,0.0,0.0,0.0,0.0,0.0,0.0,0.0,0.0,0.0,0.0,0.0,0.0,0.0,0.0,0.0,0.0,0.0,0.0,0.0,0.0,0.0,0.0,0.0,0.0,0.0,0.0,0.0,0.0,0.0,0.0,0.0,0.0,0.0,0.0,0.0,0.0,0.0,0.0,0.0,0.0,0.0,0.0,0.0,0.0,0.0,0.0,0.0,0.0,0.0,0.0,0.0,0.0,0.0,0.0,0.0,0.0,0.0,0.0,0.0,0.0,0.0,0.0,0.0,0.0,0.0,0.0,0.0,0.0,0.0,0.0,0.0,0.0,0.0,0.0,0.0,0.0,0.0,0.0,0.0,0.0,0.0,0.0,0.0,0.0,0.0,0.0,0.0,0.0,0.0,0.0,0.0,0.0,0.0,0.0,0.0,-0.9943,-1.3713,-1.5722,-1.5593,-1.7653,-1.8682,0.0,0.0,0.0,0.0,0.0,0.0,0.0,0.0,0.0,0.0,0.0,0.0,0.0,0.0,0.0,0.0,0.0,0.0,0.0,0.0,0.0,0.0,0.0,0.0,0.0,0.0,0.0,0.0,0.0,0.0,0.0,0.0,0.0,0.0,0.0,0.0,0.0,0.0,0.0,0.0,0.0,0.0,0.0,0.0,0.0,0.0,0.0,0.0,0.0,0.0,0.0,0.0,0.0,0.0,0.0,0.0,0.0,0.0,0.0,0.0,0.0,0.0,0.0,0.0,0.0,0.0,0.0,0.0,0.0,0.0,0.0,0.0,0.0,0.0,0.0,0.0,0.0,0.0,0.0,0.0,0.0,0.0,0.0,0.0,0.0,0.0,0.0,0.0,0.0,0.0,0.0,0.0,0.0,0.0,0.0,0.0,0.0,0.0,0.0,0.0,0.0,0.0,0.0,0.0,0.0,0.0,0.0,0.0,-0.953,-0.9917,-1.4401,-1.6655,-1.6522,-1.9414,-2.0468,0.0,0.0,0.0,0.0,0.0,0.0,0.0,0.0,0.0,0.0,0.0,0.0,0.0,0.0,0.0,0.0,0.0,0.0,0.0,0.0,0.0,0.0,0.0,0.0,0.0,0.0,0.0,0.0,0.0,0.0,0.0,0.0,0.0,0.0,0.0,0.0,0.0,0.0,0.0,0.0,0.0,0.0,0.0,0.0,0.0,0.0,0.0,0.0,0.0,0.0,0.0,0.0,0.0,0.0,0.0,0.0,0.0,0.0,0.0,0.0,0.0,0.0,0.0,0.0,0.0,0.0,0.0,0.0,0.0,0.0,0.0,0.0,0.0,0.0,0.0,0.0,0.0,0.0,0.0,0.0,0.0,0.0,0.0,0.0,0.0,0.0,0.0,0.0,0.0,0.0,0.0,0.0,0.0,0.0,0.0,0.0,0.0,0.0,0.0,0.0,0.0,0.0,0.0,0.0,0.0,0.0,0.0,0.0,-0.9741,-1.0073,-1.4426,-1.6705,-1.6746,-2.0025,-2.1082,0.0,0.0,0.0,0.0,0.0,0.0,0.0,0.0,0.0,0.0,0.0,0.0,0.0,0.0,0.0,0.0,0.0,0.0,0.0,0.0,0.0,0.0,0.0,0.0,0.0,0.0,0.0,0.0,0.0,0.0,0.0,0.0,0.0,0.0,0.0,0.0,0.0,0.0,0.0,0.0,0.0,0.0,0.0,0.0,0.0,0.0,0.0,0.0,0.0,0.0,0.0,0.0,0.0,0.0,0.0,0.0,0.0,0.0,0.0,0.0,0.0,0.0,0.0,0.0,0.0,0.0,0.0,0.0,0.0,0.0,0.0,0.0,0.0,0.0,0.0,0.0,0.0,0.0,0.0,0.0,0.0,0.0,0.0,0.0,0.0,0.0,0.0,0.0,0.0,0.0,0.0,0.0,0.0,0.0,0.0,0.0,0.0,0.0,0.0,0.0,0.0,0.0,0.0,0.0,0.0,0.0,0.0,0.0,-0.9686,-1.0089,-1.4241,-1.6624,-1.697,-1.9585,-2.0561,0.0,0.0,0.0,0.0,0.0,0.0,0.0,0.0,0.0,0.0,0.0,0.0,0.0,0.0,0.0,0.0,0.0,0.0,0.0,0.0,0.0,0.0,0.0,0.0,0.0,0.0,0.0,0.0,0.0,0.0,0.0,0.0,0.0,0.0,0.0,0.0,0.0,0.0,0.0,0.0,0.0,0.0,0.0,0.0,0.0,0.0,0.0,0.0,-1.027,0.0,0.0,0.0,0.0,0.0,0.0,0.0,0.0,0.0,0.0,0.0,0.0,0.0,0.0,0.0,0.0,0.0,0.0,0.0,0.0,0.0,0.0,0.0,0.0,0.0,0.0,0.0,0.0,0.0,0.0,0.0,0.0,0.0,0.0,0.0,0.0,0.0,0.0,0.0,0.0,0.0,0.0,0.0,0.0,0.0,0.0,0.0,0.0,0.0,0.0,0.0,0.0,0.0,0.0,0.0,0.0,0.0,0.0,0.0,-0.9707,-1.0161,-1.4078,-1.6389,-1.683,-1.9316,-2.0468,0.0,0.0,0.0,0.0,0.0,0.0,0.0,0.0,0.0,0.0,0.0,0.0,0.0,0.0,0.0,0.0,0.0,0.0,0.0,0.0,0.0,0.0,0.0,0.0,0.0,0.0,0.0,0.0,0.0,0.0,0.0,0.0,0.0,0.0,0.0,0.0,0.0,0.0,0.0,0.0,0.0,0.0,0.0,0.0,0.0,0.0,0.0,0.0,0.0,0.0,0.0,0.0,0.0,0.0,0.0,0.0,0.0,0.0,0.0,0.0,0.0,0.0,0.0,0.0,0.0,0.0,0.0,0.0,0.0,0.0,0.0,0.0,0.0,0.0,0.0,0.0,0.0,0.0,0.0,0.0,0.0,0.0,0.0,0.0,0.0,0.0,0.0,0.0,0.0,0.0,0.0,0.0,0.0,0.0,0.0,0.0,0.0,0.0,0.0,0.0,0.0,0.0,0.0,0.0,0.0,0.0,0.0,-0.9164,-0.972,-1.0336,-1.3916,-1.5984,-1.6369,-1.9206,-2.0684,-2.0402,0.0,0.0,0.0,0.0,0.0,0.0,0.0,0.0,0.0,0.0,0.0,0.0,0.0,0.0,0.0,0.0,0.0,0.0,0.0,0.0,0.0,0.0,0.0,0.0,0.0,0.0,0.0,0.0,0.0,0.0,0.0,0.0,0.0,0.0,0.0,0.0,0.0,0.0,-1.9676,-1.9813,0.0,0.0,0.0,0.0,0.0,0.0,0.0,0.0,-1.1401,0.0,0.0,0.0,0.0,0.0,0.0,0.0,0.0,0.0,0.0,0.0,0.0,0.0,0.0,0.0,0.0,0.0,0.0,0.0,0.0,0.0,0.0,0.0,0.0,0.0,0.0,0.0,0.0,0.0,0.0,0.0,0.0,0.0,0.0,0.0,0.0,0.0,0.0,0.0,0.0,0.0,0.0,0.0,0.0,0.0,0.0,0.0,0.0,0.0,0.0,0.0,0.0,0.0,0.0,0.0,0.0,-0.8838,-0.9064,-0.9676,-1.0615,-1.3979,-1.5961,-1.6481,-1.9389,-2.1149,-2.1495,0.0,0.0,0.0,0.0,0.0,0.0,0.0,0.0,0.0,0.0,0.0,0.0,0.0,0.0,0.0,0.0,0.0,0.0,0.0,0.0,0.0,0.0,0.0,0.0,0.0,0.0,0.0,0.0,0.0,0.0,0.0,0.0,0.0,0.0,0.0,0.0,0.0,0.0,0.0,-2.0859,-2.0922,0.0,0.0,0.0,0.0,0.0,0.0,0.0,0.0,-1.9136,0.0,0.0,0.0,0.0,0.0,0.0,0.0,0.0,0.0,0.0,0.0,0.0,0.0,0.0,0.0,0.0,0.0,0.0,0.0,0.0,0.0,0.0,0.0,0.0,0.0,0.0,0.0,0.0,0.0,0.0,0.0,0.0,0.0,0.0,0.0,0.0,0.0,0.0,0.0,0.0,0.0,0.0,0.0,0.0,0.0,0.0,0.0,0.0,0.0,0.0,0.0,0.0,0.0,0.0,0.0,-0.8444,-0.8957,-0.9717,-1.0517,-1.308,-1.4971,-1.6186,-1.8057,-1.9866,0.0,0.0,0.0,0.0,0.0,0.0,0.0,0.0,0.0,0.0,0.0,0.0,0.0,0.0,0.0,0.0,0.0,0.0,0.0,0.0,0.0,0.0,0.0,0.0,0.0,0.0,0.0,0.0,0.0,0.0,0.0,0.0,0.0,0.0,0.0,0.0,0.0,0.0,0.0,0.0,-2.1271,-2.1056,-2.0909,0.0,0.0,0.0,0.0,0.0,0.0,-1.8988,-2.1505,0.0,0.0,0.0,0.0,0.0,0.0,0.0,0.0,0.0,0.0,0.0,0.0,0.0,0.0,0.0,0.0,0.0,0.0,0.0,0.0,0.0,0.0,0.0,0.0,0.0,0.0,0.0,0.0,0.0,0.0,0.0,0.0,0.0,0.0,0.0,0.0,0.0,0.0,0.0,0.0,0.0,0.0,0.0,0.0,0.0,0.0,0.0,0.0,0.0,0.0,0.0,0.0,0.0,0.0,0.0,-0.8023,-0.885,-0.9625,-1.0202,-1.2012,-1.397,-1.5832,-1.683,-1.8639,0.0,0.0,0.0,0.0,0.0,0.0,0.0,0.0,0.0,0.0,0.0,0.0,0.0,0.0,0.0,0.0,0.0,0.0,0.0,0.0,0.0,0.0,0.0,0.0,0.0,0.0,0.0,0.0,0.0,0.0,0.0,0.0,0.0,0.0,0.0,0.0,0.0,0.0,0.0,0.0,0.0,-2.1256,-2.0909,-2.1096,0.0,0.0,0.0,0.0,-2.0117,-2.1939,0.0,0.0,0.0,0.0,0.0,0.0,0.0,0.0,0.0,0.0,0.0,0.0,0.0,0.0,0.0,0.0,0.0,0.0,0.0,0.0,0.0,0.0,0.0,0.0,0.0,0.0,0.0,0.0,0.0,0.0,0.0,0.0,0.0,0.0,0.0,0.0,0.0,0.0,0.0,0.0,0.0,0.0,0.0,0.0,0.0,0.0,0.0,0.0,0.0,0.0,0.0,0.0,0.0,0.0,0.0,0.0,-0.8017,-0.8864,-0.9469,-0.9915,-1.1838,-1.3771,-1.5737,-1.7189,-1.9031,0.0,0.0,0.0,0.0,0.0,0.0,0.0,0.0,0.0,0.0,0.0,0.0,0.0,0.0,0.0,0.0,0.0,0.0,0.0,0.0,0.0,0.0,0.0,0.0,0.0,0.0,0.0,0.0,0.0,0.0,0.0,0.0,0.0,0.0,0.0,0.0,0.0,0.0,0.0,0.0,0.0,-2.2071,-2.1523,-2.1697,-2.167,0.0,0.0,-1.9575,-2.0155,-2.2594,0.0,0.0,0.0,0.0,0.0,0.0,0.0,0.0,0.0,0.0,0.0,0.0,0.0,0.0,0.0,0.0,0.0,0.0,0.0,0.0,0.0,0.0,0.0,0.0,0.0,0.0,0.0,0.0,0.0,0.0,0.0,0.0,0.0,0.0,0.0,0.0,0.0,0.0,0.0,0.0,0.0,0.0,0.0,0.0,0.0,0.0,0.0,0.0,0.0,0.0,0.0,0.0,0.0,0.0,0.0,-0.819,-0.8348,-0.8772,-0.9245,-0.9771,-1.0818,-1.2733,-1.557,-1.5845,-1.7637,0.0,0.0,0.0,0.0,0.0,0.0,0.0,0.0,0.0,0.0,0.0,0.0,0.0,0.0,0.0,0.0,0.0,0.0,0.0,0.0,0.0,0.0,0.0,0.0,0.0,0.0,0.0,0.0,0.0,0.0,0.0,0.0,0.0,0.0,0.0,0.0,0.0,0.0,0.0,0.0,0.0,0.0,-2.1603,-2.1937,0.0,0.0,0.0,-2.003,-2.0618,0.0,0.0,0.0,0.0,0.0,0.0,0.0,0.0,0.0,0.0,0.0,0.0,0.0,0.0,0.0,0.0,0.0,0.0,0.0,0.0,0.0,0.0,0.0,0.0,0.0,0.0,0.0,0.0,0.0,0.0,0.0,0.0,0.0,0.0,0.0,0.0,0.0,0.0,0.0,0.0,0.0,0.0,0.0,0.0,0.0,0.0,0.0,0.0,0.0,0.0,0.0,0.0,0.0,0.0,0.0,0.0,0.0,-0.8361,-0.8745,-0.9334,-0.9895,-1.0566,-1.2488,-1.5559,-1.5289,0.0,0.0,0.0,0.0,0.0,0.0,0.0,0.0,0.0,0.0,0.0,0.0,0.0,0.0,0.0,0.0,0.0,0.0,0.0,0.0,0.0,0.0,0.0,0.0,0.0,0.0,0.0,-1.5912,0.0,0.0,0.0,0.0,0.0,0.0,0.0,0.0,0.0,0.0,0.0,0.0,0.0,0.0,-2.158,-2.1032,-2.178,-2.2258,0.0,0.0,-2.0798,-2.1239,-2.0785,-2.0294,0.0,0.0,0.0,0.0,0.0,0.0,0.0,0.0,0.0,0.0,0.0,0.0,0.0,0.0,0.0,0.0,0.0,0.0,0.0,0.0,0.0,0.0,0.0,0.0,0.0,0.0,0.0,0.0,0.0,0.0,0.0,0.0,0.0,0.0,0.0,0.0,0.0,0.0,0.0,0.0,0.0,0.0,0.0,0.0,0.0,0.0,0.0,0.0,0.0,0.0,0.0,0.0,0.0,0.0,-0.8157,-0.8017,-0.8838,-0.9552,-1.028,-1.1815,-1.3735,-1.5696,-1.6841,-1.8646,0.0,0.0,0.0,0.0,0.0,0.0,0.0,0.0,0.0,0.0,0.0,0.0,0.0,0.0,0.0,0.0,0.0,0.0,0.0,0.0,0.0,0.0,0.0,0.0,0.0,0.0,0.0,0.0,0.0,0.0,0.0,0.0,0.0,0.0,0.0,0.0,0.0,0.0,0.0,0.0,0.0,-2.0732,-1.9398,-2.0958,-2.2405,0.0,-2.2111,-2.1844,-2.1889,-2.2351,-2.1992,-1.9814,0.0,0.0,0.0,0.0,0.0,0.0,0.0,0.0,0.0,0.0,0.0,0.0,0.0,0.0,0.0,0.0,0.0,0.0,0.0,0.0,0.0,0.0,0.0,0.0,0.0,0.0,0.0,0.0,0.0,0.0,0.0,0.0,0.0,0.0,0.0,0.0,0.0,0.0,0.0,0.0,0.0,0.0,0.0,0.0,0.0,0.0,0.0,0.0,0.0,0.0,0.0,0.0,0.0,-0.8183,-0.8361,-0.8765,-0.9306,-1.0012,-1.1649,-1.3376,-1.5175,-1.6575,-1.8357,0.0,0.0,0.0,0.0,0.0,0.0,0.0,0.0,0.0,0.0,0.0,0.0,0.0,0.0,0.0,0.0,0.0,0.0,0.0,0.0,0.0,0.0,0.0,0.0,0.0,0.0,0.0,0.0,-1.5939,-1.5939,-1.6246,0.0,0.0,0.0,0.0,0.0,0.0,0.0,0.0,0.0,0.0,-2.0631,-1.9472,-2.1073,0.0,0.0,-2.2298,-2.2149,-2.2522,-2.2069,-2.1416,-2.013,-1.984,0.0,0.0,0.0,0.0,0.0,0.0,0.0,0.0,0.0,0.0,0.0,0.0,0.0,0.0,0.0,0.0,0.0,0.0,0.0,0.0,0.0,0.0,0.0,0.0,0.0,0.0,-0.8038,-0.8038,0.0,0.0,0.0,0.0,0.0,0.0,0.0,0.0,0.0,0.0,0.0,0.0,0.0,0.0,0.0,0.0,0.0,0.0,0.0,0.0,0.0,0.0,0.0,0.0,-0.8273,-0.8595,-0.8863,-0.9293,-0.9876,-1.2061,-1.3741,-1.5024,-1.6914,-1.901,-2.0997,0.0,0.0,0.0,0.0,0.0,0.0,0.0,0.0,0.0,0.0,0.0,0.0,0.0,0.0,0.0,0.0,0.0,0.0,0.0,0.0,0.0,0.0,0.0,0.0,0.0,0.0,0.0,-1.6139,-1.6005,-1.6126,0.0,0.0,0.0,0.0,0.0,0.0,0.0,0.0,0.0,0.0,-1.9661,-1.868,-2.0123,-2.171,-2.2552,-2.2324,-2.2227,-2.2736,-2.1867,-2.0803,-2.0119,0.0,0.0,0.0,0.0,0.0,0.0,0.0,0.0,0.0,0.0,0.0,0.0,0.0,0.0,0.0,0.0,0.0,0.0,0.0,0.0,0.0,0.0,0.0,0.0,0.0,0.0,0.0,-0.8038,0.0,0.0,-0.8038,0.0,0.0,0.0,0.0,0.0,0.0,0.0,0.0,0.0,0.0,0.0,0.0,0.0,0.0,0.0,0.0,0.0,0.0,0.0,0.0,0.0,0.0,-0.8381,-0.8595,-0.8957,-0.9435,-1.0143,-1.3224,-1.5013,-1.534,-1.8215,-2.0758,-2.284,0.0,0.0,0.0,0.0,0.0,0.0,0.0,0.0,0.0,0.0,0.0,0.0,0.0,0.0,0.0,0.0,0.0,0.0,0.0,0.0,0.0,0.0,0.0,0.0,0.0,0.0,-1.6633,-1.6433,-1.6139,0.0,0.0,0.0,0.0,0.0,0.0,0.0,0.0,0.0,-1.4626,-1.621,-1.7406,-1.6681,-1.7982,-1.9961,-2.1714,-2.2051,-2.2148,-2.2762,-2.1921,-2.076,0.0,0.0,0.0,0.0,0.0,0.0,0.0,0.0,0.0,0.0,0.0,0.0,0.0,0.0,0.0,0.0,0.0,0.0,0.0,0.0,0.0,0.0,0.0,0.0,0.0,0.0,0.0,-0.832,-0.802,0.0,0.0,0.0,0.0,0.0,0.0,0.0,0.0,0.0,0.0,0.0,-0.8581,-0.8811,0.0,0.0,0.0,0.0,0.0,0.0,0.0,0.0,0.0,0.0,0.0,0.0,-0.8381,-0.8582,-0.8963,-0.9395,-0.9998,-1.3027,-1.4751,-1.4821,-1.7872,-2.0573,-2.2624,0.0,0.0,0.0,0.0,0.0,0.0,0.0,0.0,0.0,0.0,0.0,0.0,0.0,0.0,0.0,0.0,0.0,0.0,0.0,0.0,0.0,0.0,0.0,0.0,0.0,-1.6233,0.0,0.0,0.0,0.0,0.0,0.0,0.0,0.0,0.0,0.0,-1.8669,-1.8216,-1.6049,-1.8058,-1.9175,-1.7927,-1.9443,-2.0981,0.0,0.0,0.0,0.0,0.0,0.0,0.0,0.0,0.0,0.0,0.0,0.0,0.0,-2.2859,-2.2539,-2.1309,-2.2117,-2.2188,-1.9875,0.0,0.0,0.0,0.0,0.0,0.0,0.0,0.0,0.0,0.0,0.0,0.0,0.0,0.0,-0.8454,-0.8441,-0.8452,0.0,0.0,0.0,0.0,0.0,0.0,0.0,0.0,-0.8886,-0.9008,-0.8872,-0.9117,-0.915,-0.9015,-0.9565,-0.9507,0.0,0.0,0.0,0.0,0.0,0.0,0.0,0.0,-0.8434,-0.8699,-0.9017,-0.9401,-0.9847,-1.2892,-1.4569,-1.4606,-1.7993,-2.0735,-2.2445,-2.3763,-2.445,0.0,0.0,0.0,0.0,0.0,0.0,0.0,0.0,0.0,0.0,0.0,0.0,0.0,0.0,0.0,0.0,0.0,0.0,0.0,0.0,0.0,0.0,0.0,-1.6259,0.0,0.0,0.0,0.0,0.0,0.0,0.0,0.0,0.0,-1.9715,-1.9814,-1.8991,-1.715,-1.7994,-1.8734,-1.8477,0.0,0.0,0.0,0.0,0.0,0.0,0.0,-2.1368,-2.2175,-2.7037,-3.0607,-2.9545,-2.7809,-2.5958,-2.462,0.0,0.0,-2.2752,-2.3422,-2.3307,-2.1018,-2.1214,-2.1686,-2.17,-2.2359,-2.2627,0.0,0.0,0.0,0.0,-0.8611,0.0,0.0,0.0,-0.8391,-0.8709,0.0,-0.8758,0.0,0.0,0.0,0.0,-0.8316,-0.873,0.0,0.0,-0.9277,-0.9415,-0.9277,-0.9422,-0.9422,-0.9405,-1.1157,-1.1637,-1.1159,-1.1894,-1.2865,0.0,0.0,0.0,0.0,0.0,-0.8635,-0.8947,-0.9218,-0.9449,-0.9737,-1.283,-1.4606,-1.4761,-1.8738,-2.1399,-2.2478,-2.4001,-2.4656,-2.4516,-2.5139,0.0,0.0,0.0,0.0,0.0,0.0,0.0,0.0,0.0,0.0,0.0,0.0,0.0,0.0,0.0,0.0,0.0,0.0,0.0,0.0,-1.6302,0.0,0.0,0.0,0.0,0.0,0.0,0.0,0.0,0.0,-1.7769,-2.0554,-2.0514,-1.9639,-1.7923,0.0,0.0,0.0,0.0,-1.7216,-2.0602,-2.1096,-2.223,-2.5518,-2.3505,-2.1669,-2.1689,0.0,0.0,-3.2036,-3.0376,-2.8376,-2.721,-2.5597,-2.4291,-2.3814,-2.3311,-2.293,-2.2848,-2.2763,-2.2883,-2.2873,-2.2832,-2.2882,-1.602,0.0,0.0,0.0,0.0,-0.9507,-0.9089,-0.9286,-0.9245,-0.9934,-1.1015,-1.068,0.0,0.0,0.0,0.0,0.0,0.0,-0.9457,-1.0405,-1.0787,-1.076,-1.0715,-1.1249,-1.1306,-1.0898,-1.1802,-1.301,-1.4266,-1.4223,-1.4185,-1.4154,0.0,0.0,0.0,0.0,-0.9526,-0.895,-0.9171,-0.9395,-0.9754,-1.2876,-1.5587,-1.7927,-2.0202,-2.1958,-2.2928,-2.4157,-2.5293,-2.617,-2.4699,0.0,0.0,0.0,0.0,0.0,0.0,0.0,0.0,0.0,0.0,0.0,0.0,0.0,0.0,0.0,0.0,0.0,0.0,0.0,-1.6135,-1.6056,-1.6273,0.0,0.0,0.0,0.0,0.0,0.0,0.0,0.0,0.0,-1.9652,-2.0438,-2.0516,0.0,0.0,-1.8232,-1.9788,-1.8776,-1.8512,-2.0716,-2.1064,0.0,-2.7102,-2.8941,-2.9878,-2.9886,-3.0471,-3.1079,-3.1777,-3.0485,-2.8994,-2.8026,-2.6892,-2.5463,-2.3014,-2.2685,-2.2875,-2.2822,-2.2943,-2.2836,-2.2835,-2.2821,-2.2863,-1.8262,-1.58,-1.404,-1.3044,-1.2374,-1.0932,-1.0379,-1.0442,-0.9683,-1.0308,-1.1819,-1.1363,-1.1755,-1.2529,-1.067,0.0,0.0,0.0,-0.9728,-1.1219,-1.1327,-1.1742,-1.2271,-1.2388,-1.2443,-1.2443,-1.3125,-1.4246,-1.5713,-1.6053,-1.5927,-1.5394,0.0,-1.301,-1.2304,-1.1173,-1.0038,-0.913,-0.915,-0.934,-0.9727,-1.2813,-1.6008,-1.9229,-2.0256,-2.1609,-2.3398,-2.419,-2.5432,-2.7162,-2.591,-2.516,0.0,0.0,0.0,0.0,0.0,0.0,0.0,0.0,0.0,0.0,0.0,-2.3144,-2.3144,0.0,0.0,0.0,-1.8471,-1.6179,-1.642,-1.6967,0.0,0.0,0.0,0.0,0.0,0.0,0.0,-2.327,-2.1139,-1.9416,-1.9489,-1.9986,-2.0461,-2.0456,-1.925,-1.8945,-2.0447,0.0,-1.9164,-2.0856,-2.1866,-2.3764,-2.7548,-3.0504,-3.2375,-3.2356,-3.1544,-3.1033,-3.1285,-3.0622,-2.986,-2.9283,-2.8324,-2.7125,-2.5766,-2.4879,-2.3884,-2.3098,-2.2827,-2.2832,-2.2928,-2.3785,-2.4274,-1.9653,-1.9229,-1.739,-1.5682,-1.42,-1.2621,-1.2055,-1.1923,-1.0273,-1.0586,-1.2212,-1.169,-1.1845,-1.2358,-0.9939,0.0,-0.875,-0.8893,-0.9794,-1.126,-1.1363,-1.2235,-1.3635,-1.3125,-1.3125,-1.3831,-1.4708,-1.5399,-1.5896,-1.7226,-1.7742,-1.7221,-1.5769,-1.4174,-1.2628,-1.1572,-1.0466,-0.9257,-0.9157,-0.9415,-1.0066,-1.2885,-1.6031,-1.9243,-1.9372,-2.0816,-2.3615,-2.4281,-2.5523,-2.7563,-2.8153,-2.7511,-2.5543,0.0,0.0,0.0,0.0,0.0,0.0,0.0,0.0,0.0,0.0,0.0,0.0,0.0,0.0,-2.1046,-1.8358,0.0,-1.6873,-1.8311,0.0,0.0,0.0,-1.9983,-2.0043,-2.1877,-2.3128,-2.3237,0.0,0.0,-2.043,-1.9713,-1.969,-2.0482,-1.9186,-1.8726,-2.0394,-1.9462,-1.9127,-2.0803,-2.2981,-2.4983,-2.6957,-2.9355,-3.1204,-3.1604,-3.1074,-3.1035,-3.1384,-3.1151,-3.1132,-3.1035,-2.9766,-2.9067,-3.0596,-2.8202,-2.5778,-2.4169,-2.3769,-2.3632,-2.4039,-2.5304,-2.596,-1.976,-1.9666,-1.8945,-1.7724,-1.6192,-1.4555,-1.3976,-1.3839,-1.3268,-1.3595,-1.4756,-1.4657,-1.4004,-1.2989,-1.1648,-1.0296,-0.9049,-0.9083,-0.9898,-1.1372,-1.2488,-1.3096,-1.3525,-1.5386,-1.5719,-1.4786,-1.6262,-1.6987,-1.7145,-1.7477,-1.7742,-1.7809,-1.72,-1.5559,-1.286,-1.249,-1.1333,-0.915,-0.9157,-1.0547,-1.3208,-1.4084,-1.6093,-1.9359,-1.9372,-2.0816,-2.3727,-2.4298,-2.5628,-2.8058,-2.8917,-2.8879,-2.811,-2.7315,0.0,0.0,0.0,0.0,0.0,0.0,0.0,0.0,0.0,-2.3828,-2.3184,0.0,-2.3114,0.0,-2.0284,-1.8372,-1.8233,-1.8409,0.0,0.0,-2.1723,-2.2286,-2.3894,-2.4826,-2.5541,-2.5989,-2.668,-2.6921,-2.6252,-2.2199,-2.003,-2.1524,-1.9494,-1.8336,-1.9968,-1.9075,-1.886,-2.065,-2.2813,-2.4542,-2.543,-2.841,-3.1612,-3.3855,-3.2445,-3.1672,-3.3866,-3.3304,-3.253,-3.253,-3.2281,-3.1787,-3.1094,-3.0211,-2.9661,-2.9104,-2.8959,-2.9038,-2.8963,-2.7637,-2.6755,-1.9613,-1.9717,-1.9439,-1.8881,-1.7923,-1.6143,-1.5503,-1.5365,-1.431,-1.4593,-1.5692,-1.66,-1.5898,-1.4126,-1.2548,-1.1101,-1.0039,-1.0047,-1.0818,-1.2238,-1.3665,-1.4633,-1.5141,-1.6795,-1.6962,-1.5806,-1.6484,-1.7052,-1.7382,-1.7395,-1.7542,-1.7822,-1.7662,-1.6424,-1.4039,-1.3295,-1.2146,-1.0486,-0.9764,-1.1121,-1.4265,-1.4387,-1.6026,-1.9243,-1.9239,-2.0501,-2.348,-2.4199,-2.5681,-2.8194,-2.9157,-2.925,-2.8428,-3.0533,-3.0652,0.0,0.0,0.0,0.0,0.0,0.0,0.0,0.0,0.0,0.0,0.0,-2.3511,-2.4598,-2.1162,-1.8874,-1.9109,-1.9698,-2.0961,-2.2894,-2.3324,-2.3878,-2.5038,-2.5558,-2.5775,-2.5577,-2.7168,-2.8122,-2.7635,-2.4879,-2.2418,-2.1856,-2.0183,-1.9338,-1.976,-1.9415,-1.9347,-2.0358,-2.2795,-2.5222,-2.6468,-2.901,-3.1901,-3.4597,-3.5011,-3.5054,-3.5202,-3.4626,-3.4069,-3.4069,-3.4069,-3.369,-3.2478,-3.1411,-3.0932,-3.0935,-3.0873,-3.0917,-3.0859,-2.9469,-2.8832,-1.9372,-1.9372,-1.9372,-1.9372,-1.9229,-1.751,-1.6815,-1.6677,-1.5047,-1.4896,-1.5934,-1.7668,-1.7313,-1.5304,-1.3194,-1.1918,-1.1428,-1.1428,-1.2082,-1.3372,-1.477,-1.594,-1.6988,-1.736,-1.7184,-1.6714,-1.6095,-1.6238,-1.7088,-1.7128,-1.7301,-1.7569,-1.7582,-1.6948,-1.5684,-1.4137,-1.2802,-1.1661,-1.0405,-1.1272,-1.4356,-1.4316,-1.5798,-1.9216,-1.9078,-2.0215,-2.3026,-2.3921,-2.5593,-2.8048,-2.9104,-2.9106,-2.8005,-3.3307,-3.4943,0.0,-3.0074,0.0,0.0,0.0,0.0,0.0,0.0,0.0,0.0,-2.3306,-2.3909,-2.5218,-2.1569,-1.9231,-1.9668,-2.1318,-2.2911,-2.3927,-2.459,-2.5027,-2.5081,-2.539,-2.5308,-2.4429,-2.6654,-2.798,-2.7112,-2.6861,-2.5362,-2.2261,-2.1048,-2.0528,-2.0158,-2.0066,-2.0053,-2.0174,-2.2868,-2.5758,-2.8653,-3.0231,-3.1799,-3.4666,-3.7382,-3.8718,-3.63,-3.5681,-3.5617,-3.5617,-3.5617,-3.5199,-3.4142,-3.2727,-3.1564,-3.1071,-3.1281,-3.1485,-3.1052,-3.0798,-3.0879,-1.9372,-1.9372,-1.9372,-1.9372,-1.9345,-1.8695,-1.8451,-1.8425,-1.7802,-1.7418,-1.7197,-1.7596,-1.6881,-1.5411,-1.4973,-1.3997,-1.294,-1.2832,-1.3048,-1.3372,-1.477,-1.5506,-1.5753,-1.6497,-1.6767,-1.6687,-1.6124,-1.6163,-1.6794,-1.7034,-1.7301,-1.7582,-1.7582,-1.7596,-1.7378,0.0,0.0,0.0,-0.9683,-1.1264,-1.4651,-1.4629,-1.6093,-1.9243,-1.9078,0.0,-2.2683,-2.3651,-2.5208,-2.7727,-2.8965,0.0,-3.0392,0.0,0.0,0.0,0.0,0.0,0.0,0.0,0.0,0.0,-2.4877,-2.4023,-2.373,-2.4263,-2.439,-2.3692,-2.2811,-2.1599,-1.9892,-2.1752,-2.387,-2.5676,-2.5987,-2.6218,-2.6525,-2.666,-2.6879,-2.7486,-2.7998,-2.7958,-2.7143,-2.6418,-2.5441,-2.4034,-2.2097,-2.0743,-2.0681,-2.0219,-1.9867,-2.0118,-2.2767,-2.5804,-2.9128,-3.0247,-3.1478,-3.387,-3.7246,-3.9053,-3.8331,-3.7426,-3.7109,-3.7026,-3.7133,-3.6572,-3.5308,-3.5268,-3.4648,-3.1543,-3.2809,-3.3769,-3.1483,-3.0937,-3.0918,-1.9372,-1.9372,-1.9372,-1.9372,0.0,-1.9052,-1.8838,-1.8691,-1.8397,-1.8009,-1.7595,-1.7582,-1.7147,-1.6393,-1.5743,-1.4984,-1.4341,-1.4341,-1.4341,-1.4449,-1.5849,-1.6424,-1.6285,-1.6711,-1.6814,-1.6687,-1.6295,-1.6374,-1.6914,-1.7177,-1.7288,-1.7582,-1.7582,-1.7662,-1.7702,-1.4838,-1.2063,-0.9374,-0.9456,-1.1161,-1.461,-1.4548,-1.6026,-1.9229,-1.9078,0.0,0.0,0.0,0.0,0.0,0.0,0.0,0.0,-3.4193,-3.6406,-3.6628,-3.4644,-3.272,-3.1061,-2.9623,-2.8455,-2.7677,-2.6657,-2.5521,-2.4244,-2.4414,-2.4477,-2.4448,-2.4184,-2.3669,-2.2835,-2.316,-2.4165,-2.5799,-2.6074,-2.623,-2.6621,-2.6699,-2.6937,-2.7518,-2.768,-2.7357,-2.6458,-2.6034,-2.534,-2.4584,-2.3201,-2.207,-2.1573,-2.0288,-1.985,-2.1465,-2.2988,-2.5301,-2.8191,-2.9231,-3.0676,-3.3193,-3.614,-3.8059,-3.8866,-3.8534,-3.8264,-3.8509,-3.8558,-3.8243,-3.7737,-3.7833,-3.7519,-3.5553,-3.4096,-3.345,-3.2788,-3.1998,-3.0898,-1.9372,-1.9372,-1.9372,-1.9372,-1.9345,-1.9052,-1.8731,-1.8397,-1.8103,0.0,0.0,-1.7582,-1.7582,-1.7477,-1.6287,-1.5849,-1.5743,-1.5743,-1.5743,-1.5849,-1.7041,-1.7448,-1.7221,-1.7157,-1.7008,-1.6767,-1.6599,-1.6733,-1.723,-1.7257,-1.7301,-1.7555,-1.7582,-1.7477,-1.7041,-1.4567,-1.2146,-0.9903,-0.9607,-1.1177,-1.447,-1.4407,-1.5937,-1.9359,-1.9078,-2.0215,-2.2994,-2.3541,-2.4924,-2.7571,-2.8027,-2.8615,-2.9415,-3.365,-3.6648,-3.7839,-3.6609,-3.5357,-3.4241,-3.2755,-3.1008,-2.9307,-2.8633,-2.723,-2.4633,-2.4421,-2.4604,-2.5243,-2.4922,-2.5016,-2.5436,-2.4506,-2.4324,-2.5509,-2.5625,-2.5801,-2.6211,-2.6269,-2.6406,-2.6719,-2.6758,-2.652,-2.5814,-2.5756,-2.5339,-2.4574,-2.4068,-2.3683,-2.2511,-2.1008,-2.092,-2.3435,-2.3938,-2.485,-2.7521,-2.8346,-2.9655,-3.2713,-3.5004,-3.6853,-3.8214,-3.8642,-3.8919,-3.9318,-3.9546,-3.9469,-3.9569,-3.9556,-3.9692,-3.966,-3.5956,-3.3202,-3.5178,-3.4237,-3.2391,-1.9372,-1.9372,-1.9372,-1.9372,-1.9345,-1.9052,-1.8611,-1.809,-1.7782,-1.7622,-1.7582,-1.7582,-1.7582,-1.7582,-1.7371,-1.7252,-1.7252,-1.7252,-1.7252,-1.7252,-1.7477,-1.7569,-1.7502,-1.7558,-1.7422,-1.7177,-1.7008,-1.7049,-1.7217,-1.7257,-1.7301,-1.7555,-1.7582,-1.6935,-1.5636,-1.4126,-1.2512,-1.1077,-1.0018,-1.1168,-1.4697,-1.4687,-1.6105,-1.9229,-1.9078,-2.01,-2.2617,-2.3194,-2.4771,-2.7571,-2.8106,-2.834,-2.8591,-3.2723,-3.5955,-3.7808,-3.7379,-3.6438,-3.5326,-3.4117,-3.2418,-3.0303,-2.9959,-2.8348,-2.4776,-2.5288,-2.5189,-2.3725,-2.4117,-2.4512,-2.4531,-2.4404,-2.4656,-2.5117,-2.5176,-2.5352,-2.5801,-2.584,-2.5957,-2.5918,-2.5918,-2.5918,-2.5723,-2.5703,-2.5625,-2.5312,-2.4659,-2.3515,-2.2703,-2.2452,-2.326,-2.4555,-2.4373,-2.518,-2.758,-2.8301,-2.9615,-3.2002,-3.4737,-3.6609,-3.7442,-3.7864,-3.8341,-3.8919,-3.9044,-3.9195,-3.9572,-3.9747,-3.9661,-3.9618,-3.8369,-3.8168,-3.8694,-3.8154,-3.6632,-1.9372,-1.9372,-1.9372,-1.9372,-1.9332,-1.8878,-1.8343,-1.7796,-1.7649,-1.7582,-1.7582,-1.7582,-1.7582,-1.7582,-1.7582,-1.7582,-1.7582,-1.7582,-1.7582,-1.7582,-1.7582,-1.7582,-1.7555,-1.7509,-1.7351,-1.7355,-1.7203,-1.7203,-1.7355,-1.7382,-1.7448,-1.7582,-1.7582,-1.7252,-1.6499,-1.5198,-1.3738,-1.243,-1.1068,-1.1799,-1.4524,-1.5237,-1.6832,-1.9359,-2.0002,-2.1302,-2.3234,-2.4258,-2.5901,-2.7902,-2.8213,-2.8262,-2.8421,-3.2471,-3.6019,-3.8617,-3.8139,-3.7563,-3.7362,-3.5982,-3.4755,-3.3736,-3.243,-3.105,-2.926,-2.6622,-2.4642,-2.3306,-2.5015,-2.5599,-2.4004,-2.5185,-2.5852,-2.5173,-2.5273,-2.5796,-2.6532,-2.6764,-2.6506,-2.5879,-2.5704,-2.569,-2.5698,-2.5717,-2.572,-2.5684,-2.5118,-2.4505,-2.4053,-2.4561,-2.4927,-2.5108,-2.5715,-2.6717,-2.8008,-2.827,-3.0036,-3.3775,-3.5574,-3.6524,-3.7092,-3.7437,-3.7889,-3.8668,-3.8868,-3.9094,-3.9597,-3.9697,-3.9719,-3.9715,-3.971,-3.9755,-3.9742,-3.975,-3.7551,-1.9426,-1.9372,-1.9372,-1.9332,-1.9225,-1.8718,-1.8183,-1.7702,-1.7609,-1.7582,-1.7582,-1.7582,-1.7582,-1.7582,-1.7582,-1.7582,-1.7582,-1.7582,-1.7582,-1.7582,-1.7582,-1.7582,-1.7569,-1.7341,-1.7368,-1.7542,-1.7355,-1.7368,-1.7569,-1.7582,-1.7622,-1.7675,-1.7622,-1.7622,-1.7689,-1.6205,-1.477,-1.3588,-1.265,-1.2945,-1.428,-1.5736,-1.7407,-1.9332,-2.0816,-2.2251,-2.371,-2.5261,-2.6825,-2.8194,-2.8379,-2.8408,-2.8555,-3.2323,-3.6081,-3.9137,-3.8768,-3.854,-3.8941,-3.782,-3.7025,-3.7004,-3.5312,-3.3913,-3.2823,-2.9074,-2.5851,-2.5117,-2.7042,-2.759,-2.6182,-2.6466,-2.7033,-2.6072,-2.6088,-2.6763,-2.7819,-2.8049,-2.7649,-2.671,-2.6493,-2.6722,-2.7014,-2.6349,-2.567,-2.57,-2.5664,-2.5723,-2.5781,-2.6055,-2.5848,-2.5665,-2.6795,-2.7865,-2.8192,-2.8311,-3.0245,-3.4785,-3.5954,-3.6505,-3.6918,-3.6985,-3.7362,-3.8315,-3.8592,-3.8995,-3.9498,-3.975,-3.9697,-3.9747,-3.9644,-3.9747,-3.9694,-3.971,-3.8562,-1.973,-1.9386,-1.9372,-1.9212,-1.8945,-1.8624,-1.8303,-1.7983,-1.7716,-1.7582,-1.7595,-1.7582,-1.7595,-1.7582,-1.7582,-1.7582,-1.7582,-1.7582,-1.7582,-1.7582,-1.7582,-1.7582,-1.7582,-1.7555,-1.7555,-1.7582,-1.7542,-1.7542,-1.7582,-1.7582,-1.7716,-1.7943,-1.7729,-1.7729,-1.7714,-1.6304,-1.5186,-1.4618,-1.4888,-1.4713,-1.4272,-1.5646,-1.7407,-1.9359,-2.0802,-2.2251,-2.3822,-2.5261,-2.6825,-2.8213,-2.8652,-2.8613,-2.8668,-3.1847,-3.5573,-3.9283,-3.9068,-3.9092,-3.9625,-3.904,-3.8698,-3.8745,-3.8059,-3.63,-3.3566,-3.2598,-3.1365,-2.9839,-2.9526,-3.0265,-3.1709,-2.9369,-2.7832,-2.8074,-2.7898,-2.8144,-2.9034,-2.9235,-2.919,-2.9145,-2.9012,-2.9851,-3.0997,-2.8462,-2.593,-2.571,-2.5836,-2.582,-2.5742,-2.5801,-2.5859,-2.572,-2.6562,-2.7329,-2.789,-2.8327,-2.9722,-3.2398,-3.4909,-3.6186,-3.6543,-3.6533,-3.6804,-3.766,-3.7914,-3.8516,-3.9373,-3.9676,-3.9697,-3.9697,-3.9697,-3.9697,-3.9697,-3.9669,-3.8981,-1.9573,-1.9469,-1.9426,-1.9199,-1.8918,-1.8798,-1.8477,-1.805,-1.7916,-1.7862,-1.7862,-1.7849,-1.7756,-1.7595,-1.7582,-1.7582,-1.7582,-1.7582,-1.7582,-1.7582,-1.7582,-1.7582,-1.7582,-1.7582,-1.7582,-1.7582,-1.7582,-1.7582,-1.7582,-1.7582,-1.7649,-1.7742,-1.7635,-1.7742,-1.7888,-1.7077,-1.6123,-1.5155,-1.6123,-1.6018,-1.4889,-1.6546,-1.8184,-1.9537,-2.1699,-2.3151,-2.3933,-2.6045,-2.7726,-2.8301,-2.8457,-2.8691,-2.9086,-3.1801,-3.4682,-3.7472,-3.8463,-3.9344,-4.0237,-4.0139,-3.9974,-4.0019,-3.9557,-3.8224,-3.6141,-3.4202,-3.3642,-3.4977,-3.3257,-3.1712,-3.1221,-3.0154,-2.9473,-2.8969,-2.8813,-2.9218,-3.0325,-3.0508,-3.0687,-3.1424,-3.1601,-3.1841,-3.234,-3.0125,-2.7487,-2.6276,-2.6235,-2.6552,-2.5917,-2.5723,-2.5723,-2.5781,-2.6074,-2.6284,-2.6827,-2.7772,-2.9352,-3.186,-3.4581,-3.6308,-3.6368,-3.6383,-3.6679,-3.7379,-3.7613,-3.8191,-3.9474,-3.9651,-3.9697,-3.9697,-3.9697,-3.9697,-3.9697,-3.9697,-3.974,-1.9548,-1.9483,-1.9479,-1.9252,-1.9038,-1.8958,-1.8677,-1.8303,-1.821,-1.817,-1.817,-1.817,-1.805,-1.7849,-1.7756,-1.7742,-1.7809,-1.7742,-1.7756,-1.7809,-1.7756,-1.7716,-1.7702,-1.7622,-1.7622,-1.7702,-1.7835,-1.7875,-1.7822,-1.7836,-1.7876,-1.7929,-1.7876,-1.7943,-1.8103,-1.7862,-1.7103,-1.6174,-1.7013,-1.6932,-1.597,-1.7508,-1.8731,-1.953,-2.222,-2.3822,-2.3822,-2.6717,-2.8301,-2.8301,-2.8496,-2.877,-2.9273,-3.1758,-3.4406,-3.6614,-3.8165,-3.9446,-4.0552,-4.101,-4.1314,-4.1369,-4.1111,-4.0491,-3.9144,-3.6552,-3.625,-3.8408,-3.6579,-3.3959,-3.1748,-3.1638,-3.1279,-3.0173,-3.0117,-3.0589,-3.1553,-3.1689,-3.2064,-3.2982,-3.2896,-3.3107,-3.2783,-3.121,-2.9284,-2.8413,-2.8036,-2.7694,-2.6572,-2.6284,-2.6207,-2.582,-2.5664,-2.5762,-2.5863,-2.7168,-2.9352,-3.1882,-3.4557,-3.6332,-3.6418,-3.6408,-3.6383,-3.6956,-3.7217,-3.804,-3.9321,-3.9702,-3.9697,-3.9697,-3.9697,-3.9697,-3.9697,-3.9697,-3.9697,-2.004,-1.9773,-1.9492,-1.9372,-1.9319,-1.9052,-1.8918,-1.8798,-1.8584,-1.8477,-1.8464,-1.8477,-1.8464,-1.8424,-1.817,-1.8183,-1.837,-1.8143,-1.8156,-1.8357,-1.8143,-1.8023,-1.8009,-1.7729,-1.7742,-1.8009,-1.8279,-1.8401,-1.8397,-1.8534,-1.8597,-1.8798,-1.8628,-1.8547,-1.8534,-1.8143,-1.7782,-1.7516,-1.753,-1.7516,-1.7456,-1.811,-1.8637,-1.9172,-2.2096,-2.3822,-2.4156,-2.6717,-2.8301,-2.8301,-2.9004,-2.9121,-2.8799,-3.1784,-3.5015,-3.7543,-3.8517,-3.9346,-4.0481,-4.1639,-4.2528,-4.3053,-4.2927,-4.3027,-4.2456,-4.032,-3.9282,-3.9473,-3.9325,-3.781,-3.5354,-3.3979,-3.3354,-3.2782,-3.2287,-3.2336,-3.2846,-3.281,-3.2982,-3.3068,-3.3093,-3.3119,-3.3032,-3.1977,-3.168,-3.1532,-3.0649,-2.8866,-2.7861,-2.7505,-2.7125,-2.63,-2.5873,-2.5737,-2.5935,-2.6783,-2.8994,-3.1873,-3.4299,-3.6356,-3.6378,-3.6383,-3.6408,-3.6634,-3.724,-3.8015,-3.9216,-3.9752,-3.9649,-3.9697,-3.9697,-3.9697,-3.9697,-3.9697,-3.9697,-1.9786,-1.9533,-1.9613,-1.9533,-1.9359,-1.9252,-1.9105,-1.8918,-1.8811,-1.8758,-1.8758,-1.8771,-1.8878,-1.9038,-1.8744,-1.8557,-1.8477,-1.837,-1.8397,-1.8477,-1.8384,-1.833,-1.8317,-1.8087,-1.8087,-1.8317,-1.8577,-1.8631,-1.8685,-1.9442,-1.9924,-1.9996,-1.9938,-1.9952,-1.9928,-1.87,-1.8048,-1.811,-1.7782,-1.7809,-1.8154,-1.8424,-1.8637,-1.9018,-2.2081,-2.3822,-2.3822,-2.6717,-2.8301,-2.8301,-2.8848,-2.9183,-2.9581,-3.3109,-3.6165,-3.7792,-3.8216,-3.8818,-3.9929,-4.1176,-4.2168,-4.2747,-4.32,-4.3378,-4.3197,-4.2446,-4.1911,-4.1833,-4.1882,-4.0911,-3.8734,-3.6171,-3.4357,-3.4017,-3.3293,-3.2817,-3.3018,-3.3093,-3.3093,-3.3093,-3.3093,-3.3093,-3.2982,-3.2698,-3.2611,-3.2867,-3.1598,-3.017,-2.9143,-2.8773,-2.8495,-2.7921,-2.6796,-2.6279,-2.7998,-2.6921,-2.7835,-3.1412,-3.4288,-3.5819,-3.6363,-3.6383,-3.6408,-3.6609,-3.7165,-3.8189,-3.9344,-3.9677,-3.9725,-3.9697,-3.9697,-3.9697,-3.9697,-3.9697,-3.9697,-1.9773,-1.9559,-1.972,-1.9626,-1.9386,-1.9466,-1.9345,-1.9078,-1.9065,-1.9065,-1.8951,-1.9065,-1.9185,-1.9319,-1.9158,-1.8971,-1.8771,-1.8691,-1.8677,-1.8758,-1.8677,-1.8624,-1.8611,-1.8419,-1.8531,-1.8637,-1.887,-1.9332,-2.0183,-2.0707,-2.1243,-2.1697,-2.1682,-2.1728,-2.1555,-2.0004,-1.8892,-1.838,-1.8008,-1.809,-1.845,-1.8584,-1.8718,-1.9371,-2.2096,-2.3822,-2.3822,-2.6735,-2.8301,-2.834,-2.8691,-2.9499,-3.0874,-3.4647,-3.7216,-3.7941,-3.8191,-3.8693,-3.9726,-4.0818,-4.1994,-4.2736,-4.3409,-4.3774,-4.3842,-4.3539,-4.3356,-4.3301,-4.332,-4.2694,-4.1224,-3.8432,-3.6035,-3.5133,-3.3828,-3.3179,-3.3093,-3.3093,-3.3093,-3.3093,-3.3093,-3.3093,-3.3093,-3.3068,-3.3133,-3.3146,-3.2323,-3.1335,-3.0328,-2.9943,-2.9761,-2.9351,-2.8043,-2.7817,-2.9326,-2.9639,-3.0019,-3.3149,-3.4607,-3.5883,-3.6433,-3.6383,-3.6458,-3.6589,-3.7262,-3.8437,-3.912,-3.9575,-3.9699,-3.9672,-3.9697,-3.9697,-3.9697,-3.9697,-3.9697,-2.0067,-1.98,-1.9813,-1.9666,-1.9426,-1.9639,-1.9613,-1.9359,-1.9332,-1.9319,-1.9305,-1.9345,-1.9332,-1.9359,-1.9332,-1.9332,-1.9252,-1.9038,-1.9052,-1.9239,-1.9038,-1.8931,-1.8918,-1.904,-1.9277,-1.9371,-1.9428,-2.1001,-2.3182,-2.2479,-2.2607,-2.355,-2.3723,-2.3574,-2.3419,-2.1806,-1.99,-1.8413,-1.822,-1.8464,-1.8531,-1.8771,-1.9018,-1.9412,-2.2224,-2.3822,-2.3933,-2.6735,-2.8301,-2.834,-2.8691,-3.0166,-3.2663,-3.5963,-3.7959,-3.8091,-3.8517,-3.9094,-3.9699,-4.0743,-4.1887,-4.2931,-4.3941,-4.4413,-4.5043,-4.4228,-4.3426,-4.3299,-4.3289,-4.3193,-4.2857,-4.0871,-3.8412,-3.5995,-3.4392,-3.3427,-3.323,-3.3093,-3.3093,-3.3093,-3.3093,-3.3093,-3.3093,-3.3093,-3.3119,-3.3032,-3.2921,-3.25,-3.1512,-3.1223,-3.0687,-2.9988,-2.9646,-2.9869,-3.1347,-3.2852,-3.39,-3.5102,-3.563,-3.6433,-3.6408,-3.6383,-3.6413,-3.6568,-3.7786,-3.8842,-3.9373,-3.9725,-3.975,-3.9697,-3.9697,-3.9697,-3.9697,-3.9697,-3.9697,-2.0428,-1.988,-2.0241,-2.0,-1.9452,-1.9679,-1.9639,-1.9372,-1.9372,-1.9372,-1.9372,-1.9372,-1.9372,-1.9372,-1.9372,-1.9372,-1.9359,-1.9265,-1.9279,-1.9345,-1.9265,-1.9212,-1.9415,-2.0231,-2.1249,-2.2112,-2.2317,-2.283,-2.3822,-2.4378,-2.5041,-2.5261,-2.5388,-2.5318,-2.5068,-2.2529,-2.0323,-1.9054,-1.8557,-1.8664,-1.9025,-1.8971,-1.9453,-2.087,-2.2767,-2.4267,-2.5371,-2.7295,-2.8301,-2.8301,-2.8691,-3.0166,-3.3005,-3.6143,-3.7952,-3.8091,-3.8542,-3.912,-3.9597,-4.0083,-4.0945,-4.1977,-4.2763,-4.4271,-4.6109,-4.5471,-4.4311,-4.3523,-4.3328,-4.3339,-4.3011,-4.1645,-3.9634,-3.7537,-3.588,-3.441,-3.3669,-3.3269,-3.3119,-3.3093,-3.3093,-3.3093,-3.3093,-3.3093,-3.3093,-3.3093,-3.3093,-3.281,-3.2636,-3.24,-3.2525,-3.204,-3.1918,-3.1616,-3.2455,-3.3424,-3.4504,-3.547,-3.6049,-3.6383,-3.6358,-3.6408,-3.6463,-3.7064,-3.8164,-3.8894,-3.9421,-3.9697,-3.9697,-3.9697,-3.9697,-3.9697,-3.9697,-3.9697,-3.9697,-2.0628,-2.0187,-2.0521,-2.0307,-1.9733,-1.9893,-1.98,-1.9533,-1.9412,-1.9372,-1.9372,-1.9372,-1.9372,-1.9475,-1.9924,-1.9924,-1.9475,-1.9924,-1.9924,-1.9591,-2.004,-1.9924,-1.9707,-2.0916,-2.2702,-2.4267,-2.4044,-2.4378,-2.5498,-2.5827,-2.6372,-2.6825,-2.6933,-2.6933,-2.6698,-2.4377,-2.2371,-2.11,-2.02,-1.9611,-1.9374,-1.9145,-1.9946,-2.1556,-2.3039,-2.4488,-2.6045,-2.7511,-2.8379,-2.8516,-2.8641,-2.9992,-3.2485,-3.5864,-3.8038,-3.8311,-3.8842,-3.9346,-3.9647,-3.98,-4.0262,-4.1439,-4.2385,-4.4152,-4.6429,-4.6364,-4.5574,-4.4982,-4.3842,-4.3337,-4.3099,-4.2444,-4.1001,-3.9562,-3.701,-3.5182,-3.3857,-3.3294,-3.3093,-3.3093,-3.3107,-3.3107,-3.3119,-3.3133,-3.3107,-3.3119,-3.3093,-3.3219,-3.3294,-3.3395,-3.337,-3.3308,-3.292,-3.2793,-3.3044,-3.3906,-3.4876,-3.5679,-3.6278,-3.637,-3.6402,-3.6477,-3.6508,-3.761,-3.8766,-3.8868,-3.9343,-3.9622,-3.9697,-3.9697,-3.9697,-3.9697,-3.9697,-3.9697,-3.9697,-2.0695,-2.0668,-2.0695,-2.0521,-2.0201,-2.0201,-2.004,-1.976,-1.9492,-1.9372,-1.9372,-1.9372,-1.9604,-2.0053,-2.106,-2.0816,-2.004,-2.0816,-2.0816,-2.0385,-2.096,-2.1203,-2.0155,-2.1417,-2.344,-2.5371,-2.4923,-2.5789,-2.7638,-2.7008,-2.6952,-2.796,-2.8067,-2.8281,-2.7726,-2.6698,-2.5121,-2.4014,-2.2352,-2.0771,-1.9521,-1.9354,-2.0242,-2.1813,-2.3151,-2.4599,-2.6391,-2.7733,-2.8594,-2.8739,-2.8578,-2.956,-3.2017,-3.5709,-3.7839,-3.8472,-3.9237,-3.9544,-3.9697,-3.9697,-4.0185,-4.1219,-4.2447,-4.4387,-4.621,-4.6815,-4.7001,-4.6756,-4.5072,-4.3664,-4.3486,-4.3269,-4.26,-4.127,-3.7977,-3.5267,-3.3512,-3.3179,-3.3119,-3.3082,-3.3109,-3.3283,-3.3431,-3.3371,-3.3109,-3.3133,-3.3144,-3.3294,-3.3646,-3.3771,-3.3847,-3.3695,-3.338,-3.3504,-3.3529,-3.4751,-3.5679,-3.589,-3.643,-3.6463,-3.6528,-3.6558,-3.681,-3.801,-3.8943,-3.9044,-3.9243,-3.9597,-3.9697,-3.9697,-3.9697,-3.9697,-3.9697,-3.9697,-3.9669,-2.0869,-2.0708,-2.0909,-2.0695,-2.0267,-2.0241,-2.0067,-1.9786,-1.9492,-1.9372,-1.9372,-1.9372,-2.0571,-2.2497,-2.1888,-2.1926,-2.2266,-2.1926,-2.1472,-2.1402,-2.2871,-2.2694,-2.169,-2.2855,-2.4536,-2.6062,-2.7271,-2.81,-2.8252,-2.8141,-2.8141,-2.8301,-2.834,-2.832,-2.8067,-2.6881,-2.6573,-2.6409,-2.3295,-2.1028,-1.9763,-1.9483,-2.0702,-2.3039,-2.3615,-2.5168,-2.746,-2.8687,-2.9101,-2.8965,-2.9119,-3.0008,-3.1826,-3.4594,-3.7121,-3.8502,-3.924,-3.9697,-3.9697,-3.9697,-3.9878,-4.0262,-4.1518,-4.2819,-4.4387,-4.6301,-4.7051,-4.7212,-4.6515,-4.5364,-4.3953,-4.3767,-4.3116,-4.1035,-3.8338,-3.587,-3.4517,-3.3556,-3.3082,-3.3134,-3.317,-3.3947,-3.4679,-3.4212,-3.3319,-3.3258,-3.3283,-3.337,-3.3947,-3.4098,-3.4173,-3.3845,-3.3643,-3.3841,-3.428,-3.5511,-3.6252,-3.62,-3.6377,-3.6377,-3.6609,-3.6839,-3.7362,-3.8164,-3.8869,-3.9143,-3.9368,-3.9672,-3.9697,-3.9697,-3.9697,-3.9697,-3.9697,-3.9697,-3.9665,-2.1015,-2.0869,-2.1042,-2.0922,-2.0575,-2.0334,-2.0134,-1.992,-1.9546,-1.9372,-1.9372,-1.9372,-2.1061,-2.3488,-2.2925,-2.2927,-2.3599,-2.2927,-2.2589,-2.2733,-2.3682,-2.4394,-2.4851,-2.5787,-2.6317,-2.753,-2.8853,-2.9147,-2.8906,-2.8906,-2.8848,-2.8828,-2.8652,-2.8652,-2.8867,-2.8153,-2.7748,-2.7729,-2.5207,-2.2974,-2.1384,-2.0573,-2.2024,-2.3966,-2.4513,-2.5558,-2.843,-2.9473,-2.9707,-2.9609,-2.9902,-3.0585,-3.165,-3.5173,-3.7678,-3.9044,-3.9461,-3.9697,-3.9697,-3.9697,-3.9697,-3.9878,-4.0844,-4.2155,-4.3709,-4.5809,-4.7259,-4.7276,-4.7267,-4.6461,-4.5334,-4.4676,-4.3448,-4.1682,-3.9558,-3.7533,-3.5721,-3.4075,-3.328,-3.3258,-3.3959,-3.4832,-3.6315,-3.5111,-3.4474,-3.4134,-3.4022,-3.4223,-3.455,-3.4525,-3.4525,-3.4295,-3.4164,-3.4255,-3.4612,-3.5604,-3.6311,-3.6377,-3.6452,-3.6358,-3.6684,-3.7039,-3.7786,-3.8414,-3.8995,-3.9396,-3.9572,-3.9697,-3.9697,-3.9697,-3.9697,-3.9697,-3.9697,-4.0181,-4.0099,-2.1109,-2.1096,-2.1109,-2.1109,-2.1002,-2.0535,-2.0294,-2.0174,-1.9733,-1.9479,-1.9452,-1.9685,-2.1639,-2.3878,-2.4248,-2.4306,-2.4641,-2.4502,-2.439,-2.4423,-2.4845,-2.5969,-2.8729,-2.7409,-2.775,-2.8783,-2.9478,-2.9629,-2.9453,-2.918,-2.9258,-2.9316,-2.9121,-2.9199,-2.9355,-2.9361,-2.9186,-2.8454,-2.716,-2.5569,-2.3966,-2.2941,-2.3505,-2.5558,-2.5881,-2.678,-2.8971,-2.9961,-3.0176,-3.0254,-3.0715,-3.0833,-3.1687,-3.6314,-3.8791,-3.9188,-3.9396,-3.9697,-3.9697,-3.9697,-3.9697,-3.9878,-4.0743,-4.1985,-4.3232,-4.5202,-4.6661,-4.7257,-4.7302,-4.7087,-4.6665,-4.5387,-4.4077,-4.2713,-4.1602,-3.9896,-3.7389,-3.4855,-3.3326,-3.3195,-3.4894,-3.5865,-3.6328,-3.6393,-3.6024,-3.471,-3.4625,-3.465,-3.4926,-3.5077,-3.5152,-3.5136,-3.4959,-3.4854,-3.5189,-3.5644,-3.6107,-3.6358,-3.6452,-3.6408,-3.6563,-3.7136,-3.818,-3.8914,-3.9247,-3.9523,-3.9622,-3.9697,-3.9697,-3.9697,-3.9697,-3.9697,-3.9747,-4.0667,-4.0946,-2.1109,-2.1109,-2.1109,-2.1109,-2.1056,-2.0735,-2.0575,-2.0535,-2.0187,-1.9761,-1.9878,-2.1199,-2.296,-2.4889,-2.5935,-2.7209,-2.7716,-2.7042,-2.6786,-2.7053,-2.6636,-2.8063,-2.9661,-2.8403,-2.7614,-2.8331,-2.9834,-3.0234,-2.9785,-2.9785,-2.9785,-2.959,-2.9551,-2.9473,-2.9609,-2.9687,-2.9682,-2.9342,-2.8052,-2.7019,-2.6275,-2.5104,-2.5188,-2.6947,-2.7865,-2.8823,-2.9734,-3.0156,-3.0371,-3.0644,-3.0858,-3.0895,-3.16,-3.4403,-3.6656,-3.7738,-3.8988,-3.9697,-3.9697,-3.9697,-3.9697,-3.98,-4.0083,-4.0642,-4.1887,-4.3396,-4.5239,-4.6663,-4.7286,-4.707,-4.6556,-4.5747,-4.4736,-4.3967,-4.3507,-4.2591,-4.0406,-3.7165,-3.4995,-3.3809,-3.372,-3.4527,-3.6134,-3.6386,-3.6033,-3.5378,-3.5203,-3.5077,-3.5278,-3.5579,-3.5655,-3.573,-3.5737,-3.5531,-3.5456,-3.5769,-3.6182,-3.6578,-3.6628,-3.6413,-3.6543,-3.7362,-3.8412,-3.9068,-3.9474,-3.9676,-3.9672,-3.9697,-3.9697,-3.9697,-3.9697,-3.9747,-4.0002,-4.0974,-4.1744,-2.1109,-2.1109,-2.1109,-2.1109,-2.1056,-2.0802,-2.0668,-2.0615,-2.0361,-2.0147,-2.028,-2.1947,-2.3826,-2.5869,-2.6875,-2.8163,-2.9215,-2.8766,-2.8029,-2.793,-2.8029,-2.9336,-3.0374,-2.9565,-2.8765,-2.9125,-3.0142,-3.0547,-3.0332,-3.0176,-3.0176,-3.0156,-2.998,-3.0039,-3.0156,-3.0156,-3.0231,-3.0207,-2.9316,-2.8596,-2.8219,-2.7007,-2.6539,-2.77,-2.907,-3.0059,-3.0488,-3.0527,-3.0664,-3.082,-3.0898,-3.0917,-3.1391,-3.3604,-3.5595,-3.6796,-3.8558,-3.9594,-3.9697,-3.9697,-3.9697,-3.9697,-3.9697,-4.0465,-4.1115,-4.1843,-4.3654,-4.6235,-4.7259,-4.705,-4.6386,-4.6082,-4.5484,-4.4885,-4.4496,-4.3894,-4.2655,-4.0544,-3.7745,-3.5678,-3.4894,-3.5319,-3.6008,-3.6354,-3.6294,-3.5855,-3.5855,-3.5755,-3.578,-3.6031,-3.6006,-3.6081,-3.6207,-3.6113,-3.5843,-3.5987,-3.6257,-3.6653,-3.7001,-3.6784,-3.6571,-3.7565,-3.8742,-3.9272,-3.9626,-3.9624,-3.9697,-3.9697,-3.9697,-3.9697,-3.9722,-3.9669,-4.0203,-4.1279,-4.1996,-2.1109,-2.1109,-2.1109,-2.1109,-2.1069,-2.0855,-2.0762,-2.0708,-2.0481,-2.0523,-2.0956,-2.2362,-2.4768,-2.6685,-2.7791,-2.8729,-2.9427,-2.9707,-2.8994,-2.8536,-2.9107,-2.9967,-3.0625,-3.0431,-3.0219,-3.0859,-3.0879,-3.082,-3.0723,-3.0547,-3.0527,-3.0742,-3.0508,-3.0469,-3.0781,-3.0859,-3.0799,-3.0679,-3.0332,-3.0101,-2.9867,-2.8613,-2.8284,-2.8816,-2.9604,-3.0449,-3.0742,-3.084,-3.0879,-3.0898,-3.0898,-3.0898,-3.1556,-3.3035,-3.5356,-3.6264,-3.8152,-3.9258,-3.9594,-3.9697,-3.9697,-3.9697,-3.9697,-4.0185,-4.0741,-4.0676,-4.192,-4.4499,-4.6189,-4.711,-4.6535,-4.6501,-4.6142,-4.5574,-4.4915,-4.4616,-4.4295,-4.3834,-4.1194,-3.8596,-3.6556,-3.6044,-3.6243,-3.643,-3.642,-3.6358,-3.6358,-3.6358,-3.6358,-3.6358,-3.6257,-3.6232,-3.6307,-3.6358,-3.6182,-3.6088,-3.6383,-3.7001,-3.74,-3.7211,-3.6945,-3.7866,-3.8869,-3.9399,-3.9702,-3.9699,-3.9697,-3.9697,-3.9697,-3.9697,-3.9694,-3.9715,-4.053,-4.169,-4.2195,-2.1109,-2.1109,-2.1109,-2.1109,-2.1096,-2.1056,-2.1015,-2.1029,-2.0949,-2.0953,-2.141,-2.4115,-2.6081,-2.7529,-2.9559,-3.0413,-3.043,-3.0234,-3.0025,-2.993,-3.0139,-3.0449,-3.0742,-3.0781,-3.0801,-3.0859,-3.0898,-3.0898,-3.0898,-3.082,-3.0781,-3.0859,-3.0781,-3.084,-3.0859,-3.0898,-3.0859,-3.0878,-3.0703,-3.0644,-3.047,-3.0316,-2.9968,-3.0102,-3.0568,-3.0762,-3.084,-3.0898,-3.0898,-3.0898,-3.0898,-3.0898,-3.1073,-3.158,-3.3162,-3.5244,-3.7203,-3.8582,-3.9465,-3.9697,-3.9697,-3.9697,-3.9697,-3.9697,-3.9956,-4.0004,-4.086,-4.2383,-4.5306,-4.7165,-4.7189,-4.704,-4.68,-4.6322,-4.5963,-4.5663,-4.5155,-4.4452,-4.3589,-4.1311,-3.8863,-3.6367,-3.6442,-3.6447,-3.6438,-3.6402,-3.6358,-3.6358,-3.6358,-3.6358,-3.6332,-3.6332,-3.6358,-3.6358,-3.6332,-3.6358,-3.6603,-3.74,-3.7876,-3.8035,-3.7891,-3.8367,-3.9045,-3.9474,-3.9676,-3.975,-3.9697,-3.9697,-3.9747,-3.9694,-3.974,-3.9705,-4.0827,-4.1935,-4.2525,-2.1109,-2.1109,-2.1109,-2.1109,-2.1109,-2.1109,-2.1109,-2.1109,-2.1096,-2.1042,-2.2089,-2.4454,-2.6315,-2.7382,-2.9747,-3.0781,-3.0547,-3.0605,-3.0547,-3.0547,-3.0547,-3.0644,-3.0879,-3.0898,-3.0898,-3.0898,-3.0898,-3.0898,-3.0898,-3.0879,-3.0898,-3.0898,-3.0898,-3.0898,-3.0898,-3.0898,-3.0898,-3.0898,-3.0898,-3.0898,-3.0898,-3.0898,-3.0898,-3.0898,-3.0898,-3.0898,-3.0898,-3.0898,-3.0898,-3.0898,-3.0898,-3.0898,-3.0956,-3.1186,-3.1901,-3.4295,-3.6287,-3.8137,-3.9362,-3.9697,-3.9697,-3.9697,-3.9722,-3.9697,-3.975,-3.9956,-4.0728,-4.3231,-4.3906,-4.6403,-4.7163,-4.7309,-4.713,-4.686,-4.6561,-4.6202,-4.5813,-4.5214,-4.4489,-4.3685,-4.1709,-3.9114,-3.6444,-3.6453,-3.643,-3.6395,-3.6427,-3.6358,-3.6358,-3.6358,-3.6358,-3.6452,-3.6452,-3.6477,-3.6502,-3.6483,-3.6784,-3.7678,-3.843,-3.8464,-3.8567,-3.8944,-3.922,-3.9574,-3.9725,-3.9798,-3.9697,-3.9697,-3.9694,-3.9715,-3.9835,-4.0209,-4.1304,-4.2175,-4.2789,-2.1109,-2.1109,-2.1109,-2.1109,-2.1109,-2.1109,-2.1109,-2.1109,-2.1109,-2.1096,-2.1475,-2.4039,-2.5757,-2.7004,-2.9157,-3.0703,-3.0371,-3.0742,-3.0664,-3.0547,-3.0703,-3.0879,-3.0898,-3.0898,-3.0898,-3.0898,-3.0898,-3.0898,-3.0898,-3.0898,-3.0898,-3.0898,-3.0898,-3.0898,-3.0898,-3.0898,-3.0898,-3.0898,-3.0898,-3.0898,-3.0898,-3.0898,-3.0898,-3.0898,-3.0898,-3.0898,-3.0898,-3.0898,-3.0898,-3.0918,-3.0957,-3.0879,-3.0879,-3.0879,-3.1612,-3.3343,-3.5677,-3.7536,-3.8816,-3.9873,-3.9948,-3.9948,-3.9998,-3.9998,-3.9851,-4.0211,-4.1145,-4.4649,-4.5631,-4.5367,-4.6491,-4.7106,-4.7279,-4.7189,-4.683,-4.6501,-4.6352,-4.5963,-4.5394,-4.4585,-4.3779,-4.2024,-3.9407,-3.6456,-3.6437,-3.642,-3.6358,-3.6358,-3.6358,-3.6358,-3.6452,-3.6546,-3.6572,-3.6597,-3.6553,-3.6368,-3.6939,-3.7789,-3.8639,-3.917,-3.9247,-3.932,-3.9521,-3.975,-3.9923,-4.0023,-3.9873,-3.9694,-3.9715,-3.981,-4.0084,-4.0846,-4.1998,-4.2815,-4.3397,-2.1109,-2.1109,-2.1109,-2.1109,-2.1109,-2.1109,-2.1109,-2.1109,-2.1109,-2.1109,-2.1235,-2.3076,-2.5226,-2.7488,-2.9724,-3.0743,-3.082,-3.082,-3.084,-3.0762,-3.084,-3.0898,-3.0898,-3.0898,-3.0898,-3.0898,-3.0898,-3.0898,-3.0898,-3.0898,-3.0898,-3.0898,-3.0898,-3.0898,-3.0898,-3.0898,-3.0898,-3.0898,-3.0898,-3.0898,-3.0898,-3.0898,-3.0898,-3.0898,-3.0898,-3.0898,-3.0898,-3.0898,-3.0898,-3.0918,-3.0936,-3.0934,-3.0972,-3.0972,-3.0937,-3.1937,-3.3759,-3.6162,-3.7916,-3.942,-4.04,-4.0475,-4.0752,-4.0802,-4.03,-4.0007,-4.0256,-4.027,-4.2912,-4.4915,-4.584,-4.6726,-4.7106,-4.7309,-4.716,-4.707,-4.701,-4.6621,-4.6082,-4.5783,-4.5084,-4.4203,-4.242,-3.9132,-3.6376,-3.6362,-3.6477,-3.6477,-3.6433,-3.6458,-3.6653,-3.6799,-3.6868,-3.6919,-3.6584,-3.6468,-3.724,-3.8041,-3.8843,-3.9651,-3.9575,-3.9521,-3.9597,-3.9772,-4.0074,-4.0224,-4.0203,-3.9944,-3.9835,-4.0259,-4.1046,-4.1922,-4.2747,-4.3406,-4.3953,-2.1109,-2.1109,-2.1109,-2.1109,-2.1109,-2.1109,-2.1109,-2.1109,-2.1109,-2.1109,-2.1475,-2.2827,-2.5194,-2.7917,-3.0058,-3.0898,-3.0898,-3.0898,-3.0898,-3.0898,-3.0898,-3.0898,-3.0898,-3.0898,-3.0898,-3.0898,-3.0898,-3.0898,-3.0898,-3.0898,-3.0898,-3.0898,-3.0898,-3.0898,-3.0898,-3.0898,-3.0898,-3.0898,-3.0898,-3.0898,-3.0898,-3.0898,-3.0898,-3.0898,-3.0898,-3.0898,-3.0898,-3.0898,-3.0898,-3.0957,-3.0955,-3.0914,-3.1013,-3.1309,-3.1446,-3.1208,-3.3711,-3.6082,-3.7905,-3.948,-4.0439,-4.0953,-4.1153,-4.0871,-4.032,-4.0102,-3.9956,-3.9818,-4.2426,-4.4237,-4.536,-4.655,-4.7019,-4.7309,-4.7309,-4.7309,-4.7279,-4.713,-4.677,-4.6616,-4.6346,-4.5513,-4.4355,-4.1243,-3.8469,-3.7794,-3.751,-3.7108,-3.6969,-3.6734,-3.693,-3.7152,-3.7222,-3.7292,-3.6739,-3.645,-3.7565,-3.8391,-3.9045,-3.9677,-3.9726,-3.9672,-3.9722,-3.9873,-4.0174,-4.0249,-4.0379,-4.0345,-4.012,-4.1197,-4.2334,-4.2874,-4.3441,-4.3914,-4.4409,-2.1109,-2.1109,-2.1109,-2.1109,-2.1109,-2.1109,-2.1109,-2.1109,-2.1109,-2.1109,-2.1727,-2.3479,-2.5928,-2.7931,-2.9785,-3.0898,-3.0898,-3.0898,-3.0898,-3.0898,-3.0898,-3.0898,-3.0898,-3.0898,-3.0898,-3.0898,-3.0898,-3.0898,-3.0898,-3.0898,-3.0898,-3.0898,-3.0898,-3.0898,-3.0898,-3.0898,-3.0898,-3.0898,-3.0898,-3.0898,-3.0898,-3.0898,-3.0898,-3.0898,-3.0898,-3.0898,-3.0898,-3.0898,-3.0898,-3.0957,-3.0955,-3.0972,-3.1387,-3.1465,-3.1385,-3.1525,-3.3392,-3.5625,-3.7606,-3.9442,-4.0682,-4.1329,-4.153,-4.1404,-4.0902,-4.0651,-4.0278,-3.9752,-4.1595,-4.3448,-4.484,-4.5987,-4.6726,-4.7106,-4.7309,-4.7309,-4.7279,-4.7189,-4.713,-4.698,-4.6886,-4.7031,-4.5486,-4.2883,-4.0808,-3.9543,-3.8687,-3.7955,-3.7585,-3.7354,-3.7744,-3.8114,-3.8357,-3.8012,-3.6843,-3.6823,-3.7916,-3.8768,-3.9399,-3.9677,-3.9725,-3.9747,-3.9798,-4.0023,-4.035,-4.0595,-4.0846,-4.0649,-4.0582,-4.1722,-4.2739,-4.3356,-4.3863,-4.4472,-4.4965,-2.1109,-2.1109,-2.1109,-2.1109,-2.1109,-2.1109,-2.1109,-2.1109,-2.1109,-2.1109,-2.1614,-2.5167,-2.6604,-2.7228,-2.9412,-3.0898,-3.0898,-3.0898,-3.0898,-3.0898,-3.0898,-3.0898,-3.0918,-3.0937,-3.0957,-3.0957,-3.1074,-3.1074,-3.0957,-3.1113,-3.1016,-3.0898,-3.1035,-3.0957,-3.0937,-3.0996,-3.0996,-3.0976,-3.0937,-3.0898,-3.0898,-3.0898,-3.0898,-3.0898,-3.0898,-3.0898,-3.0898,-3.0898,-3.0898,-3.0918,-3.0955,-3.1146,-3.1521,-3.166,-3.1521,-3.174,-3.2998,-3.5185,-3.7223,-3.9465,-4.123,-4.1907,-4.2192,-4.2225,-4.2113,-4.114,-4.0379,-3.9878,-4.1041,-4.2118,-4.3421,-4.4748,-4.6166,-4.6726,-4.7019,-4.7309,-4.7309,-4.7309,-4.7249,-4.7279,-4.7336,-4.7276,-4.649,-4.3949,-4.1976,-4.0621,-3.8661,-3.782,-3.8222,-3.818,-3.891,-3.9425,-3.9721,-3.8981,-3.7067,-3.727,-3.8266,-3.8994,-3.9523,-3.9674,-3.9672,-3.9772,-3.9998,-4.0375,-4.0752,-4.1014,-4.1305,-4.1404,-4.1579,-4.2418,-4.3254,-4.37,-4.4383,-4.5208,-4.5582,-2.1109,-2.1109,-2.1109,-2.1109,-2.1109,-2.1109,-2.1109,-2.1109,-2.1109,-2.1109,-2.1362,-2.5429,-2.7003,-2.7125,-2.9294,-3.0898,-3.0898,-3.0898,-3.0898,-3.0898,-3.0898,-3.0898,-3.0957,-3.1152,-3.1427,-3.1348,-3.1662,-3.1838,-3.1719,-3.1582,-3.166,-3.1621,-3.1406,-3.1309,-3.1269,-3.1269,-3.1269,-3.1172,-3.1035,-3.0898,-3.0898,-3.0898,-3.0898,-3.0898,-3.0898,-3.0898,-3.0898,-3.0898,-3.0898,-3.0976,-3.0975,-3.1127,-3.1556,-3.1836,-3.1973,-3.1808,-3.3191,-3.4987,-3.7058,-3.9297,-4.0929,-4.2399,-4.2746,-4.2755,-4.2939,-4.1878,-4.0802,-4.0383,-4.0159,-4.1025,-4.1258,-4.3631,-4.5689,-4.6166,-4.6638,-4.7019,-4.7309,-4.7309,-4.7309,-4.7309,-4.7279,-4.7279,-4.6285,-4.4895,-4.3216,-4.1497,-3.9468,-3.7839,-3.8338,-3.8789,-3.9406,-4.0076,-4.0305,-4.0533,-3.8837,-3.8693,-3.8741,-3.9193,-3.9697,-3.9697,-3.9747,-4.0149,-4.04,-4.0777,-4.1178,-4.1497,-4.1763,-4.2063,-4.2399,-4.2821,-4.3325,-4.3815,-4.4709,-4.575,-4.5993,-2.1109,-2.1109,-2.1109,-2.1109,-2.1109,-2.1109,-2.1109,-2.1109,-2.1109,-2.1109,-2.1362,-2.5274,-2.6726,-2.7108,-2.9294,-3.0392,-3.0392,-3.0528,-3.0392,-3.0567,-3.0644,-3.0937,-3.123,-3.1445,-3.1699,-3.1797,-3.2253,-3.243,-3.209,-3.2148,-3.209,-3.2012,-3.1992,-3.1894,-3.1719,-3.1719,-3.166,-3.1465,-3.1269,-3.0976,-3.0937,-3.0898,-3.1016,-3.1055,-3.1113,-3.1133,-3.1133,-3.1152,-3.1133,-3.1015,-3.0975,-3.0911,-3.132,-3.1973,-3.2591,-3.2933,-3.3558,-3.5079,-3.7278,-3.9679,-4.137,-4.2724,-4.2936,-4.2982,-4.2764,-4.2207,-4.1028,-3.9935,-3.9701,-3.9699,-3.9848,-4.2358,-4.4599,-4.5298,-4.5987,-4.6462,-4.7106,-4.7309,-4.7309,-4.7309,-4.7309,-4.7309,-4.6314,-4.5035,-4.2736,-4.1245,-3.9938,-3.8617,-3.8592,-3.902,-3.9347,-4.0079,-4.0663,-4.0893,-4.1097,-4.0083,-3.9218,-3.9293,-3.9697,-3.9697,-3.9848,-4.03,-4.0701,-4.1003,-4.1322,-4.1848,-4.2298,-4.2699,-4.2799,-4.2961,-4.3778,-4.4749,-4.5213,-4.6061,-4.5955,-2.1109,-2.1109,-2.1109,-2.1109,-2.1109,-2.1109,-2.1109,-2.1109,-2.1109,-2.1109,-2.1475,-2.4548,-2.6001,-2.647,-2.9039,-2.9785,-2.9394,-3.0157,-3.043,-2.978,-3.0757,-3.1307,-3.1521,-3.1735,-3.1988,-3.2168,-3.2485,-3.2564,-3.2285,-3.2383,-3.2324,-3.2402,-3.2539,-3.2539,-3.2207,-3.2148,-3.1934,-3.1582,-3.1523,-3.1309,-3.1055,-3.1035,-3.1269,-3.1426,-3.1504,-3.1504,-3.1387,-3.1387,-3.1348,-3.1269,-3.1074,-3.1011,-3.1039,-3.1595,-3.2411,-3.3184,-3.304,-3.4592,-3.7434,-4.0901,-4.2526,-4.2936,-4.2986,-4.3033,-4.2764,-4.2048,-4.1021,-4.0003,-3.9844,-3.9905,-4.0233,-4.113,-4.33,-4.4509,-4.5217,-4.6072,-4.6757,-4.7309,-4.7309,-4.7309,-4.7309,-4.7135,-4.6373,-4.5058,-4.2412,-4.0702,-3.9956,-3.9421,-3.9068,-3.917,-3.9525,-3.9829,-4.0415,-4.067,-4.0695,-4.0159,-3.9697,-3.9722,-3.9873,-4.0074,-4.0249,-4.0626,-4.1003,-4.1279,-4.1907,-4.2499,-4.3037,-4.3413,-4.3753,-4.4219,-4.517,-4.5882,-4.6155,-4.6295,-4.6426,-2.1109,-2.1109,-2.1109,-2.1109,-2.1109,-2.1109,-2.1109,-2.1109,-2.1109,-2.1109,-2.1475,-2.3559,-2.4425,-2.5391,-2.7469,-2.8938,-2.8838,-3.0039,-3.0332,-3.0577,-3.1265,-3.1579,-3.1973,-3.2305,-3.2416,-3.2656,-3.2936,-3.3093,-3.3027,-3.291,-3.2969,-3.3066,-3.3027,-3.3125,-3.2949,-3.2754,-3.2383,-3.2031,-3.1914,-3.1758,-3.1387,-3.1543,-3.1777,-3.1934,-3.1953,-3.1836,-3.1621,-3.1621,-3.1484,-3.1309,-3.1191,-3.1287,-3.1161,-3.1672,-3.2544,-3.3296,-3.3328,-3.4656,-3.7859,-4.0889,-4.2849,-4.2986,-4.2961,-4.3058,-4.2899,-4.2747,-4.1555,-4.0475,-4.0464,-4.0581,-4.1072,-4.2034,-4.3486,-4.3877,-4.4678,-4.5795,-4.6599,-4.7051,-4.7309,-4.7309,-4.7309,-4.7286,-4.6815,-4.5173,-4.2617,-4.1031,-4.021,-3.9725,-3.9471,-3.9471,-3.9674,-3.9674,-4.0006,-4.0262,-4.021,-3.9923,-4.0379,-4.079,-4.0782,-4.0902,-4.1053,-4.1103,-4.143,-4.1697,-4.2559,-4.3288,-4.3689,-4.4231,-4.5016,-4.5755,-4.6188,-4.6391,-4.6289,-4.6642,-4.7091,-2.1109,-2.1109,-2.1109,-2.1109,-2.1109,-2.1109,-2.1109,-2.1109,-2.1109,-2.1109,-2.1475,-2.2841,-2.3649,-2.4564,-2.6305,-2.7887,-2.8078,-2.9601,-3.0515,-3.0997,-3.1813,-3.2027,-3.2461,-3.2793,-3.2969,-3.3086,-3.3223,-3.3379,-3.334,-3.3398,-3.3359,-3.334,-3.3418,-3.3359,-3.3281,-3.3066,-3.2812,-3.25,-3.2344,-3.2168,-3.1934,-3.1973,-3.2207,-3.2344,-3.2363,-3.2266,-3.2012,-3.1797,-3.1621,-3.1486,-3.1446,-3.1523,-3.1609,-3.2118,-3.2897,-3.3223,-3.486,-3.6051,-3.8439,-4.1167,-4.2737,-4.2986,-4.2986,-4.2997,-4.2941,-4.2604,-4.2167,-4.1497,-4.1347,-4.1588,-4.196,-4.297,-4.2892,-4.3383,-4.4511,-4.5549,-4.6633,-4.7137,-4.7404,-4.7461,-4.7282,-4.7317,-4.6991,-4.5068,-4.289,-4.1754,-4.064,-4.0134,-3.9722,-3.9697,-3.9747,-3.9772,-3.9719,-3.9948,-4.0074,-3.9804,-4.052,-4.1711,-4.1833,-4.1688,-4.148,-4.1455,-4.1907,-4.2248,-4.2899,-4.3551,-4.4292,-4.4936,-4.5582,-4.6205,-4.6686,-4.6667,-4.6351,-4.6799,-4.7349,-2.1109,-2.1109,-2.1109,-2.1109,-2.1109,-2.1109,-2.1109,-2.1109,-2.1109,-2.1109,-2.1222,-2.2716,-2.3319,-2.3948,-2.5609,-2.6628,-2.7503,-2.8942,-2.981,-3.0575,-3.1911,-3.2533,-3.2891,-3.3164,-3.3262,-3.3359,-3.3418,-3.3418,-3.3418,-3.3418,-3.3418,-3.3418,-3.3418,-3.3418,-3.3379,-3.332,-3.3066,-3.2773,-3.2754,-3.2539,-3.2305,-3.2305,-3.2559,-3.2734,-3.2793,-3.2734,-3.2519,-3.2266,-3.207,-3.1855,-3.166,-3.1871,-3.2099,-3.2572,-3.3027,-3.4013,-3.6173,-3.7506,-3.858,-4.1191,-4.2625,-4.2986,-4.2986,-4.2961,-4.2922,-4.2595,-4.2393,-4.2242,-4.2225,-4.2442,-4.29,-4.2562,-4.2225,-4.3258,-4.4361,-4.5524,-4.6795,-4.7294,-4.7584,-4.7554,-4.7372,-4.7197,-4.6904,-4.536,-4.3515,-4.2189,-4.1115,-4.0491,-4.0105,-3.9722,-3.9772,-3.9948,-3.9815,-3.9755,-3.9848,-4.0301,-4.1046,-4.2296,-4.25,-4.241,-4.2149,-4.1932,-4.2223,-4.2588,-4.3162,-4.3951,-4.4803,-4.5522,-4.6069,-4.6572,-4.7122,-4.7025,-4.6681,-4.7057,-4.7531,-2.1109,-2.1109,-2.1109,-2.1109,-2.1109,-2.1109,-2.1109,-2.1109,-2.1109,-2.1109,-2.1109,-2.1601,-2.2062,-2.2117,-2.3806,-2.5345,-2.7027,-2.8604,-3.0544,-3.1656,-3.2382,-3.2863,-3.3184,-3.334,-3.3418,-3.3418,-3.3418,-3.3418,-3.3418,-3.3418,-3.3418,-3.3418,-3.3418,-3.3418,-3.3418,-3.3418,-3.3144,-3.2988,-3.3086,-3.291,-3.2793,-3.2812,-3.3027,-3.3144,-3.3184,-3.3086,-3.2812,-3.2441,-3.2148,-3.1758,-3.1348,-3.1365,-3.2226,-3.2363,-3.2598,-3.3677,-3.6072,-3.8223,-3.8698,-4.1191,-4.2986,-4.2986,-4.2986,-4.3033,-4.2932,-4.2881,-4.2695,-4.273,-4.273,-4.284,-4.295,-4.2663,-4.2536,-4.3085,-4.4203,-4.5329,-4.649,-4.731,-4.7508,-4.7466,-4.7314,-4.7282,-4.6961,-4.5958,-4.4293,-4.2835,-4.1683,-4.1027,-4.0487,-4.0127,-4.0049,-4.0249,-4.019,-4.0177,-4.0914,-4.1422,-4.2124,-4.283,-4.3059,-4.3127,-4.2771,-4.2599,-4.2662,-4.3024,-4.3721,-4.4661,-4.5679,-4.62,-4.623,-4.6975,-4.75,-4.7255,-4.7207,-4.7608,-4.8007,-2.1109,-2.1109,-2.1109,-2.1109,-2.1109,-2.1109,-2.1109,-2.1109,-2.1109,-2.1109,-2.1109,-2.1109,-2.1176,-2.1605,-2.2736,-2.4223,-2.6041,-2.806,-2.9867,-3.1388,-3.2633,-3.3058,-3.3359,-3.3418,-3.3418,-3.3418,-3.3418,-3.3418,-3.3418,-3.3418,-3.3418,-3.3418,-3.3418,-3.3418,-3.3418,-3.3398,-3.3301,-3.3203,-3.3203,-3.3203,-3.3223,-3.3262,-3.3359,-3.3418,-3.3418,-3.3242,-3.3027,-3.2617,-3.2266,-3.1992,-3.1621,-3.1401,-3.206,-3.2254,-3.2773,-3.4007,-3.6316,-3.7865,-3.8698,-4.1191,-4.2488,-4.2986,-4.2986,-4.2997,-4.2972,-4.2947,-4.2897,-4.2957,-4.2972,-4.2961,-4.2961,-4.2961,-4.2961,-4.3048,-4.4059,-4.5048,-4.6091,-4.7178,-4.7304,-4.7347,-4.7316,-4.7255,-4.6815,-4.6016,-4.4932,-4.3381,-4.2244,-4.149,-4.0999,-4.0576,-4.0651,-4.0802,-4.0739,-4.0674,-4.1547,-4.2242,-4.2629,-4.3093,-4.366,-4.3675,-4.345,-4.3425,-4.3537,-4.3896,-4.4259,-4.5266,-4.6326,-4.6209,-4.6409,-4.7154,-4.7881,-4.8259,-4.8209,-4.8159,-4.881,-2.1109,-2.1109,-2.1109,-2.1109,-2.1109,-2.1109,-2.1109,-2.1109,-2.1109,-2.1109,-2.1109,-2.1109,-2.1243,-2.1545,-2.2059,-2.3349,-2.51,-2.6971,-2.9,-3.0717,-3.2143,-3.2854,-3.3272,-3.3418,-3.3418,-3.3418,-3.3418,-3.3418,-3.3418,-3.3418,-3.3418,-3.3418,-3.3418,-3.3418,-3.3418,-3.3418,-3.3359,-3.3359,-3.3359,-3.3359,-3.3379,-3.3398,-3.3418,-3.3418,-3.3418,-3.3379,-3.3281,-3.3066,-3.2793,-3.2637,-3.2319,-3.17,-3.2027,-3.245,-3.3155,-3.4113,-3.6173,-3.7506,-3.8698,-4.0822,-4.2375,-4.2849,-4.2986,-4.2961,-4.3048,-4.3048,-4.3022,-4.2997,-4.2961,-4.2986,-4.2986,-4.2986,-4.2986,-4.3073,-4.3669,-4.4811,-4.5809,-4.7263,-4.8763,-4.8474,-4.7674,-4.7584,-4.7197,-4.6431,-4.645,-4.4555,-4.36,-4.2844,-4.1956,-4.166,-4.1468,-4.1512,-4.1164,-4.1121,-4.1838,-4.2484,-4.276,-4.3274,-4.3866,-4.3992,-4.3702,-4.3951,-4.4461,-4.4935,-4.5673,-4.5955,-4.6577,-4.6484,-4.6513,-4.7159,-4.8058,-4.9115,-4.9291,-4.8962,-4.9113,-2.1109,-2.1109,-2.1109,-2.1109,-2.1109,-2.1109,-2.1109,-2.1109,-2.1109,-2.1109,-2.1109,-2.1122,-2.1149,-2.1283,-2.159,-2.2832,-2.4342,-2.5812,-2.7718,-2.9585,-3.1176,-3.2365,-3.3165,-3.3292,-3.3418,-3.3418,-3.3418,-3.3418,-3.3418,-3.3418,-3.3418,-3.3418,-3.3418,-3.3418,-3.3418,-3.3418,-3.3418,-3.3418,-3.3418,-3.3418,-3.3418,-3.3418,-3.3418,-3.3418,-3.3437,-3.3437,-3.332,-3.3066,-3.2871,-3.2715,-3.2363,-3.226,-3.2428,-3.3039,-3.3379,-3.3776,-3.5335,-3.6902,-3.8439,-4.0245,-4.1672,-4.2737,-4.2986,-4.2986,-4.2986,-4.2986,-4.2986,-4.2986,-4.2986,-4.2986,-4.2986,-4.2986,-4.2986,-4.3184,-4.3381,-4.4427,-4.5475,-4.7724,-4.9897,-4.939,-4.8295,-4.7881,-4.7614,-4.7377,-4.7433,-4.7027,-4.6547,-4.5735,-4.4246,-4.3544,-4.2798,-4.2525,-4.1538,-4.1604,-4.2213,-4.2624,-4.2874,-4.3313,-4.3853,-4.3929,-4.3915,-4.4452,-4.5035,-4.6307,-4.7103,-4.7116,-4.6903,-4.6588,-4.6786,-4.7082,-4.8233,-4.9341,-4.9568,-4.9314,-4.9416,-2.1109,-2.1109,-2.1109,-2.1109,-2.1109,-2.1109,-2.1109,-2.1109,-2.1109,-2.1049,-2.1115,-2.1036,-2.1109,-2.1203,-2.1537,-2.2114,-2.3494,-2.4701,-2.6145,-2.7965,-3.0077,-3.1249,-3.2091,-3.3019,-3.3292,-3.3418,-3.3418,-3.3418,-3.3418,-3.3418,-3.3418,-3.3418,-3.3418,-3.3418,-3.3418,-3.3418,-3.3418,-3.3418,-3.3418,-3.3418,-3.3457,-3.3555,-3.3535,-3.3535,-3.3574,-3.3574,-3.3398,-3.3184,-3.3125,-3.3066,-3.2871,-3.2695,-3.2786,-3.3184,-3.3379,-3.3776,-3.4984,-3.6517,-3.8082,-3.9639,-4.1191,-4.2263,-4.2986,-4.2986,-4.2986,-4.2986,-4.2986,-4.2986,-4.2986,-4.2986,-4.2986,-4.2986,-4.2986,-4.3073,-4.3295,-4.3907,-4.5902,-4.8275,-4.989,-5.0514,-4.9897,-4.969,-4.9215,-4.8292,-4.8374,-4.8311,-4.805,-4.7088,-4.5833,-4.4732,-4.4144,-4.3387,-4.2368,-4.2088,-4.2599,-4.2849,-4.2912,-4.3375,-4.4055,-4.4543,-4.4878,-4.5254,-4.5754,-4.6762,-4.7313,-4.7471,-4.7132,-4.701,-4.6685,-4.683,-4.8078,-4.9517,-4.9643,-4.959,-4.9621,-2.1109,-2.1109,-2.1109,-2.1109,-2.1109,-2.1109,-2.1109,-2.1109,-2.1162,-2.1155,-2.1199,-2.1195,-2.1229,-2.1416,-2.1697,-2.1871,-2.2495,-2.3742,-2.4922,-2.6448,-2.8605,-2.996,-3.1304,-3.2237,-3.2765,-3.3292,-3.3418,-3.3418,-3.3418,-3.3418,-3.3418,-3.3418,-3.3418,-3.3418,-3.3418,-3.3418,-3.3418,-3.3418,-3.3418,-3.3418,-3.3574,-3.3769,-3.3652,-3.3652,-3.3769,-3.3809,-3.3555,-3.3476,-3.3476,-3.3379,-3.3301,-3.3164,-3.3086,-3.3242,-3.334,-3.3776,-3.4383,-3.5928,-3.7604,-3.9053,-4.0707,-4.2037,-4.2625,-4.2986,-4.2986,-4.2986,-4.2986,-4.2986,-4.2986,-4.2986,-4.2986,-4.2986,-4.2986,-4.2986,-4.3184,-4.3492,-4.5955,-4.8033,-4.8991,-5.0213,-5.072,-5.0543,-4.926,-4.837,-4.877,-4.8799,-4.8478,-4.7502,-4.6505,-4.5286,-4.4353,-4.3753,-4.2992,-4.2922,-4.3062,-4.3125,-4.3187,-4.3991,-4.4659,-4.5372,-4.5855,-4.5855,-4.6055,-4.6723,-4.7222,-4.7554,-4.7807,-4.7732,-4.7354,-4.7125,-4.8228,-4.9643,-4.9586,-4.9561,-4.9544,-2.1109,-2.1109,-2.1109,-2.1109,-2.1109,-2.1109,-2.1109,-2.1149,-2.1363,-2.1368,-2.1305,-2.1633,-2.1817,-2.166,-2.1884,-2.2004,-2.2243,-2.3236,-2.4066,-2.551,-2.6597,-2.8377,-3.0107,-3.1176,-3.2091,-3.2765,-3.3292,-3.3418,-3.3418,-3.3418,-3.3418,-3.3418,-3.3418,-3.3418,-3.3418,-3.3418,-3.3418,-3.3418,-3.3418,-3.3418,-3.3437,-3.3516,-3.3496,-3.3594,-3.3828,-3.3711,-3.3633,-3.3789,-3.3691,-3.3535,-3.3418,-3.334,-3.332,-3.334,-3.3398,-3.3418,-3.4007,-3.4964,-3.6539,-3.8082,-3.9756,-4.1305,-4.2012,-4.2986,-4.2986,-4.2986,-4.2986,-4.2986,-4.2986,-4.2986,-4.2986,-4.2986,-4.2986,-4.2986,-4.3073,-4.3713,-4.5178,-4.5422,-4.5657,-4.7549,-4.9263,-4.774,-4.5409,-4.5733,-4.7502,-4.7531,-4.7644,-4.6891,-4.6837,-4.5816,-4.4643,-4.4094,-4.3482,-4.3162,-4.2999,-4.3475,-4.3751,-4.4583,-4.5254,-4.5504,-4.5905,-4.6225,-4.6502,-4.7126,-4.7604,-4.7933,-4.8184,-4.8283,-4.8657,-4.8629,-4.8957,-4.964,-4.9581,-4.9656,-4.9769]}]]